[[{"header":{"parameterUnit":"m.s-1","parameterCategory":1,"la1":30.6,"la2":29.2853,"lo1":-89.7004,"lo2":-87.6739,"dy":0.0162,"dx":0.0183,"nx":112,"ny":82,"refTime":"2026-03-20T12:00:00:Z","depth":0,"parameterNumber":2,"parameterNumberName":"U-component_of_WINDS"},"data":[0.0,0.0,0.0,0.0,0.0,0.0,0.0,0.0,0.0,0.0,0.0,0.0,0.0,0.0,0.0,0.0,0.0,0.0,0.0,0.0,0.0,0.0,0.0,0.0,0.0,0.0,0.0,0.0,0.0,0.0,0.0,0.0,0.0,0.0,0.0,0.0,0.0,0.0,0.0,0.0,0.0,0.0,0.0,0.0,0.0,0.0,0.0,0.0,0.0,0.0,0.0,0.0,0.0,0.0,0.0,0.0,0.0,0.0,0.0,0.0,0.0,0.0,0.0,0.0,0.0,0.0,0.0,0.0,0.0,0.0,0.0,0.0,0.0,0.0,0.0,0.0,0.0,0.0,0.0,0.0,0.0,0.0,0.0,0.0,0.0,0.0,0.0,0.0,0.0,0.0,-2.6299,-2.8511,-3.1764,-3.3575,-3.2974,-3.2749,-3.1575,-2.91,0.0,0.0,0.0,0.0,0.0,0.0,0.0,0.0,0.0,0.0,0.0,0.0,0.0,0.0,0.0,0.0,0.0,0.0,0.0,0.0,0.0,0.0,0.0,0.0,0.0,0.0,0.0,0.0,0.0,0.0,0.0,0.0,0.0,0.0,0.0,0.0,0.0,0.0,0.0,0.0,0.0,0.0,0.0,0.0,0.0,0.0,0.0,0.0,0.0,0.0,0.0,0.0,0.0,0.0,0.0,0.0,0.0,0.0,0.0,0.0,0.0,0.0,0.0,0.0,0.0,0.0,0.0,0.0,0.0,0.0,0.0,0.0,0.0,0.0,0.0,0.0,0.0,0.0,0.0,0.0,0.0,0.0,0.0,0.0,0.0,0.0,0.0,0.0,0.0,0.0,0.0,0.0,0.0,0.0,0.0,0.0,0.0,0.0,0.0,0.0,0.0,0.0,0.0,0.0,-2.7047,-3.1062,-3.301,-3.3959,-3.4041,-3.3093,-3.1736,-3.0019,0.0,0.0,0.0,0.0,0.0,0.0,0.0,0.0,0.0,0.0,0.0,0.0,0.0,0.0,0.0,0.0,0.0,0.0,0.0,0.0,0.0,0.0,0.0,0.0,0.0,0.0,0.0,0.0,0.0,0.0,0.0,0.0,0.0,0.0,0.0,0.0,0.0,0.0,0.0,0.0,0.0,0.0,0.0,0.0,0.0,0.0,0.0,0.0,0.0,0.0,0.0,0.0,0.0,0.0,0.0,0.0,0.0,0.0,0.0,0.0,0.0,0.0,0.0,0.0,0.0,0.0,0.0,0.0,0.0,0.0,0.0,0.0,0.0,0.0,0.0,0.0,0.0,0.0,0.0,0.0,0.0,0.0,0.0,0.0,0.0,0.0,0.0,0.0,0.0,0.0,0.0,0.0,0.0,0.0,0.0,0.0,0.0,0.0,0.0,0.0,0.0,0.0,0.0,-2.7284,-2.9615,-3.2264,-3.3883,-3.4476,-3.3768,-3.3168,-3.1917,-2.9781,-2.9093,0.0,0.0,0.0,0.0,0.0,0.0,0.0,0.0,0.0,0.0,0.0,0.0,0.0,0.0,0.0,0.0,0.0,0.0,0.0,0.0,0.0,0.0,0.0,0.0,0.0,0.0,0.0,0.0,0.0,0.0,0.0,0.0,0.0,0.0,0.0,0.0,0.0,0.0,0.0,0.0,0.0,0.0,0.0,0.0,0.0,0.0,0.0,0.0,0.0,0.0,0.0,0.0,0.0,0.0,0.0,0.0,0.0,0.0,0.0,0.0,0.0,0.0,0.0,0.0,0.0,0.0,0.0,0.0,0.0,0.0,0.0,0.0,0.0,0.0,0.0,0.0,0.0,0.0,0.0,0.0,0.0,0.0,0.0,0.0,0.0,0.0,0.0,0.0,0.0,0.0,0.0,0.0,0.0,0.0,0.0,0.0,0.0,0.0,0.0,0.0,0.0,0.0,-2.9565,-3.1417,-3.2708,-3.4206,-3.4587,-3.3227,-3.2947,-3.1859,-2.9552,-2.906,0.0,0.0,0.0,0.0,0.0,0.0,0.0,0.0,0.0,0.0,0.0,0.0,0.0,0.0,0.0,0.0,0.0,0.0,0.0,0.0,0.0,0.0,0.0,0.0,0.0,0.0,0.0,0.0,0.0,0.0,0.0,0.0,0.0,0.0,0.0,0.0,0.0,0.0,0.0,0.0,0.0,0.0,0.0,0.0,0.0,0.0,0.0,0.0,0.0,0.0,0.0,0.0,0.0,0.0,0.0,0.0,0.0,0.0,0.0,0.0,0.0,0.0,0.0,0.0,0.0,0.0,0.0,0.0,0.0,0.0,0.0,0.0,0.0,0.0,0.0,0.0,0.0,0.0,0.0,0.0,0.0,0.0,0.0,0.0,0.0,0.0,0.0,0.0,0.0,0.0,0.0,0.0,0.0,0.0,0.0,0.0,0.0,0.0,0.0,0.0,0.0,0.0,-2.9631,-3.0841,-3.2566,-3.3451,-3.3659,-3.3058,-3.2291,-3.1211,-2.9654,-2.8878,0.0,0.0,0.0,0.0,0.0,0.0,0.0,0.0,0.0,0.0,0.0,0.0,0.0,0.0,0.0,0.0,0.0,0.0,0.0,0.0,0.0,0.0,0.0,0.0,0.0,0.0,0.0,0.0,0.0,0.0,0.0,0.0,0.0,0.0,0.0,0.0,0.0,0.0,0.0,0.0,0.0,0.0,0.0,0.0,0.0,0.0,0.0,0.0,0.0,0.0,0.0,0.0,0.0,0.0,0.0,0.0,0.0,0.0,0.0,0.0,0.0,0.0,0.0,0.0,0.0,0.0,0.0,0.0,0.0,0.0,0.0,0.0,0.0,0.0,0.0,0.0,0.0,0.0,0.0,0.0,0.0,0.0,0.0,0.0,0.0,0.0,0.0,0.0,0.0,0.0,0.0,0.0,0.0,0.0,0.0,0.0,0.0,0.0,0.0,0.0,0.0,0.0,-2.9937,-3.1075,-3.2566,-3.3381,-3.352,-3.2846,-3.2412,-3.1439,-2.975,0.0,0.0,0.0,0.0,0.0,0.0,0.0,0.0,0.0,0.0,0.0,0.0,0.0,0.0,0.0,0.0,0.0,0.0,0.0,0.0,0.0,0.0,0.0,0.0,0.0,0.0,0.0,0.0,0.0,0.0,0.0,0.0,0.0,0.0,0.0,0.0,0.0,0.0,0.0,0.0,0.0,0.0,0.0,0.0,0.0,0.0,0.0,0.0,0.0,0.0,0.0,0.0,0.0,0.0,0.0,0.0,0.0,0.0,0.0,0.0,0.0,0.0,0.0,0.0,0.0,0.0,0.0,0.0,0.0,0.0,0.0,0.0,0.0,0.0,0.0,0.0,0.0,0.0,0.0,0.0,0.0,0.0,0.0,0.0,0.0,0.0,0.0,0.0,0.0,0.0,0.0,0.0,0.0,0.0,0.0,0.0,0.0,0.0,0.0,0.0,0.0,0.0,-2.9021,-2.995,-3.0881,-3.2365,-3.2974,-3.3115,-3.2618,-3.2239,-3.1351,-2.9821,0.0,0.0,0.0,0.0,0.0,0.0,0.0,0.0,0.0,0.0,0.0,0.0,0.0,0.0,0.0,0.0,0.0,0.0,0.0,0.0,0.0,0.0,0.0,0.0,0.0,0.0,0.0,0.0,0.0,0.0,0.0,0.0,0.0,0.0,0.0,0.0,0.0,0.0,0.0,0.0,0.0,0.0,0.0,0.0,0.0,0.0,0.0,0.0,0.0,0.0,0.0,0.0,0.0,0.0,0.0,0.0,0.0,0.0,0.0,0.0,0.0,0.0,0.0,0.0,0.0,0.0,0.0,0.0,0.0,0.0,0.0,0.0,0.0,0.0,0.0,0.0,0.0,0.0,0.0,0.0,0.0,0.0,0.0,0.0,0.0,0.0,0.0,0.0,0.0,0.0,0.0,0.0,0.0,0.0,0.0,0.0,0.0,0.0,0.0,0.0,0.0,0.0,-2.9166,-2.9627,-3.029,-3.1974,-3.2182,-3.2241,-3.2403,-3.1728,-3.0932,0.0,0.0,0.0,0.0,0.0,0.0,0.0,0.0,0.0,0.0,0.0,0.0,0.0,0.0,0.0,0.0,0.0,0.0,0.0,0.0,0.0,0.0,0.0,0.0,0.0,0.0,0.0,0.0,0.0,0.0,0.0,0.0,0.0,0.0,0.0,0.0,0.0,0.0,0.0,0.0,0.0,0.0,0.0,0.0,0.0,0.0,0.0,0.0,0.0,0.0,0.0,0.0,0.0,0.0,0.0,0.0,0.0,0.0,0.0,0.0,0.0,0.0,0.0,0.0,0.0,0.0,0.0,0.0,0.0,0.0,0.0,0.0,0.0,0.0,0.0,0.0,0.0,0.0,0.0,0.0,0.0,0.0,0.0,0.0,0.0,0.0,0.0,0.0,0.0,0.0,0.0,0.0,0.0,0.0,0.0,0.0,0.0,0.0,0.0,0.0,0.0,0.0,0.0,-2.901,-3.0057,-3.1016,-3.2087,-3.2182,-3.2078,-3.1643,-3.169,-3.0885,-2.8879,0.0,0.0,0.0,0.0,0.0,0.0,0.0,0.0,0.0,0.0,0.0,0.0,0.0,0.0,0.0,0.0,0.0,0.0,0.0,0.0,0.0,0.0,0.0,0.0,0.0,0.0,0.0,0.0,0.0,0.0,0.0,0.0,0.0,0.0,0.0,0.0,0.0,0.0,0.0,0.0,0.0,0.0,0.0,0.0,0.0,0.0,0.0,0.0,0.0,0.0,0.0,0.0,0.0,0.0,0.0,0.0,0.0,0.0,0.0,0.0,0.0,0.0,0.0,0.0,0.0,0.0,0.0,0.0,0.0,0.0,0.0,0.0,0.0,0.0,0.0,0.0,0.0,0.0,0.0,0.0,0.0,0.0,0.0,0.0,0.0,0.0,0.0,0.0,0.0,0.0,0.0,0.0,0.0,0.0,0.0,0.0,0.0,0.0,0.0,0.0,0.0,0.0,-2.8559,-2.9887,-3.0831,-3.1436,-3.1477,-3.1327,-3.0975,-3.1132,-3.0465,-2.8492,0.0,0.0,0.0,0.0,0.0,0.0,0.0,0.0,0.0,0.0,0.0,0.0,0.0,0.0,0.0,0.0,0.0,0.0,0.0,0.0,0.0,0.0,0.0,0.0,0.0,0.0,0.0,0.0,0.0,0.0,0.0,0.0,0.0,0.0,0.0,0.0,0.0,0.0,0.0,0.0,0.0,0.0,0.0,0.0,0.0,0.0,0.0,0.0,0.0,0.0,0.0,0.0,0.0,0.0,0.0,0.0,0.0,0.0,0.0,0.0,0.0,0.0,0.0,0.0,0.0,0.0,0.0,0.0,0.0,0.0,0.0,0.0,0.0,0.0,0.0,0.0,0.0,0.0,0.0,0.0,0.0,0.0,0.0,0.0,0.0,0.0,0.0,0.0,0.0,0.0,0.0,0.0,0.0,0.0,0.0,0.0,0.0,0.0,0.0,0.0,0.0,0.0,-2.7944,-2.9363,-3.0239,-3.0418,-3.0336,-3.0309,-3.0255,-3.024,-2.9669,-2.8255,0.0,0.0,0.0,0.0,0.0,0.0,0.0,0.0,0.0,0.0,0.0,0.0,0.0,0.0,0.0,0.0,0.0,0.0,0.0,0.0,0.0,0.0,0.0,0.0,0.0,0.0,0.0,0.0,0.0,0.0,0.0,0.0,0.0,0.0,0.0,0.0,0.0,0.0,0.0,0.0,0.0,0.0,0.0,0.0,0.0,0.0,0.0,0.0,0.0,0.0,0.0,0.0,0.0,0.0,0.0,0.0,0.0,0.0,0.0,0.0,-2.405,-2.3414,0.0,0.0,0.0,0.0,0.0,0.0,0.0,0.0,0.0,0.0,0.0,0.0,0.0,0.0,0.0,0.0,0.0,0.0,0.0,0.0,0.0,0.0,0.0,0.0,0.0,0.0,0.0,0.0,0.0,0.0,0.0,0.0,0.0,0.0,0.0,0.0,0.0,0.0,0.0,0.0,-2.7207,-2.9484,-3.085,-3.0459,-3.0046,-2.9568,-2.909,-2.9127,-2.8412,-2.6721,-2.6739,0.0,0.0,0.0,0.0,0.0,0.0,0.0,0.0,0.0,0.0,0.0,0.0,0.0,0.0,0.0,0.0,0.0,0.0,0.0,0.0,0.0,0.0,0.0,0.0,0.0,0.0,0.0,0.0,0.0,0.0,0.0,0.0,0.0,0.0,0.0,0.0,0.0,0.0,0.0,0.0,0.0,0.0,0.0,0.0,0.0,0.0,0.0,0.0,0.0,0.0,0.0,0.0,0.0,0.0,0.0,0.0,0.0,0.0,0.0,-2.558,-2.4798,0.0,0.0,0.0,0.0,0.0,0.0,0.0,0.0,0.0,0.0,0.0,0.0,0.0,0.0,0.0,0.0,0.0,0.0,0.0,0.0,0.0,0.0,0.0,0.0,0.0,0.0,0.0,0.0,0.0,0.0,0.0,0.0,0.0,0.0,0.0,0.0,0.0,0.0,0.0,0.0,-2.6193,-2.8223,-2.9416,-2.8834,-2.8494,-2.8226,-2.7913,-2.7898,-2.7403,-2.6118,-2.5958,0.0,0.0,0.0,0.0,0.0,0.0,0.0,0.0,0.0,0.0,0.0,0.0,0.0,0.0,0.0,0.0,0.0,0.0,0.0,0.0,0.0,0.0,0.0,0.0,0.0,0.0,0.0,0.0,0.0,0.0,0.0,0.0,0.0,0.0,0.0,0.0,0.0,0.0,0.0,0.0,0.0,0.0,0.0,0.0,0.0,0.0,0.0,0.0,0.0,0.0,0.0,0.0,0.0,-2.5929,-2.6572,-2.7154,-2.7681,-2.7641,-2.7076,-2.7117,-2.6385,-2.5246,-2.6276,0.0,0.0,0.0,0.0,0.0,0.0,0.0,0.0,0.0,0.0,0.0,0.0,0.0,0.0,0.0,0.0,0.0,0.0,0.0,0.0,0.0,0.0,-2.2446,-2.2905,-2.2717,-2.2252,-2.1707,0.0,0.0,0.0,0.0,0.0,0.0,0.0,0.0,0.0,0.0,0.0,-2.5307,-2.6819,-2.7657,-2.7092,-2.6905,-2.6837,-2.6837,-2.6769,-2.6414,-2.5861,-2.522,-2.4474,0.0,0.0,0.0,0.0,0.0,0.0,0.0,0.0,0.0,0.0,0.0,0.0,0.0,0.0,0.0,0.0,0.0,0.0,0.0,0.0,0.0,0.0,0.0,0.0,0.0,0.0,0.0,0.0,0.0,0.0,0.0,0.0,-1.8056,-1.9472,0.0,0.0,0.0,0.0,0.0,0.0,0.0,0.0,0.0,0.0,0.0,0.0,0.0,-2.5871,-2.5355,-2.6343,-2.6834,-2.6913,-2.699,-2.7373,-2.7946,-2.7493,-2.7533,-2.7999,-2.8505,0.0,-2.5728,-2.6355,0.0,0.0,0.0,0.0,0.0,0.0,0.0,0.0,0.0,0.0,0.0,0.0,0.0,0.0,0.0,0.0,0.0,0.0,0.0,0.0,0.0,0.0,-2.3417,-2.3099,-2.2957,-2.2892,-2.2752,-2.2171,-2.164,-2.1782,-2.2184,-2.2559,0.0,0.0,0.0,0.0,0.0,0.0,-2.5378,-2.6858,-2.7657,-2.7092,-2.6564,-2.6302,-2.6302,-2.5804,-2.5441,-2.5382,-2.4598,-2.4167,-2.4267,-2.282,0.0,0.0,0.0,0.0,0.0,0.0,0.0,0.0,0.0,0.0,0.0,0.0,0.0,0.0,0.0,0.0,0.0,0.0,0.0,0.0,0.0,0.0,0.0,0.0,0.0,0.0,0.0,0.0,0.0,-1.8544,-2.0194,-2.127,-2.2274,-2.314,0.0,0.0,0.0,0.0,0.0,0.0,0.0,0.0,0.0,-2.6387,-2.6654,-2.6827,-2.692,-2.708,-2.7333,-2.7679,-2.7474,-2.7685,-2.8235,-2.8045,-2.8072,-2.8224,-2.8826,-2.8153,-2.6622,-2.7322,-2.6881,-2.5817,0.0,0.0,0.0,0.0,-2.3372,-2.3216,-2.3558,-2.346,-2.3143,-2.334,0.0,0.0,0.0,0.0,0.0,0.0,0.0,-2.3329,-2.3394,-2.3362,-2.3329,-2.3394,-2.3198,-2.3001,-2.3001,-2.282,-2.2733,-2.2748,-2.311,-2.3325,-2.3029,-2.3245,0.0,0.0,0.0,-2.4927,-2.4927,-2.5807,-2.633,-2.6094,-2.5791,-2.5664,-2.5664,-2.5453,-2.5241,-2.5052,-2.4637,-2.4446,-2.4368,-2.3469,-2.2811,0.0,0.0,0.0,0.0,0.0,0.0,0.0,0.0,0.0,0.0,0.0,0.0,0.0,0.0,0.0,0.0,0.0,0.0,0.0,0.0,0.0,0.0,0.0,0.0,0.0,0.0,0.0,0.0,-2.0401,-2.1635,-2.2984,-2.3853,-2.4343,0.0,0.0,0.0,0.0,0.0,0.0,-2.6618,-2.6243,-2.6404,-2.7273,-2.7447,-2.7675,-2.7983,-2.7688,-2.7755,-2.8197,-2.7897,-2.7961,-2.8365,-2.8671,-2.8739,-2.8635,-2.9403,-2.9095,-2.8028,-2.8396,-2.765,-2.6299,-2.5949,-2.5182,-2.42,-2.3824,-2.353,-2.3364,-2.3634,-2.3646,-2.3558,-2.3689,-2.3646,-2.3405,-2.2706,0.0,0.0,0.0,0.0,-2.3088,-2.3449,-2.3274,-2.3088,-2.3536,-2.3414,-2.315,-2.3298,-2.3593,-2.3857,-2.3564,-2.3909,-2.4082,-2.358,-2.3797,0.0,-2.3616,-2.4109,-2.4566,-2.4699,-2.5059,-2.5312,-2.5312,-2.5312,-2.5312,-2.5312,-2.5241,-2.5111,-2.4861,-2.4718,-2.4576,-2.4397,-2.391,-2.356,-2.3187,0.0,0.0,0.0,0.0,0.0,0.0,0.0,0.0,0.0,0.0,0.0,0.0,0.0,0.0,0.0,0.0,0.0,0.0,0.0,0.0,0.0,0.0,0.0,0.0,0.0,0.0,0.0,0.0,0.0,-2.4208,-2.3914,0.0,0.0,0.0,0.0,-2.5612,-2.5665,-2.6223,-2.7534,-2.7575,-2.7588,-2.7642,-2.8248,-2.8288,-2.7696,-2.8288,-2.856,-2.8587,-2.856,-2.856,-2.86,-2.917,-2.9428,-2.9496,-3.069,-3.0838,-3.0178,-2.9285,-2.7705,-2.5884,-2.6111,-2.5562,-2.4418,-2.4043,-2.3677,-2.3364,-2.3634,-2.3427,-2.311,-2.358,-2.3416,-2.3023,-2.2979,-2.2968,0.0,0.0,-2.3001,-2.3012,-2.3034,-2.3023,-2.3086,-2.3479,-2.3615,-2.3666,-2.4055,-2.449,-2.4562,-2.4009,-2.4383,-2.4802,-2.4945,0.0,-2.4638,-2.5119,-2.4807,-2.4699,-2.5204,-2.5288,-2.5312,-2.5312,-2.5312,-2.5312,-2.5312,-2.5182,-2.5123,-2.5123,-2.455,-2.4356,-2.4559,-2.4169,-2.3842,-2.3689,-2.3187,0.0,0.0,0.0,0.0,0.0,0.0,0.0,0.0,0.0,0.0,0.0,0.0,0.0,0.0,0.0,0.0,0.0,0.0,0.0,0.0,0.0,0.0,0.0,0.0,0.0,0.0,0.0,0.0,-2.4694,-2.5703,0.0,-2.5946,-2.6467,-2.6907,-2.7006,-2.7006,-2.7358,-2.8234,-2.7908,-2.7881,-2.8261,-2.8478,-2.8492,-2.8275,-2.8478,-2.8587,-2.8587,-2.8587,-2.879,-2.917,-2.9374,-2.9699,-3.012,-3.0934,-3.0931,-3.0369,-2.9969,-2.8913,-2.7567,-2.682,-2.6158,-2.5604,-2.5089,-2.4709,-2.4381,-2.3853,-2.3613,-2.3504,-2.3667,-2.3613,-2.3471,-2.3471,-2.3252,-2.3001,-2.3001,-2.3001,-2.3001,-2.3001,-2.3001,-2.3075,-2.3372,-2.3519,-2.3666,-2.397,-2.4418,-2.4718,-2.4502,-2.4838,-2.5004,-2.4728,-2.4857,-2.4975,-2.4831,-2.4927,-2.5095,-2.5288,-2.5312,-2.5312,-2.5312,-2.5312,-2.5241,-2.5182,-2.5111,-2.4909,-2.455,-2.4572,-2.4676,-2.4692,-2.4881,-2.49,-2.4661,-2.4192,-2.3253,0.0,0.0,0.0,0.0,0.0,0.0,0.0,0.0,0.0,0.0,0.0,0.0,0.0,0.0,0.0,0.0,0.0,0.0,0.0,0.0,0.0,0.0,0.0,0.0,0.0,-2.2852,-2.3879,-2.5426,-2.6501,-2.6905,-2.6374,-2.7113,-2.7628,-2.7718,-2.7895,-2.8261,-2.8858,-2.8722,-2.8804,-2.9197,-2.8994,-2.8885,-2.8885,-2.8885,-2.8885,-2.8885,-2.8885,-2.9089,-2.9482,-2.9686,-3.0011,-3.0446,-3.1246,-3.1213,-3.0645,-3.0403,-2.972,-2.8746,-2.7468,-2.6688,-2.623,-2.5704,-2.5317,-2.5004,-2.4051,-2.3733,-2.37,-2.3536,-2.3482,-2.3482,-2.3482,-2.3263,-2.3001,-2.3001,-2.3001,-2.3001,-2.3001,-2.3001,-2.3075,-2.3372,-2.3519,-2.3824,-2.4127,-2.4502,-2.479,-2.4861,-2.5111,-2.5204,-2.4843,-2.5071,-2.5192,-2.4831,-2.5083,-2.5312,-2.5312,-2.5312,-2.5312,-2.5312,-2.5241,-2.5182,-2.5111,-2.4909,-2.4622,-2.42,-2.4289,-2.4307,-2.4227,-2.4657,-2.4843,-2.4683,-2.3831,-2.273,-2.1251,0.0,0.0,0.0,0.0,0.0,0.0,0.0,0.0,0.0,0.0,0.0,0.0,0.0,0.0,0.0,0.0,0.0,0.0,0.0,0.0,0.0,0.0,0.0,-2.2932,-2.3411,-2.4267,-2.6466,-2.6203,-2.6002,-2.6286,-2.6361,-2.6725,-2.7691,-2.8261,-2.8845,-2.9414,-3.0025,-3.0351,-3.0351,-2.9767,-2.9442,-2.9442,-2.9442,-2.9442,-2.9442,-2.9442,-2.9455,-2.9496,-3.0106,-3.0391,-3.0473,-3.1626,-3.1809,-3.1106,-3.0493,-2.9897,-2.9241,-2.8154,-2.7121,-2.6276,-2.5893,-2.5406,-2.4915,-2.4051,-2.3722,-2.3624,-2.3154,-2.3001,-2.3001,-2.3001,-2.3001,-2.3001,-2.3001,-2.3001,-2.3001,-2.3001,-2.3001,-2.3075,-2.3519,-2.374,-2.4043,-2.4646,-2.4801,-2.4861,-2.5052,-2.5182,-2.5312,-2.5312,-2.5312,-2.5312,-2.5312,-2.5312,0.0,-2.5312,-2.5312,-2.5312,-2.5312,-2.5182,-2.5123,-2.5052,-2.455,-2.42,-2.42,-2.3615,-2.332,-2.332,-2.3569,-2.3755,-2.3678,-2.2112,-2.0658,-1.9307,0.0,0.0,0.0,0.0,0.0,0.0,0.0,0.0,0.0,0.0,0.0,0.0,0.0,0.0,0.0,0.0,0.0,0.0,0.0,0.0,0.0,-1.9252,-2.1039,-2.2901,-2.3808,-2.4881,-2.6531,-2.7169,-2.7535,-2.76,-2.7843,-2.8102,-2.8343,-2.8505,-2.8655,-2.8831,-2.8994,-2.9089,-2.9089,-2.8926,-2.8831,-2.8831,-2.8831,-2.8831,-2.8831,-2.8831,-2.9062,-2.9482,-2.9659,-2.9984,-3.0432,-3.0758,-3.0823,-3.0586,-2.9778,-2.9198,-2.8599,-2.8041,-2.7667,-2.732,-2.6155,-2.5083,-2.4062,-2.3777,-2.3504,-2.3176,-2.3045,-2.3001,-2.3001,-2.3001,-2.3001,-2.3001,-2.3001,-2.3001,-2.3001,-2.3001,-2.3001,-2.3075,-2.3298,-2.3519,-2.3824,-2.4273,-2.449,-2.4574,-2.4634,-2.4778,-2.4992,-2.5111,-2.5182,-2.5182,-2.5182,-2.5052,-2.4921,-2.4921,-2.4921,-2.4992,-2.5111,-2.4992,-2.4849,-2.4706,-2.4418,-2.4043,-2.3604,-2.3716,-2.3753,-2.3612,-2.4017,-2.4021,-2.3594,-2.1859,-2.0556,0.0,0.0,0.0,0.0,0.0,0.0,0.0,0.0,0.0,0.0,0.0,0.0,0.0,0.0,0.0,0.0,0.0,0.0,0.0,0.0,0.0,0.0,-2.0006,-2.182,-2.3309,-2.4335,-2.5494,-2.6896,-2.7591,-2.8,-2.8079,-2.8327,-2.8509,-2.8587,-2.8817,-2.8967,-2.8967,-2.9211,-2.936,-2.936,-2.9102,-2.8967,-2.8967,-2.8967,-2.8967,-2.8967,-2.8967,-2.9143,-2.9482,-2.9482,-2.9672,-3.0038,-3.0296,-3.0405,-3.0336,-2.9531,-2.9022,-2.8656,0.0,0.0,0.0,0.0,-2.4836,-2.4017,-2.3809,-2.3547,-2.3274,-2.3067,-2.3001,-2.3001,-2.3001,-2.3001,-2.3001,-2.3001,-2.3001,-2.3001,-2.3001,-2.3001,-2.3001,-2.315,-2.3298,-2.353,-2.3897,-2.4043,-2.4116,-2.42,-2.4345,0.0,-2.455,-2.4838,-2.4921,-2.4838,-2.4778,-2.4646,-2.4574,-2.4574,-2.4634,-2.4849,-2.4706,-2.449,-2.4345,-2.4116,0.0,0.0,0.0,-2.3503,-2.3427,-2.348,0.0,0.0,0.0,0.0,0.0,0.0,0.0,0.0,-1.7811,-1.7757,0.0,0.0,0.0,0.0,0.0,0.0,0.0,0.0,0.0,0.0,0.0,0.0,0.0,0.0,0.0,0.0,-2.0839,-2.2692,-2.3765,-2.486,-2.6044,-2.7311,-2.7656,-2.7855,-2.8079,-2.8249,-2.8365,-2.8587,-2.9089,-2.9374,-2.9374,-2.9903,0.0,0.0,0.0,-2.9374,-2.9374,-2.9374,-2.9374,-2.9374,-2.9374,-2.9374,-2.9374,-2.9374,-2.9374,-2.9401,-2.9957,-3.0133,-3.0133,-2.9333,-2.8969,-2.8686,-2.7594,-2.6486,-2.5512,-2.4915,-2.4591,-2.4257,-2.3798,0.0,0.0,-2.3143,-2.3001,-2.3001,-2.3001,-2.3001,-2.3001,-2.3001,-2.3001,-2.3001,-2.3001,-2.3001,-2.3001,-2.3001,-2.315,-2.3298,-2.3519,-2.3593,-2.3604,-2.3824,-2.3824,-2.3824,-2.3824,-2.4345,-2.4646,-2.449,-2.4418,-2.4345,-2.4127,-2.4127,-2.42,-2.4418,-2.4273,0.0,-2.4127,-2.3751,-2.3446,-2.3298,-2.3075,-2.3001,-2.2927,-2.2327,-2.1711,-2.1088,-2.0216,-1.9283,-1.8353,-1.8031,-1.7927,-1.7902,-1.7535,-1.7649,0.0,0.0,0.0,0.0,0.0,0.0,0.0,0.0,0.0,0.0,0.0,0.0,0.0,0.0,0.0,-1.8485,-2.0348,-2.2121,-2.329,-2.4778,-2.6168,-2.7339,-2.7656,-2.7855,-2.8079,-2.8249,-2.8365,-2.8587,-2.8695,-2.8763,-2.8763,-2.8872,-2.894,-2.894,-2.8817,-2.8763,-2.8763,-2.8763,-2.8763,-2.8763,-2.8763,0.0,-2.8763,-2.8763,-2.8763,-2.8763,-2.8741,-2.8716,-2.865,-2.8252,-2.7498,-2.6536,-2.6649,-2.5896,-2.463,-2.4347,-2.3863,-2.3274,-2.3176,-2.3143,-2.3121,-2.3034,-2.3001,-2.3001,-2.3001,-2.3001,0.0,-2.3001,-2.3001,-2.3001,-2.3001,-2.3001,-2.3001,-2.3001,-2.3001,-2.315,-2.3298,-2.3372,-2.3372,-2.3372,-2.353,-2.3604,-2.3446,-2.3751,-2.4043,-2.4043,-2.3897,-2.3751,-2.3751,-2.3751,-2.3824,-2.397,-2.3824,-2.3751,-2.3751,-2.3519,-2.3298,-2.3075,-2.3001,-2.2777,-2.2327,-2.1711,-2.1001,-2.0138,-1.9381,-1.8683,-1.8121,-1.7716,-1.773,-1.8021,-1.7844,-1.7953,0.0,0.0,0.0,0.0,0.0,0.0,0.0,0.0,0.0,0.0,0.0,-1.7461,-1.7968,0.0,-1.8454,-1.8682,-2.0506,-2.2104,-2.2817,-2.4743,-2.6427,-2.7352,-2.7656,-2.7855,-2.7934,-2.817,-2.8352,-2.8444,-2.8522,-2.8587,-2.8587,-2.8587,-2.8587,-2.8587,-2.8587,-2.8587,-2.8587,-2.8587,-2.8587,-2.8587,-2.8587,-2.8587,-2.8587,-2.8509,-2.8444,-2.8444,-2.8249,-2.8183,-2.8183,-2.7908,-2.7242,-2.627,-2.6177,-2.5207,-2.3962,-2.3674,-2.3295,-2.3001,-2.3001,-2.3001,-2.3001,-2.3001,-2.3001,-2.3001,-2.3001,-2.3001,-2.3001,-2.3001,-2.3001,-2.3001,-2.3001,-2.3001,-2.3001,-2.3001,-2.3001,-2.3001,-2.315,-2.315,-2.315,-2.315,-2.3224,-2.3298,-2.315,-2.3298,-2.3446,-2.3593,-2.3519,-2.3446,-2.3298,-2.3298,-2.3372,-2.3593,-2.3519,-2.3446,-2.3446,-2.3298,-2.3075,-2.3001,-2.3001,-2.2703,-2.2101,-2.1395,-2.0682,-1.9894,-1.8904,-1.8201,-1.787,-1.7573,-1.7692,-1.7953,-1.804,-1.8321,0.0,0.0,0.0,0.0,0.0,0.0,0.0,0.0,-1.4692,-1.5485,-1.6534,-1.7595,-1.8382,-1.8516,-1.864,-1.9013,-2.073,-2.2133,-2.2421,-2.4541,-2.6337,-2.7065,-2.7525,-2.7789,-2.7776,-2.8039,-2.8235,-2.8235,-2.8392,-2.8522,-2.8522,-2.8522,-2.8522,-2.8522,-2.8522,-2.8522,-2.8522,-2.8587,-2.8587,-2.8587,-2.8587,-2.8522,-2.8522,-2.8379,-2.8235,-2.8235,-2.8131,-2.8013,-2.7947,-2.7723,-2.7175,-2.6496,-2.5709,-2.4647,-2.353,-2.3224,-2.3001,-2.3001,-2.3001,-2.3001,-2.3001,-2.3001,-2.3001,-2.3001,-2.3001,-2.3001,-2.3001,-2.3001,-2.3001,-2.3001,-2.3001,-2.3001,-2.3001,-2.3001,-2.3001,-2.3001,-2.3001,-2.3001,-2.3001,-2.3001,-2.3001,-2.3001,-2.3001,-2.3001,-2.3075,-2.3224,-2.3224,-2.315,-2.3001,-2.3001,-2.3075,-2.3224,-2.3224,-2.3224,-2.3224,-2.3075,-2.3001,-2.3001,-2.3001,-2.2617,-2.1873,-2.1155,-2.0372,-1.959,-1.8505,-1.787,-1.7619,-1.758,-1.7693,-1.7779,-1.8136,-1.8486,-0.9612,-1.0367,-1.0702,-1.053,-1.1045,-1.1848,0.0,0.0,-1.5557,-1.6342,-1.7581,-1.868,-1.8971,-1.8992,-1.9013,-1.9065,-2.0464,-2.1684,-2.235,-2.3816,-2.5156,-2.5879,-2.6909,-2.759,-2.7776,-2.7842,-2.7921,-2.8079,-2.8145,-2.8197,-2.83,-2.8197,-2.8197,-2.8352,-2.8352,-2.8352,-2.8352,-2.8509,-2.8587,-2.8587,-2.843,-2.8352,-2.8352,-2.8197,-2.8145,-2.8145,-2.7934,-2.7723,-2.7536,-2.7053,-2.6496,-2.5931,-2.5134,-2.4299,-2.3593,-2.3372,-2.315,-2.3001,-2.3001,-2.3001,-2.3001,-2.3001,-2.3001,-2.3001,-2.3001,-2.3001,-2.3001,-2.3001,-2.3001,-2.3001,-2.3001,-2.3001,-2.3001,-2.3001,-2.3001,-2.3001,-2.3001,-2.3001,-2.3001,-2.3001,-2.3001,-2.3001,-2.3001,-2.3001,-2.3001,-2.3001,-2.3001,-2.3001,-2.3001,-2.3001,-2.3001,-2.3001,-2.3001,-2.3001,-2.3001,-2.3001,-2.3001,-2.3001,-2.3001,-2.2381,-2.1001,-2.0837,-1.9982,-1.8273,-1.8031,-1.7708,-1.7139,-1.7497,-1.7693,-1.7779,-1.8136,-1.8486,-0.8628,-0.9625,-1.0279,0.0,-1.1043,-1.1665,-1.2446,-1.3388,-1.4537,-1.5973,-1.7079,-1.7939,-1.841,-1.8823,-1.9114,-1.9286,-2.0359,-2.1509,-2.2277,-2.3592,-2.4587,-2.5091,-2.6193,-2.6948,-2.7157,-2.7525,-2.7855,-2.7934,-2.8,-2.8145,-2.8197,-2.8131,-2.8145,-2.8197,-2.8183,-2.8183,-2.8183,-2.8276,-2.8341,-2.8341,-2.8197,-2.7996,-2.7648,-2.7482,-2.718,-2.6735,-2.6658,-2.6791,-2.7027,-2.6764,-2.6557,-2.6289,-2.5487,-2.4779,-2.3998,-2.3508,-2.315,-2.3001,-2.3001,-2.3001,-2.3001,-2.3001,-2.3001,-2.3001,-2.3001,-2.3001,-2.3001,-2.3001,-2.3001,-2.3001,-2.3001,-2.3001,-2.3001,-2.3001,-2.3001,-2.3001,-2.3001,-2.3001,-2.3001,-2.3001,-2.3001,-2.3001,-2.3001,-2.3001,-2.3001,-2.3001,-2.3001,-2.3001,-2.3001,-2.3001,-2.3001,-2.3001,-2.3001,-2.3001,-2.3001,-2.3001,-2.2927,-2.2852,-2.2467,-2.1766,-2.0692,-2.006,-1.9204,-1.804,-1.7627,-1.7383,-1.7139,-1.754,-1.7714,-1.7787,-1.8343,-1.8684,-0.7818,0.0,0.0,-1.0424,-1.0954,-1.1575,-1.226,-1.2996,-1.3947,-1.5618,-1.6547,-1.7311,-1.8122,-1.8715,-1.9093,-1.9254,-2.0314,-2.1313,-2.2002,-2.3207,-2.4096,-2.4473,-2.5327,-2.6051,-2.6425,-2.7223,-2.7723,-2.7723,-2.7868,-2.8066,-2.8262,-2.8079,-2.8066,-2.8262,-2.8131,-2.8013,-2.8013,-2.8079,-2.7999,-2.7826,-2.7774,-2.7455,-2.6857,-2.668,-2.6343,-2.5824,-2.5824,-2.6059,-2.6452,-2.6608,-2.6515,-2.6226,-2.5787,-2.4992,-2.4143,-2.3508,-2.315,-2.3001,-2.3001,-2.3001,-2.3001,-2.3001,-2.3001,-2.3001,-2.3001,-2.3001,-2.3001,-2.3001,-2.3001,-2.3001,-2.3001,-2.3001,-2.3001,-2.3001,-2.3001,-2.3001,-2.3001,-2.3001,-2.3001,-2.3001,-2.2927,-2.2927,-2.2927,-2.2852,-2.2852,-2.2852,-2.2852,-2.2852,-2.3001,-2.3001,-2.3001,-2.3001,-2.2927,-2.2927,-2.2927,-2.2692,-2.2542,-2.2392,-2.1776,-2.1068,-2.0148,-1.9353,-1.8647,-1.7789,-1.7302,-1.7057,-1.6976,-1.7515,-1.7771,-1.7787,-1.8494,-1.8827,0.0,0.0,-0.9176,-0.9693,-1.0684,-1.165,-1.2183,-1.3344,-1.4577,-1.579,-1.6567,-1.7472,-1.8586,-1.8798,-1.8865,-1.9054,-2.0215,-2.1198,-2.1388,-2.2592,-2.3548,-2.3857,-2.4408,-2.5026,-2.5735,-2.687,-2.7523,-2.7523,-2.7523,-2.7908,-2.8739,-2.7973,-2.7908,-2.8739,-2.8157,-2.7776,-2.7776,-2.8,-2.7786,-2.7187,-2.7008,-2.6641,-2.6149,-2.5913,-2.5837,-2.5824,-2.5824,-2.5837,-2.589,-2.6452,-2.6074,-2.5068,-2.5432,-2.4791,-2.3593,-2.3372,-2.315,-2.3001,-2.3001,-2.3001,-2.3001,-2.3001,-2.3001,-2.3001,-2.3001,-2.3001,-2.3001,-2.3001,-2.3001,-2.3001,-2.3001,-2.3001,-2.3001,-2.3001,-2.3001,-2.3001,-2.3001,-2.3001,-2.3001,-2.3001,-2.2852,-2.2703,-2.2703,-2.2553,-2.2402,-2.2402,-2.2402,-2.2553,-2.2927,-2.3001,-2.3001,-2.3001,-2.2852,-2.2703,-2.2703,-2.2004,-2.1538,-2.1538,-2.0924,-2.007,-1.9116,-1.9036,-1.8407,-1.7131,-1.7139,-1.6976,-1.6738,-1.7429,-1.7771,-1.7787,-1.8494,-1.8827,-0.6692,0.0,-0.7931,-0.9148,-0.9895,-1.0639,-1.1532,-1.2231,-1.2976,-1.4058,-1.524,-1.6233,-1.6852,-1.7939,-1.9027,-1.9723,-2.0516,-2.1439,-2.2384,-2.3281,-2.3761,-2.3573,-2.44,-2.5011,-2.5065,-2.5879,-2.6713,-2.7471,-2.755,-2.7581,-2.7389,-2.7872,-2.7759,-2.6831,-2.7006,-2.688,-2.645,-2.6527,-2.6498,-2.6288,-2.5844,-2.5555,-2.5358,-2.4857,-2.4687,-2.4687,-2.4687,-2.4909,-2.5262,-2.5471,-2.5333,-2.4939,-2.4687,-2.3921,-2.2883,-2.2437,-2.2024,-2.1725,-2.235,-2.2335,-2.2062,-2.1919,-2.1847,-2.1847,-2.1682,-2.1897,-2.2155,-2.2155,-2.2381,-2.2628,-2.2628,-2.2628,-2.2628,-2.2628,-2.2628,-2.2628,-2.2628,-2.2628,-2.2628,-2.2628,-2.2553,-2.2478,-2.2478,-2.2478,-2.2402,-2.2402,-2.2402,-2.2478,-2.2553,-2.2628,-2.2628,-2.2628,-2.2553,-2.2317,-2.1928,-2.169,-2.1231,-2.044,-1.9825,-1.9195,-1.8567,-1.8006,-1.7529,-1.7139,-1.6894,-1.6932,-1.7096,-1.7548,-1.789,-1.8128,-1.8605,-1.8827,-0.6389,-0.6682,-0.7187,-0.89,-0.9527,-1.003,-1.1138,-1.1598,-1.2064,-1.3114,-1.4362,-1.5498,-1.6058,-1.75,-1.8961,-1.9924,-2.0579,-2.1416,-2.2555,-2.3268,-2.3613,-2.3441,-2.4202,-2.4733,-2.461,-2.5227,-2.6028,-2.6844,-2.7203,-2.7193,-2.6728,-2.725,-2.7135,-2.6171,-2.6294,-2.6184,-2.5824,-2.5824,-2.572,-2.5511,-2.4936,-2.4661,-2.4661,-2.4282,-2.4112,-2.4112,-2.4112,-2.4321,-2.4674,-2.481,-2.4722,-2.442,-2.4124,-2.3374,-2.2341,-2.1835,-2.1296,-2.0818,-2.1582,-2.162,-2.1361,-2.122,-2.122,-2.1182,-2.1261,-2.1445,-2.1722,-2.1903,-2.2168,-2.2402,-2.2402,-2.2402,-2.2402,-2.2402,-2.2402,-2.2402,-2.2402,-2.2402,-2.2402,-2.2402,-2.2327,-2.2327,-2.2327,-2.2252,-2.2176,-2.2176,-2.2176,-2.2252,-2.2402,-2.2241,-2.209,-2.209,-2.1787,-2.1471,-2.1088,-2.0692,-2.0216,-1.9511,-1.8807,-1.8256,-1.7861,-1.7375,-1.7049,-1.6976,-1.6812,-1.6913,-1.7278,-1.7612,-1.7954,-1.8311,-1.8661,-1.8827,-0.6331,-0.6489,-0.6806,-0.8678,-0.9379,-0.9898,-1.0949,-1.1443,-1.1927,-1.293,-1.4077,-1.5222,0.0,0.0,-1.8694,-1.9649,-2.0409,-2.1101,-2.2051,-2.2714,-2.3175,-2.3343,-2.3837,-2.4277,-2.4423,-2.4983,-2.5461,-2.5694,-2.6319,-2.6701,-2.6775,-2.6179,-2.6105,-2.6707,-2.6078,-2.5733,-2.5733,-2.5733,-2.5458,-2.4922,-2.4374,-2.4054,-2.4054,-2.4054,-2.4054,-2.4054,-2.4054,-2.4054,-2.4093,-2.4494,-2.4192,-2.3532,-2.3718,-2.3024,-2.1905,-2.1699,-2.1052,-2.027,-2.0764,-2.0913,-2.0913,-2.0913,-2.0913,-2.0998,-2.1477,-2.1637,-2.1754,-2.2232,-2.236,-2.2371,-2.2392,-2.2381,-2.2371,-2.2392,-2.2402,-2.2402,-2.2402,-2.2402,-2.2402,-2.2402,-2.2252,-2.2101,-2.2101,-2.1959,-2.1807,-2.1731,-2.1731,-2.1883,-2.2327,-2.1852,-2.1461,-2.1461,-2.0702,-2.0167,-2.0089,-1.9213,-1.8656,-1.8656,-1.787,-1.731,-1.7057,-1.7057,-1.6976,-1.673,-1.673,-1.6921,-1.731,-1.762,-1.7962,-1.8335,-1.8669,-1.8827,-0.5457,-0.5544,-0.5807,-0.7024,-0.795,-0.8727,-0.943,-1.0301,-1.1159,-1.1636,-1.3243,-1.4771,0.0,-1.7179,-1.9028,-2.0009,-2.0686,-2.1449,-2.2567,-2.3183,-2.3418,-2.3188,-2.3701,-2.3952,-2.3704,-2.4567,-2.5104,-2.4885,-2.5851,-2.6476,-2.6397,-2.6428,-2.6062,-2.5351,-2.5222,-2.5002,-2.4557,-2.4543,-2.4419,-2.417,-2.4014,-2.3878,-2.3747,-2.3747,-2.3747,-2.3747,-2.3747,-2.3747,-2.376,-2.3842,-2.3775,-2.3509,-2.2775,-2.2103,-2.1473,-2.0588,-1.9875,-1.9396,-1.951,-1.9754,-1.9956,-1.9754,-1.9754,-1.9781,-2.0174,-2.0479,-2.0834,-2.1303,-2.1438,-2.1522,-2.1866,-2.1699,-2.1522,-2.1876,-2.1959,-2.1959,-2.1959,-2.1959,-2.1959,-2.1959,-2.1883,-2.1883,-2.1883,-2.1807,-2.1645,-2.1175,-2.1098,-2.1339,-2.1873,-2.1405,-2.1011,-2.0769,-2.0148,-1.9529,-1.8816,-1.8576,-1.8184,-1.7538,-1.7302,-1.7057,-1.6812,-1.6812,-1.6738,-1.673,-1.673,-1.7032,-1.7644,-1.7731,-1.8089,-1.8692,-1.8788,-1.8827,-0.4973,-0.5097,-0.533,-0.6434,-0.7357,-0.8195,-0.8954,-0.9863,-1.0762,-1.1437,-1.3045,0.0,-1.5247,-1.7461,-1.9425,-2.0151,-2.107,-2.1881,-2.2678,-2.3108,-2.3257,-2.3055,-2.3811,-2.4243,-2.3739,-2.4997,-2.5615,-2.5131,-2.5878,-2.6199,-2.595,-2.5739,-2.5361,-2.4664,-2.4478,-2.4203,-2.3865,-2.3878,-2.3819,-2.376,-2.376,-2.37,-2.3628,-2.3628,-2.3628,-2.3628,-2.3628,-2.3628,-2.3628,-2.3509,-2.3256,-2.2819,-2.2173,-2.1407,-2.0636,-2.0033,-1.9536,-1.9075,-1.9075,-1.9208,-1.9341,-1.9274,-1.9343,-1.9604,-1.9913,-2.0369,-2.0824,-2.129,-2.1269,-2.1217,-2.1683,-2.1455,-2.1238,-2.1694,-2.1807,-2.1807,-2.1807,-2.1807,-2.1807,-2.1807,-2.1807,-2.1807,-2.1807,-2.1807,-2.1568,-2.1021,-2.0779,-2.0779,-2.0857,-2.0391,-2.0001,-1.9756,-1.9125,-1.8496,-1.7942,-1.7781,-1.7619,-1.7139,-1.6976,-1.6894,-1.6738,-1.673,-1.673,-1.673,-1.6889,-1.7239,-1.7771,-1.7922,-1.8287,-1.8827,-1.8827,-1.874,-0.4777,-0.4918,-0.5167,-0.6213,-0.7028,-0.7827,-0.8837,-0.9633,-1.0578,-1.1877,0.0,-1.4396,-1.5663,-1.7852,-1.9619,-2.0151,0.0,-2.2174,-2.2629,-2.2739,-2.2848,-2.2848,-2.3978,-2.4549,-2.4112,-2.5625,-2.6372,-2.5809,-2.6036,-2.6008,-2.5591,-2.4951,-2.4567,-2.4509,-2.3897,-2.3628,-2.3628,-2.3628,-2.3569,-2.3569,-2.3569,-2.3569,-2.3497,-2.3497,-2.3497,-2.3497,-2.3497,-2.3497,-2.3497,-2.339,-2.2825,-2.1981,-2.1778,-2.093,-1.9802,-1.9734,-1.9484,-1.9075,-1.9075,-1.9106,-1.9158,-1.9158,-1.9505,-1.9862,-2.0358,-2.0793,-2.1207,-2.1673,-2.1476,-2.1217,-2.1683,-2.1455,-2.1238,-2.1694,-2.1807,-2.1807,-2.1807,-2.1807,-2.1807,-2.1807,-2.1807,-2.1797,-2.1721,-2.1655,-2.1415,-2.0789,-2.0469,-2.007,-1.9441,-1.9063,-1.8834,-1.8656,-1.8014,-1.7538,-1.731,-1.7139,-1.7057,-1.7057,-1.6812,-1.673,-1.673,-1.673,-1.673,-1.673,-1.7096,-1.7445,-1.7771,-1.8039,-1.8387,-1.8735,-1.8735,-1.8545,-0.4713,-0.4918,-0.4958,-0.5315,-0.6157,-0.7066,-0.7782,-0.8725,0.0,0.0,-1.3314,-1.4413,-1.5739,-1.7385,-1.8914,-1.9747,-2.0467,-2.1305,-2.2296,-2.2482,-2.2543,-2.2739,-2.3501,-2.3975,-2.3872,-2.5172,-2.5781,-2.5135,-2.5574,-2.6093,-2.6525,-2.5632,-2.4908,-2.4509,-2.3897,-2.3628,-2.3628,-2.3628,-2.3509,-2.3463,-2.3463,-2.333,-2.3198,-2.3198,-2.3198,-2.3198,-2.3198,-2.3198,-2.3198,-2.3138,-2.2739,-2.2059,-2.1441,-2.0747,-1.9965,-1.9456,-1.9137,-1.9075,-1.9075,-1.9323,-1.9713,-1.9713,-1.9696,-1.9913,-2.0741,-2.1052,-2.1207,-2.1673,-2.1476,-2.1217,-2.1683,-2.1455,-2.1238,-2.1694,-2.1807,-2.1807,-2.1807,-2.1807,-2.1807,-2.1807,-2.1807,-2.1645,-2.1098,-2.1098,-2.0634,-1.9469,-1.9143,-1.8736,-1.8095,-1.8256,-1.8336,-1.8158,-1.7529,-1.7139,-1.682,-1.6812,-1.6738,-1.6738,-1.6738,-1.673,-1.673,-1.673,-1.673,-1.673,-1.7096,-1.736,-1.743,-1.778,-1.8032,-1.8179,-1.8179,-1.7995,-0.4534,-0.4793,-0.4846,-0.5192,-0.5883,-0.6763,-0.7501,0.0,0.0,0.0,-1.3494,-1.4438,-1.6312,-1.8103,0.0,-1.9747,-2.1005,-2.1981,-2.2258,-2.2543,-2.2775,-2.2909,-2.3884,-2.4403,-2.4096,-2.5064,-2.5479,-2.4839,-2.5099,-2.5429,-2.5749,-2.4986,-2.4273,-2.3774,-2.3228,-2.2943,-2.2946,-2.2655,-2.2457,-2.24,-2.24,-2.2342,-2.2284,-2.2284,-2.2435,-2.2711,-2.2711,-2.2711,-2.2664,-2.2639,-2.2018,-2.1117,-2.0703,-2.0161,-1.9518,-1.9198,-1.9075,-1.9075,-1.9075,-1.9287,-1.9505,-1.9754,-2.0079,-2.0545,-2.0979,-2.128,-2.1518,-2.1745,-2.1476,-2.1217,-2.1683,-2.1455,-2.1238,-2.1694,-2.1807,-2.1807,-2.1807,-2.1807,-2.1731,-2.1415,-2.1146,-2.0843,-2.0225,-1.9976,-1.9591,-1.8677,-1.8453,-1.8095,-1.7456,-1.7456,-1.7448,-1.7529,-1.7294,-1.6976,-1.673,-1.673,-1.673,-1.673,-1.673,-1.673,-1.673,-1.6566,-1.6558,-1.6558,-1.7,-1.7179,-1.7247,-1.7779,-1.8018,-1.8087,-1.8087,-1.7804,-0.4366,-0.4632,-0.4777,-0.5229,-0.5749,-0.64,-0.7447,-0.8345,0.0,0.0,-1.3579,-1.4488,-1.6624,0.0,-1.9899,0.0,-2.1316,-2.2528,-2.237,-2.2787,-2.3078,-2.3185,-2.4231,-2.4722,-2.4259,-2.4906,-2.5106,-2.4474,-2.4418,-2.4496,-2.4771,-2.4234,-2.373,-2.3279,-2.2651,-2.2308,-2.2306,-2.1763,-2.1493,-2.1493,-2.1493,-2.1493,-2.1493,-2.1493,-2.1732,-2.2133,-2.2133,-2.2133,-2.2101,-2.1849,-2.1173,-2.0129,-1.9891,-1.9415,-1.8785,-1.8785,-1.8837,-1.892,-1.892,-1.8992,-1.9137,-1.9499,-2.0224,-2.0979,-2.1083,-2.1445,-2.1807,-2.1807,-2.1538,-2.1342,-2.1714,-2.1538,-2.1352,-2.1714,-2.1807,-2.1731,-2.1645,-2.1568,-2.1415,-2.0779,-2.0358,-1.9847,-1.9231,-1.8833,-1.8464,-1.7802,-1.7656,-1.7368,-1.6903,-1.6734,-1.67,-1.6863,-1.7009,-1.6894,-1.6648,-1.6648,-1.6648,-1.6574,-1.6574,-1.6574,-1.6574,-1.6402,-1.635,-1.6428,-1.6852,-1.711,-1.709,-1.7697,-1.7994,-1.7893,-1.7893,-1.7538,-0.3931,-0.4388,-0.4705,-0.5051,-0.5153,-0.5679,-0.7316,0.0,0.0,-1.2364,-1.3615,-1.4629,-1.6084,0.0,0.0,0.0,0.0,0.0,-2.2665,-2.2909,-2.3078,-2.3518,-2.3791,-2.3932,-2.3823,-2.4173,-2.4184,-2.3626,-2.3302,-2.3569,-2.4728,-2.4234,-2.3895,-2.3835,-2.2831,-2.2278,-2.2289,-2.1797,-2.1493,-2.1493,-2.1493,-2.1493,-2.1493,-2.1493,-2.1518,-2.1556,-2.1556,-2.1556,-2.1512,-2.0945,-2.0287,-1.9629,-1.9066,-1.8441,-1.7854,-1.7854,-1.8102,-1.8444,-1.8444,-1.8713,-1.9075,-1.9116,-1.9748,-2.0565,-2.099,-2.1445,-2.1807,-2.1807,-2.1776,-2.1756,-2.1797,-2.1776,-2.1756,-2.1797,-2.1807,-2.1645,-2.1098,-2.1021,-2.0779,-2.0138,-1.9572,-1.8984,-1.8362,-1.7769,-1.7229,-1.6556,-1.6292,-1.6171,-1.6094,-1.6212,-1.6254,-1.6254,-1.654,-1.6648,-1.6476,-1.6394,-1.6319,-1.617,-1.617,-1.617,-1.617,-1.617,-1.6232,-1.6545,-1.6888,-1.7136,-1.7176,-1.7542,-1.7621,-1.7326,-1.7326,-1.7073,-0.3753,-0.4278,-0.4595,-0.4989,-0.5418,-0.6009,-0.7251,0.0,-0.9753,-1.2134,-1.3228,-1.4422,-1.6307,-1.7724,0.0,0.0,0.0,0.0,-2.2836,-2.3378,-2.3696,-2.3519,-2.3832,-2.3797,-2.3117,-2.3303,-2.3322,-2.2983,-2.2864,-2.3088,-2.3627,-2.3141,-2.3007,-2.3336,-2.1987,-2.142,-2.1772,-2.0907,-2.0476,-2.0476,-2.0476,-2.0476,-2.0476,-2.0476,-2.0665,-2.0991,-2.0991,-2.0991,-2.0961,-2.0292,-1.9657,-1.9068,-1.8376,-1.8123,-1.8123,-1.8123,-1.8402,-1.8754,-1.8475,-1.8495,-1.8609,-1.835,-1.8692,-1.9334,-2.0079,-2.0431,-2.0638,-2.0897,-2.0979,-2.1041,-2.1321,-2.16,-2.1662,-2.1104,-2.0964,-2.0712,-2.0217,-1.958,-1.8944,-1.8257,-1.7715,-1.7161,-1.6512,-1.6277,-1.6113,-1.5681,-1.5814,-1.5858,-1.549,-1.5864,-1.6048,-1.5839,-1.6362,-1.6648,-1.6394,-1.6394,-1.6319,-1.6087,-1.6087,-1.6087,-1.6087,-1.5807,-1.5869,-1.6312,-1.6376,-1.661,-1.7039,-1.7272,-1.7426,-1.7326,-1.6857,-1.6338,-0.3773,-0.4244,-0.4454,-0.4866,-0.5481,-0.6334,0.0,-0.8656,-1.018,-1.2134,-1.329,-1.4484,-1.6279,-1.791,-1.9208,0.0,0.0,0.0,-2.3031,-2.3781,-2.4204,-2.4032,-2.4069,-2.3777,-2.3013,-2.2748,-2.253,-2.2281,-2.2357,-2.2406,-2.2337,-2.1908,-2.2048,-2.2946,-2.1564,-2.0993,-2.1402,-2.0348,-1.9798,-1.9798,-1.9798,-1.9798,-1.9798,-1.9798,-2.0024,-2.0401,-2.0401,-2.0401,-2.0398,-1.9641,-1.9126,-1.8623,-1.7899,-1.7853,-1.8121,-1.8058,-1.8346,-1.873,-1.8222,-1.8058,-1.7986,-1.7544,-1.7513,-1.7801,-1.8582,-1.9266,-1.9761,-2.0,-2.0175,-2.0247,-2.0286,-2.0498,-2.0548,-1.9554,-1.9354,-1.9222,-1.8695,-1.7968,-1.7261,-1.661,-1.5996,-1.5399,-1.4985,-1.4824,-1.4744,-1.471,-1.4992,-1.5134,-1.5004,-1.5431,-1.5736,-1.5599,-1.6126,-1.6409,-1.6229,-1.6229,-1.6072,-1.5922,-1.5922,-1.5876,-1.5778,-1.5382,-1.5435,-1.5915,-1.5948,-1.6228,-1.6857,-1.7172,-1.7232,-1.6951,-1.6473,-1.5683,-0.4139,-0.4185,-0.4364,-0.4558,-0.5282,-0.626,-0.7608,-0.896,-1.0557,-1.2389,-1.3846,-1.4985,-1.5708,-1.7853,-1.9549,0.0,0.0,0.0,-2.3358,-2.3936,-2.4593,-2.5369,-2.435,-2.3658,-2.3849,-2.2721,-2.1839,-2.1462,-2.1552,-2.1442,-2.1046,-2.0571,-2.1109,-2.2873,-2.1908,-2.1369,-2.1382,-2.0346,-1.9798,-1.9798,-1.9798,-1.9798,-1.9798,-1.9798,-1.9798,-1.9811,-1.9811,-1.9811,-1.9745,-1.9101,-1.8692,-1.8451,-1.7767,-1.7543,-1.7481,-1.7304,-1.7577,-1.8009,-1.7456,-1.7242,-1.7161,-1.6759,-1.6276,-1.6014,-1.6507,-1.8009,-1.9492,-1.9353,-1.9586,-1.9675,-1.8589,-1.8341,-1.8094,-1.6972,-1.6971,-1.7045,-1.6392,-1.6237,-1.6026,-1.5454,-1.4609,-1.3994,-1.4002,-1.3514,-1.321,-1.3546,-1.3607,-1.3843,-1.4492,-1.4874,-1.5217,-1.5545,-1.5889,-1.5997,-1.5733,-1.5733,-1.5658,-1.5431,-1.5431,-1.5284,-1.4962,-1.494,-1.5094,-1.5423,-1.5752,-1.6228,-1.6857,-1.7172,-1.6951,-1.619,-1.619,-1.5026,-0.5612,-0.5542,-0.5491,-0.5947,-0.685,-0.7877,-0.865,-1.0059,-1.1469,-1.2389,-1.3785,-1.5263,-1.6445,-1.8134,-1.9721,-2.0892,0.0,0.0,0.0,-2.407,-2.419,-2.4173,-2.3298,-2.2462,-2.2091,-2.1791,-2.1389,-2.0955,-2.1012,-2.1038,-2.1003,-2.0878,-2.1024,-2.1598,-2.0298,-1.9807,-2.0161,-1.921,-1.8706,-1.8706,-1.8706,-1.8706,-1.8706,-1.8706,-1.892,-1.9271,-1.9271,-1.9269,-1.9198,-1.8604,-1.8002,-1.7407,-1.6774,-1.6666,-1.6921,-1.7111,-1.7503,-1.791,-1.7725,-1.7493,-1.7161,-1.6698,-1.6266,-1.5886,-1.5958,-1.6709,-1.7579,-1.7819,-1.8223,-1.8312,-1.7205,-1.7389,-1.751,-1.606,-1.5801,-1.567,-1.5129,-1.4428,-1.3878,-1.3684,-1.3302,-1.3022,-1.3022,-1.3255,-1.3462,-1.3422,-1.3757,-1.4043,-1.3866,-1.4349,-1.4647,-1.4528,-1.4931,-1.542,-1.5718,-1.5733,-1.5575,-1.5431,-1.5218,-1.4969,-1.4867,-1.4516,-1.4648,-1.5416,-1.4802,-1.5077,-1.6106,-1.5749,-1.5045,-1.4108,-1.4007,-1.3094,0.0,-0.6604,-0.6854,-0.7177,-0.814,-0.9099,-0.9609,-1.0766,-1.2018,-1.2943,-1.4197,-1.5548,-1.6862,-1.8516,-1.9981,-2.1021,-2.2334,0.0,-2.3841,-2.3985,-2.3918,-2.346,-2.3144,-2.2509,-2.1445,-2.1405,-2.1095,-2.0371,-2.0368,-2.0376,-2.0291,-2.0277,-2.0277,-2.0277,-1.9679,-1.9441,-1.9605,-1.8819,-1.8333,-1.8204,-1.8204,-1.8317,-1.8518,-1.8518,-1.8807,-1.9321,-1.9321,-1.9204,0.0,-1.8464,-1.7812,-1.7109,-1.6611,-1.6558,-1.6778,-1.6944,-1.7312,-1.778,-1.7511,-1.7382,-1.7193,-1.6576,-1.6078,-1.573,-1.5604,-1.5782,-1.6143,-1.6572,-1.6747,-1.6457,-1.5405,-1.5548,-1.5623,-1.4269,-1.3958,-1.3891,-1.3606,-1.3016,-1.2569,-1.2569,-1.2398,-1.2251,-1.2251,-1.2598,-1.2893,-1.3004,-1.3319,-1.3637,-1.3653,-1.4033,-1.4253,-1.4172,-1.4633,-1.5021,-1.5375,-1.5508,-1.5499,-1.5431,-1.524,-1.5021,-1.4772,-1.4144,-1.4123,-1.4629,-1.3899,-1.405,-1.5015,-1.4403,-1.3708,-1.3051,-1.2422,-1.1732,0.0,-0.7541,-0.8313,-0.8377,-0.9087,-0.992,-1.0488,-1.1274,0.0,-1.3785,-1.4923,-1.5979,-1.7101,-1.8933,-2.028,-2.0269,-2.2052,-2.336,-2.3271,-2.3783,-2.3873,-2.321,-2.3714,-2.3465,-2.1757,-2.1424,-2.0855,-1.9743,-1.9658,-1.9505,-1.913,-1.9101,-1.9101,-1.9101,-1.9819,-1.9989,-1.9483,-1.8916,-1.8439,-1.8091,-1.8091,-1.838,-1.8858,-1.8858,-1.9171,-1.9697,-1.9697,-1.9411,-1.8863,-1.8575,-1.7961,-1.7269,-1.7011,-1.6882,-1.6882,-1.6733,-1.6988,-1.7402,-1.6948,-1.7002,-1.7148,-1.6289,-1.5742,-1.541,-1.5352,-1.5207,-1.5155,-1.5605,-1.5194,-1.447,-1.3428,-1.3156,-1.2885,-1.1821,-1.1787,-1.1999,-1.1999,-1.1999,-1.1999,-1.1999,-1.1765,-1.1622,-1.1622,-1.1645,-1.1794,-1.2394,-1.2526,-1.2884,-1.3799,-1.3931,-1.4062,-1.437,-1.4684,-1.4882,-1.4904,-1.5226,-1.5431,-1.5431,-1.5304,-1.5012,-1.4494,-1.3782,-1.3447,-1.3297,-1.3082,-1.3149,-1.3574,-1.3242,-1.2879,-1.2642,-1.1482,-1.0899,-1.1174,0.0,-0.9621,-0.9869,-1.0438,-1.1017,0.0,-1.2104,-1.2997,0.0,0.0,0.0,-1.8244,-1.942,-2.0507,-2.1901,-2.2747,-2.3395,-2.3825,-2.4201,-2.4169,-2.3554,-2.3342,-2.2742,-2.1624,-2.1053,-2.0318,-1.9315,-1.9257,-1.9185,-1.9116,-1.9101,-1.9101,-1.9101,-1.9277,-1.903,-1.8207,-1.7463,-1.6999,-1.6911,-1.6911,-1.7167,-1.7638,-1.7638,-1.8065,-1.8895,-1.8895,-1.855,-1.8007,-1.7944,-1.7162,-1.6113,-1.6058,-1.591,-1.5821,-1.6154,-1.6341,-1.6507,-1.7031,-1.6855,-1.6279,-1.5742,-1.5498,-1.5294,-1.4824,-1.4653,-1.4685,-1.4786,-1.4319,-1.3619,-1.2849,-1.2639,-1.2499,-1.1762,-1.1681,-1.167,-1.167,-1.167,-1.167,-1.167,-1.1611,-1.1622,-1.1622,-1.1765,-1.1977,-1.2131,-1.2577,-1.298,-1.3206,-1.3455,-1.3638,-1.3718,-1.4011,-1.4311,-1.456,-1.5101,-1.5431,-1.5431,-1.455,-1.3978,-1.3838,-1.2752,-1.2157,-1.2215,-1.22,-1.212,-1.1849,-1.1963,-1.18,-1.1384,-1.0985,-1.0587,-1.4133,-1.3127,-1.1989,-1.2174,-1.2541,-1.2915,-1.3114,0.0,0.0,0.0,0.0,0.0,0.0,0.0,-2.1124,-2.2115,-2.3027,-2.3728,-2.4022,-2.4733,-2.465,-2.3268,-2.3106,-2.2595,-2.1198,-2.0703,-2.0114,-1.9182,-1.9101,-1.9101,-1.9101,-1.9101,-1.9101,-1.9101,-1.886,-1.8422,-1.7787,-1.7297,-1.685,-1.6436,-1.6392,-1.6603,-1.7115,-1.7115,-1.7649,-1.8609,-1.8609,-1.8287,-1.771,-1.7611,-1.6842,-1.5652,-1.5397,-1.5251,-1.5127,-1.5166,-1.543,-1.5811,-1.6094,-1.5879,-1.5469,-1.5069,-1.4868,-1.4571,-1.4177,-1.3803,-1.3606,-1.3606,-1.313,-1.2536,-1.2158,-1.2097,-1.1981,-1.1685,-1.1622,-1.1622,-1.1622,-1.1622,-1.1622,-1.1622,-1.1622,-1.1622,-1.1622,-1.1706,-1.1919,-1.2211,-1.2555,-1.2892,-1.3192,-1.3389,-1.3492,-1.3492,-1.3784,-1.3972,-1.3838,-1.4294,-1.4636,-1.4778,-1.3892,-1.318,-1.2837,-1.191,-1.1266,-1.1067,-1.1257,-1.1261,-1.1124,-1.1259,-1.1159,-1.0847,-1.0639,-1.0336,-1.6377,-1.5716,-1.4768,-1.4601,-1.4601,-1.4728,0.0,0.0,0.0,0.0,0.0,0.0,0.0,-2.0528,0.0,-2.1936,-2.3138,-2.4097,-2.4198,-2.507,-2.4952,-2.2938,-2.2977,-2.2501,-2.079,-2.052,-2.0086,-1.9205,-1.9139,-1.9101,-1.9101,-1.9101,-1.9101,-1.9078,-1.863,-1.8201,-1.776,-1.7639,-1.7186,-1.6362,-1.6231,-1.6483,-1.6953,-1.6953,-1.7493,-1.8386,-1.8336,-1.7953,-1.7388,-1.7159,-1.6395,-1.5377,-1.489,-1.4687,-1.4639,-1.4268,-1.459,-1.5166,-1.4805,-1.4727,-1.4778,-1.4427,-1.4057,-1.3675,-1.3365,-1.2866,-1.2448,-1.2373,-1.1973,-1.1622,-1.1622,-1.1622,-1.1622,-1.1622,-1.1622,-1.1622,-1.1622,-1.1622,-1.1622,-1.1622,-1.1622,-1.1622,-1.1622,-1.1604,-1.1816,-1.2365,-1.2533,-1.2797,-1.3353,-1.3462,-1.3492,-1.3346,-1.3592,-1.3539,-1.2974,-1.3135,-1.3306,-1.3554,-1.2994,-1.2357,-1.155,-1.0993,-1.0415,-0.9938,-1.0336,-1.059,-1.0799,-1.0834,-1.0754,-1.057,-1.0334,-1.0126,-1.8004,-1.8004,-1.7544,-1.6357,-1.5486,-1.5012,0.0,0.0,0.0,0.0,0.0,0.0,0.0,-2.1008,-2.1642,-2.2538,-2.335,-2.4098,-2.4611,-2.4413,-2.4085,-2.3733,-2.2703,-2.1847,-2.1291,-2.0533,-1.9918,-1.9457,-1.925,-1.9101,-1.9101,-1.9101,-1.9078,-1.9031,-1.8955,-1.8464,-1.7557,-1.7199,-1.6748,-1.6244,-1.62,-1.6426,-1.6837,-1.6837,-1.7096,-1.7581,-1.7175,-1.666,-1.6063,-1.5584,-1.495,-1.4326,-1.4258,-1.4238,-1.4175,-1.4107,-1.4165,-1.4262,-1.4204,-1.4473,-1.4671,-1.3756,-1.3451,-1.3258,-1.2456,-1.2158,-1.2035,-1.1781,-1.1685,-1.1622,-1.1622,-1.1622,-1.1622,-1.1622,-1.1622,-1.1622,-1.1622,-1.1622,-1.1622,-1.1622,-1.1622,-1.1622,-1.1622,-1.178,-1.1992,-1.2029,-1.2577,-1.2972,-1.3067,-1.3323,-1.3273,-1.2826,-1.2788,-1.2702,-1.2337,-1.1701,-1.1354,-1.1474,-1.1396,-1.0801,-0.9764,-0.9448,-0.9324,-0.9379,-0.9851,-1.0195,-1.041,-1.0523,-1.0608,-1.0565,-1.0178,-1.0071,-2.0105,-2.0016,-1.9736,-1.9432,-1.8147,-1.7036,0.0,0.0,0.0,0.0,0.0,0.0,0.0,-2.1212,-2.2094,-2.3206,-2.4278,-2.4791,-2.4338,-2.4414,-2.4084,-2.2954,-2.2264,-2.1591,-2.0907,-2.0334,-1.9848,-1.953,-1.9236,-1.9101,-1.9101,-1.9101,-1.9078,-1.9055,-1.8965,-1.8436,-1.7489,-1.7227,-1.6735,-1.6088,-1.6013,-1.6102,-1.6287,-1.6287,-1.6532,-1.6943,-1.6452,-1.6101,-1.5742,-1.5216,-1.4641,-1.4058,-1.3887,-1.3799,-1.3799,-1.3799,-1.3652,-1.3486,-1.3721,-1.3561,-1.3218,-1.26,-1.2225,-1.1948,-1.1612,-1.1417,-1.1261,-1.1544,-1.1622,-1.1622,-1.1622,-1.1622,-1.1622,-1.1622,-1.1622,-1.1622,-1.1622,-1.1622,-1.1622,-1.1622,-1.1622,-1.1622,-1.1622,-1.1823,-1.2029,-1.227,-1.2701,-1.3075,-1.325,-1.3107,-1.29,-1.2599,-1.2224,-1.1757,-1.1286,-1.0836,-1.044,-1.0339,-1.0076,-0.9658,-0.9175,-0.8941,-0.8961,-0.9099,-0.9526,-0.9889,-1.0102,-1.031,-1.0409,-1.0405,-1.0186,-1.0038,-2.1904,-2.1782,-2.1661,-2.2183,0.0,-1.8955,-1.9193,0.0,0.0,0.0,0.0,0.0,0.0,-2.1601,-2.2811,-2.3936,-2.4784,-2.4981,-2.393,-2.406,-2.367,-2.2074,-2.1742,-2.1342,-2.0574,-2.0254,-1.9955,-1.9639,-1.9347,-1.9176,-1.9101,-1.9101,-1.8991,-1.8809,-1.8788,-1.826,-1.7195,-1.7203,-1.6765,-1.5957,-1.5836,-1.5792,-1.5792,-1.5792,-1.6008,-1.6392,-1.5764,-1.5504,-1.5404,-1.4798,-1.4244,-1.3809,-1.3486,-1.3359,-1.3359,-1.3359,-1.3154,-1.293,-1.3252,-1.2795,-1.2022,-1.1705,-1.1206,-1.0786,-1.084,-1.0726,-1.0711,-1.135,-1.1564,-1.1622,-1.1622,-1.1622,-1.1622,-1.1622,-1.1622,-1.1622,-1.1622,-1.1622,-1.1622,-1.1622,-1.1622,-1.1622,-1.1622,-1.1696,-1.1948,-1.2265,-1.245,-1.2764,-1.3011,-1.2673,-1.2298,-1.2157,-1.1558,-1.0887,-1.0218,-0.9992,-0.9769,-0.9481,-0.9106,-0.8941,-0.8941,-0.8784,-0.8779,-0.8944,-0.9408,-0.9724,-0.988,-1.0145,-1.0272,-1.0267,-1.0055,-1.0038,-2.2981,-2.3228,-2.3525,-2.3541,0.0,0.0,-2.0562,-2.0312,0.0,0.0,0.0,0.0,0.0,-2.2783,-2.3747,-2.4507,-2.4151,-2.3764,-2.3803,-2.2839,-2.2058,-2.1916,-2.13,-2.0857,-2.0761,-2.0512,-2.0254,-1.999,-1.9654,-1.9347,-1.9101,-1.9101,-1.8751,-1.8014,-1.8521,-1.7988,-1.6323,-1.6924,-1.6723,-1.5792,-1.5792,-1.5792,-1.5792,-1.5792,-1.5816,-1.5808,-1.4822,-1.4417,-1.4356,-1.3435,-1.3018,-1.2969,-1.2939,-1.293,-1.293,-1.293,-1.291,-1.2881,-1.291,-1.2548,-1.1977,-1.1436,-1.0887,-1.0402,-1.023,-1.0368,-1.066,-1.1011,-1.1387,-1.1622,-1.1622,-1.1622,-1.1622,-1.1622,-1.1622,-1.1622,-1.1622,-1.1622,-1.1622,-1.1622,-1.1622,-1.1622,-1.1622,-1.1447,-1.1421,-1.1648,-1.1607,-1.1618,-1.1816,-1.1781,-1.1484,-1.0738,-1.0594,-1.0143,-0.9175,-0.9099,-0.9022,-0.8799,-0.8713,-0.8703,-0.8703,-0.8703,-0.8708,-0.8722,-0.9332,-0.9569,-0.9667,-1.0074,-1.0272,-1.0267,-1.0055,-1.0038,-2.4028,-2.4327,-2.4618,-2.4618,0.0,0.0,0.0,0.0,0.0,-2.178,-2.1979,0.0,-2.2572,-2.2848,-2.3182,-2.3522,-2.328,-2.2917,-2.2561,-2.2146,-2.1726,-2.1268,-2.0968,-2.0794,-2.0794,-2.0392,-2.0096,-2.0005,-1.9188,-1.8644,-1.855,-1.8143,-1.7774,-1.7424,-1.7498,-1.7015,-1.585,-1.5958,-1.564,-1.485,-1.5524,-1.5792,-1.5792,-1.5792,-1.5659,-1.5334,-1.4628,-1.4118,-1.38,-1.3162,-1.2881,-1.291,-1.3164,-1.3271,-1.3271,-1.3271,-1.3105,-1.2832,-1.2529,-1.2017,-1.146,-1.0905,-1.0344,-0.9941,-1.0056,-1.0185,-1.0397,-1.0924,-1.1165,-1.1365,-1.1571,-1.1622,-1.1622,-1.1622,-1.1622,-1.1622,-1.1622,-1.1622,-1.1622,-1.1622,-1.1622,-1.1498,-1.1185,-1.1189,-1.1161,-1.0862,-1.0994,-1.1175,-1.113,-1.0935,-1.0663,-1.0368,-0.9846,-0.9392,-0.8861,-0.8784,-0.8784,-0.8703,-0.8703,-0.8703,-0.8703,-0.8703,-0.8703,-0.8703,-0.9034,-0.9202,-0.9202,-0.9525,-0.9721,-0.9897,-0.9814,-0.9864,-2.5052,-2.542,-2.5762,0.0,0.0,0.0,0.0,0.0,0.0,-2.2793,-2.291,-2.3033,-2.3231,-2.3083,-2.296,-2.3151,-2.2745,-2.2232,-2.1827,-2.1645,-2.1363,-2.0857,-2.0794,-2.0794,-2.0794,-2.0273,-1.9859,-1.9706,-1.8723,-1.8056,-1.7847,-1.7427,-1.7045,-1.6742,-1.6744,-1.6277,-1.5246,-1.5281,-1.4967,-1.4301,-1.4995,-1.5384,-1.554,-1.554,-1.536,-1.5062,-1.4536,-1.4025,-1.3573,-1.3113,-1.2959,-1.3096,-1.3252,-1.3477,-1.3691,-1.3555,-1.3307,-1.2919,-1.2554,-1.1929,-1.1168,-1.0697,-1.0188,-0.979,-0.9907,-1.0089,-1.0346,-1.0792,-1.107,-1.1282,-1.1564,-1.1622,-1.1622,-1.1622,-1.1622,-1.156,-1.1373,-1.1373,-1.131,-1.1108,-1.1108,-1.0982,-1.0604,-1.0586,-1.0418,-1.0043,-1.0152,-1.0248,-1.0263,-1.0063,-0.9916,-0.9846,-0.9241,-0.8789,-0.8627,-0.8627,-0.8551,-0.8551,-0.8475,-0.8551,-0.8627,-0.8627,-0.8551,-0.8475,-0.8731,-0.886,-0.8923,-0.9092,-0.9283,-0.9519,-0.9519,-0.9607,-2.6069,-2.6581,-2.7018,0.0,0.0,0.0,0.0,0.0,0.0,-2.3097,-2.3378,-2.3657,-2.3758,-2.3559,-2.3468,-2.3732,-2.2608,-2.1749,-2.1884,-2.1252,-2.0794,-2.0778,-2.0794,-2.0778,-2.0778,-2.0178,-1.9546,-1.9025,-1.8353,-1.7732,-1.7118,-1.7084,-1.6714,-1.59,-1.64,-1.595,-1.4527,-1.5012,-1.4955,-1.4277,-1.4277,-1.4514,-1.5001,-1.5001,-1.5018,-1.5051,-1.4536,-1.4025,-1.3573,-1.3113,-1.3135,-1.3467,-1.3047,-1.3398,-1.4029,-1.3662,-1.3361,-1.3214,-1.3214,-1.2427,-1.136,-1.1004,-1.0524,-1.0046,-0.9716,-1.0075,-1.0587,-1.058,-1.1055,-1.1622,-1.1622,-1.156,-1.1622,-1.1622,-1.1622,-1.1435,-1.0926,-1.0807,-1.0611,-1.0085,-1.0015,-1.0015,-1.0015,-0.9454,-0.9102,-0.9348,-0.8986,-0.873,-0.8952,-0.918,-0.9246,-0.9022,-0.8784,-0.8627,-0.8403,-0.8403,-0.8327,-0.8106,-0.8102,-0.8178,-0.8403,-0.8403,-0.8327,-0.8102,-0.8286,-0.848,-0.8682,-0.8871,-0.9064,-0.9262,-0.9262,-0.9262,-2.539,-2.5255,0.0,-2.577,0.0,0.0,0.0,0.0,0.0,0.0,-2.4097,-2.4013,-2.3711,-2.3212,-2.2758,-2.2425,-2.1626,-2.1077,-2.111,-2.0919,-2.0571,-2.0162,-1.9987,-1.9719,-1.9295,-1.8843,-1.8452,-1.81,-1.7337,-1.6725,-1.6336,-1.5841,-1.5432,-1.5153,-1.5133,-1.4727,-1.3861,-1.396,-1.3732,-1.318,-1.318,-1.365,-1.453,-1.453,-1.435,-1.4049,-1.3871,-1.3563,-1.3113,-1.2871,-1.3026,-1.3333,-1.3106,-1.3332,-1.379,-1.3666,-1.332,-1.2767,-1.2436,-1.1816,-1.1174,-1.0632,-1.0377,-1.0207,-0.9897,-1.0036,-1.0201,-1.0037,-1.0436,-1.092,-1.092,-1.1084,-1.131,-1.156,-1.1622,-1.156,-1.1373,-1.1059,-1.0737,-1.0415,-1.0091,-0.9709,-0.9256,-0.9005,-0.8711,-0.827,-0.8203,-0.8274,-0.8359,-0.8384,-0.8403,-0.8394,-0.8331,-0.8255,-0.8178,-0.8178,-0.8178,-0.8102,-0.8102,-0.8102,-0.8178,-0.8178,-0.8178,-0.8102,-0.8134,-0.8243,-0.8435,-0.8455,-0.8725,-0.8999,-0.8999,-0.9087,-2.5664,0.0,0.0,-2.5551,-2.5179,-2.487,-2.5153,0.0,0.0,0.0,-2.4228,-2.3911,-2.3662,-2.2789,-2.202,-2.1761,-2.1151,-2.0695,-2.0695,-2.0409,-2.0095,-1.9704,-1.9343,-1.8967,-1.8592,-1.8144,-1.7762,-1.7484,-1.662,-1.5988,-1.5722,-1.5162,-1.4794,-1.4686,-1.4529,-1.4195,-1.3615,-1.3514,-1.322,-1.2709,-1.2709,-1.2999,-1.3574,-1.3879,-1.3848,-1.3585,-1.3363,-1.3054,-1.2725,-1.2627,-1.2867,-1.3221,-1.2957,-1.319,-1.3683,-1.3299,-1.2851,-1.2342,-1.1922,-1.1399,-1.0886,-1.0544,-1.0427,-1.0371,-1.0059,-1.0129,-1.0275,-1.0093,-1.0401,-1.0779,-1.0779,-1.0919,-1.1122,-1.1373,-1.1178,-1.0919,-1.073,-1.0225,-0.9646,-0.939,-0.9064,-0.8748,-0.8361,-0.8231,-0.8037,-0.7596,-0.764,-0.7785,-0.7979,-0.7959,-0.8035,-0.8084,-0.8102,-0.8102,-0.7953,-0.7953,-0.7953,-0.7872,-0.7872,-0.7872,-0.7872,-0.8022,-0.8026,-0.7872,-0.7977,-0.8049,-0.8085,-0.8176,-0.8187,-0.819,-0.8345,-0.8288,-2.643,0.0,0.0,-2.5805,-2.54,0.0,-2.5353,-2.495,-2.4562,-2.4555,-2.4027,-2.3494,-2.3415,-2.2327,-2.1455,-2.1479,-2.0933,-2.0462,-2.04,-1.9871,-1.9467,-1.9326,-1.8765,-1.8359,-1.8297,-1.772,-1.7275,-1.7013,-1.6186,-1.5536,-1.5208,-1.4932,-1.4686,-1.4501,-1.4401,-1.4124,-1.3615,-1.3514,-1.322,-1.2709,-1.2709,-1.2627,-1.252,-1.313,-1.3448,-1.3443,-1.2902,-1.2589,-1.248,-1.248,-1.2698,-1.2991,-1.2622,-1.2963,-1.3607,-1.2597,-1.2083,-1.1929,-1.1565,-1.1041,-1.0555,-1.0555,-1.0555,-1.0492,-1.0126,-1.0231,-1.0446,-1.0418,-1.0716,-1.0975,-1.0975,-1.0996,-1.1024,-1.0989,-1.0478,-0.9894,-0.9396,-0.8689,-0.8042,-0.7652,-0.7521,-0.7456,-0.7461,-0.7265,-0.7204,-0.7204,-0.7225,-0.7407,-0.7706,-0.7768,-0.7781,-0.7982,-0.8016,-0.7949,-0.7799,-0.7804,-0.7723,-0.7484,-0.7484,-0.7484,-0.7484,-0.7878,-0.7886,-0.7484,-0.765,-0.774,-0.768,-0.7829,-0.7583,-0.7073,-0.7309,-0.7027,0.0,-2.5136,0.0,0.0,-2.4846,-2.4989,-2.5306,-2.4778,-2.4232,-2.4344,-2.4026,-2.3378,-2.2242,-2.1761,-2.1366,-2.0839,-2.0587,-2.0307,-1.9794,-1.9542,-1.906,-1.8061,-1.7649,-1.7281,-1.6825,-1.6598,-1.6381,-1.6153,-1.5771,-1.5418,-1.5043,-1.4735,-1.4483,-1.4351,-1.4287,-1.4026,-1.3615,-1.3493,-1.322,-1.2768,-1.2627,-1.2508,-1.2449,-1.2627,-1.2701,-1.2636,-1.2224,-1.2234,-1.248,-1.2382,-1.2379,-1.2445,-1.2262,-1.2471,-1.285,-1.1926,-1.1587,-1.1519,-1.0743,-1.0293,-1.0065,-1.0065,-1.0065,-1.0003,-0.9707,-0.9547,-0.9435,-0.9261,-0.9579,-0.9991,-0.9991,-1.016,-1.0267,-0.9914,-0.9901,-0.9831,-0.9186,-0.8613,-0.8166,-0.7902,-0.7582,-0.7204,-0.7073,-0.7012,-0.6946,-0.6946,-0.6981,-0.7024,-0.7116,-0.7199,-0.736,-0.741,-0.7555,-0.7638,-0.7561,-0.7561,-0.7561,-0.7484,-0.7484,-0.7484,-0.7484,-0.7598,-0.7602,-0.7484,-0.7521,-0.7375,-0.7027,-0.706,-0.6834,-0.6405,-0.6288,-0.6174,0.0,0.0,0.0,-2.4869,0.0,-2.4934,-2.4982,-2.456,-2.3994,-2.3488,-2.3094,-2.2572,-2.1742,-2.1299,-2.0876,-2.0454,-2.0392,-2.0159,-1.951,-1.9073,-1.8455,-1.7463,-1.6974,-1.6607,-1.6292,-1.6207,-1.6166,-1.6055,-1.5697,-1.5359,-1.5074,-1.4672,-1.4369,-1.4144,-1.4111,-1.3947,-1.3615,-1.3399,-1.3138,-1.2803,-1.2508,-1.2282,-1.215,-1.2158,-1.2079,-1.1944,-1.1853,-1.1893,-1.2003,-1.215,-1.2175,-1.2175,-1.2126,-1.2045,-1.1944,-1.1217,-1.0713,-1.0333,-0.9883,-0.957,-0.9417,-0.9701,-0.9795,-0.9768,-0.9613,-0.9509,-0.9419,-0.9272,-0.9446,-0.9621,-0.9318,-0.9368,-0.93,-0.8572,-0.8754,-0.8914,-0.8393,-0.7777,-0.7326,-0.7256,-0.6999,-0.6811,-0.6683,-0.6683,-0.6683,-0.6683,-0.6683,-0.6685,-0.6805,-0.6979,-0.7165,-0.7204,-0.7378,-0.7484,-0.7484,-0.7484,-0.7484,-0.7484,-0.7484,-0.7407,-0.7099,-0.7099,-0.7215,-0.7614,-0.7614,-0.734,-0.6784,-0.6708,-0.6218,-0.5446,-0.5307,-0.5132,0.0,0.0,0.0,-2.529,-2.5005,0.0,-2.48,-2.4362,-2.3712,-2.2747,-2.2167,-2.174,-2.1459,-2.0848,-2.0388,-2.0304,-2.0212,-1.9888,-1.921,-1.85,-1.7777,-1.7101,-1.6532,-1.6194,-1.6166,-1.6166,-1.6166,-1.6166,-1.5711,-1.5329,-1.5104,-1.4624,-1.4254,-1.4,-1.3967,-1.3881,-1.3661,-1.3331,-1.3069,-1.2803,-1.2365,-1.2029,-1.1859,-1.1679,-1.1548,-1.146,-1.1458,-1.1408,-1.1407,-1.181,-1.1975,-1.1984,-1.2049,-1.1828,-1.1351,-1.0547,-0.9857,-0.9296,-0.9001,-0.8844,-0.8811,-0.9299,-0.9492,-0.9532,-0.9532,-0.9532,-0.9532,-0.9532,-0.9573,-0.9484,-0.9003,-0.8829,-0.8493,-0.7567,-0.7541,-0.7711,-0.7404,-0.6806,-0.642,-0.642,-0.642,-0.642,-0.642,-0.642,-0.642,-0.642,-0.642,-0.6473,-0.6627,-0.6802,-0.6976,-0.7159,-0.7334,-0.7452,-0.748,-0.7407,-0.733,-0.733,-0.7249,-0.6942,-0.6483,-0.6405,-0.6713,-0.7433,-0.7406,-0.707,-0.6427,-0.6271,-0.5528,-0.4401,-0.4326,-0.399,0.0,0.0,0.0,0.0,-2.5005,-2.5053,0.0,-2.4197,-2.3089,-2.3171,-2.2525,-2.1673,-2.0736,-2.0457,-2.0388,-2.0304,-1.9811,-1.9194,-1.8437,-1.7761,-1.7056,-1.6338,-1.6185,-1.6095,-1.6039,-1.6039,-1.6039,-1.6039,-1.5492,-1.5104,-1.5013,-1.4497,-1.4138,-1.3908,-1.3908,-1.3874,-1.3775,-1.3335,-1.3025,-1.2803,-1.2173,-1.1819,-1.1719,-1.1141,-1.1011,-1.1297,-1.0751,-1.0671,-1.1021,-1.1397,-1.1572,-1.1599,-1.1938,-1.2076,-1.1787,-1.0278,-0.9787,-0.969,-0.8217,-0.8071,-0.8444,-0.8524,-0.8717,-0.8925,-0.8925,-0.8925,-0.8925,-0.8925,-0.9105,-0.9243,-0.918,-0.8776,-0.839,-0.7966,-0.7365,-0.6791,-0.6603,-0.6482,-0.642,-0.642,-0.642,-0.642,-0.642,-0.642,-0.642,-0.642,-0.642,-0.6428,-0.6453,-0.6615,-0.6798,-0.6972,-0.7151,-0.7322,-0.7472,-0.7022,-0.6714,-0.6714,-0.6167,-0.5854,-0.5702,-0.5541,-0.5605,-0.5901,-0.5868,-0.5575,-0.4956,-0.4797,-0.4332,-0.3642,-0.3325,-0.3073,-2.6983,-2.5924,-2.5185,0.0,-2.5037,-2.4934,-2.4768,-2.4068,-2.3266,-2.2554,-2.2011,-2.1399,-2.0503,-2.0357,-2.0304,-2.0166,-1.9565,-1.8908,-1.8188,-1.7502,-1.6815,-1.6116,-1.6039,-1.6039,-1.5996,-1.5996,-1.5996,-1.5996,-1.5433,-1.5043,-1.4937,-1.4388,-1.4026,-1.3854,-1.3854,-1.3821,-1.3788,-1.3267,-1.2745,-1.2245,-1.1892,-1.1682,-1.156,-1.1078,-1.0866,-1.0874,-1.0492,-1.0413,-1.0606,-1.1012,-1.1325,-1.1508,-1.1682,-1.1523,-1.1048,-1.0327,-0.9653,-0.9011,-0.8256,-0.8199,-0.8427,-0.8427,-0.8571,-0.8804,-0.8804,-0.8804,-0.8804,-0.8804,-0.8624,-0.8384,-0.8118,-0.7666,-0.7229,-0.6903,-0.6625,-0.6408,-0.6429,-0.642,-0.642,-0.642,-0.642,-0.642,-0.642,-0.642,-0.642,-0.642,-0.642,-0.642,-0.642,-0.6583,-0.6721,-0.679,-0.7054,-0.7257,-0.7334,-0.6893,-0.656,-0.6402,-0.5777,-0.5231,-0.4768,-0.4688,-0.4479,-0.4214,-0.4875,-0.5037,-0.4472,-0.4175,-0.3783,-0.312,-0.2832,-0.2818,0.0,0.0,-2.5534,-2.5195,-2.5187,-2.5124,0.0,-2.4021,-2.3491,-2.2341,-2.1688,-2.1135,-2.0533,-2.0303,-2.0166,-1.999,-1.9258,-1.8579,-1.8031,-1.7228,-1.6545,-1.6015,-1.5955,-1.5955,-1.5883,-1.5775,-1.5697,-1.5697,-1.5198,-1.48,-1.4588,-1.4228,-1.3881,-1.3579,-1.3676,-1.3676,-1.3566,-1.3076,-1.2484,-1.1881,-1.1719,-1.1571,-1.1448,-1.1153,-1.0829,-1.0603,-1.0343,-1.0197,-1.0192,-1.0588,-1.0993,-1.1342,-1.1443,-1.1226,-1.0762,-1.042,-0.9688,-0.8749,-0.8383,-0.831,-0.8427,-0.8427,-0.8571,-0.8804,-0.8804,-0.8804,-0.8804,-0.8804,-0.8368,-0.7818,-0.7396,-0.6879,-0.6345,-0.6126,-0.6104,-0.6207,-0.6371,-0.642,-0.642,-0.642,-0.642,-0.642,-0.642,-0.642,-0.642,-0.642,-0.642,-0.642,-0.642,-0.6542,-0.6639,-0.6672,-0.6821,-0.695,-0.6994,-0.6471,-0.6015,-0.5777,-0.5154,-0.4533,-0.3837,-0.3837,-0.3526,-0.3062,-0.3915,-0.4263,-0.4021,-0.371,-0.3321,-0.2901,-0.266,-0.2635,0.0,-2.6747,0.0,-2.5362,-2.5616,-2.5854,-2.48,-2.4092,-2.3533,-2.329,-2.2078,-2.1055,-2.0828,-2.0361,-1.997,-1.9848,-1.883,-1.8,-1.7829,-1.6729,-1.593,-1.5827,-1.5799,-1.577,-1.5639,-1.5173,-1.4869,-1.4869,-1.4537,-1.4156,-1.3704,-1.3947,-1.3728,-1.2877,-1.3356,-1.3389,-1.2938,-1.266,-1.2365,-1.2077,-1.1634,-1.1421,-1.1394,-1.1115,-1.0829,-1.0582,-1.0254,-0.9969,-0.9778,-1.0183,-1.0579,-1.0975,-1.1333,-1.1728,-1.1873,-1.0499,-0.9963,-0.9713,-0.8372,-0.8136,-0.8427,-0.8427,-0.8571,-0.8804,-0.8804,-0.8804,-0.8804,-0.8804,-0.8368,-0.7871,-0.7871,-0.7025,-0.6271,-0.6611,-0.6306,-0.5998,-0.6343,-0.642,-0.642,-0.642,-0.642,-0.642,-0.642,-0.642,-0.642,-0.642,-0.642,-0.642,-0.642,-0.6428,-0.6497,-0.666,-0.6287,-0.6165,-0.6307,-0.5399,-0.4698,-0.4538,-0.3915,-0.345,-0.3141,-0.2982,-0.2824,-0.2826,-0.2668,-0.2826,-0.3146,-0.2984,-0.2827,-0.283,-0.2594,-0.2549,0.0,0.0,0.0,-2.4988,-2.5021,-2.5037,-2.48,-2.4396,-2.3912,-2.3381,-2.2365,-2.1386,-2.0827,-2.022,-1.9626,-1.9121,-1.8261,-1.7498,-1.7037,-1.6188,-1.5639,-1.561,-1.561,-1.558,-1.5551,-1.5017,-1.4673,-1.4673,-1.3961,-1.3388,-1.3052,-1.2939,-1.2667,-1.2165,-1.2723,-1.3019,-1.3032,-1.2624,-1.2294,-1.1957,-1.1511,-1.126,-1.126,-1.1174,-1.086,-1.039,-1.0273,-1.0019,-0.9692,-0.9839,-1.0321,-1.0919,-1.1076,-1.13,-1.1501,-1.0589,-1.0039,-0.9597,-0.8552,-0.841,-0.8624,-0.8437,-0.8571,-0.8804,-0.8804,-0.8804,-0.8699,-0.8309,-0.783,-0.7289,-0.6907,-0.6308,-0.5891,-0.6263,-0.6329,-0.6262,-0.6392,-0.642,-0.642,-0.642,-0.642,-0.642,-0.642,-0.642,-0.642,-0.642,-0.642,-0.6284,-0.5951,-0.5881,-0.5771,-0.5487,-0.551,-0.5463,-0.5434,-0.4817,-0.4382,-0.4066,-0.3446,-0.2981,-0.2746,-0.2668,-0.2589,-0.2589,-0.2511,-0.2589,-0.2746,-0.2668,-0.2589,-0.2589,-0.2511,-0.2544,-2.541,0.0,0.0,0.0,-2.4719,-2.4745,-2.4623,-2.4405,-2.4101,-2.3616,-2.2645,-2.1674,-2.1141,-2.0266,-1.9432,-1.893,-1.8076,-1.7335,-1.6846,-1.6037,-1.5477,-1.5477,-1.5477,-1.5477,-1.5477,-1.474,-1.4251,-1.4251,-1.3438,-1.2749,-1.2334,-1.2346,-1.2232,-1.2022,-1.2275,-1.2673,-1.3232,-1.2615,-1.221,-1.1982,-1.1437,-1.1158,-1.1158,-1.1185,-1.0871,-1.0283,-1.0244,-0.9971,-0.9585,-0.9594,-1.01,-1.0812,-1.0812,-1.0968,-1.1099,-1.0474,-0.9961,-0.9429,-0.8724,-0.8586,-0.8778,-0.8584,-0.8651,-0.8804,-0.8804,-0.8639,-0.8421,-0.8031,-0.7343,-0.6701,-0.6317,-0.5971,-0.5766,-0.6063,-0.6241,-0.642,-0.642,-0.642,-0.642,-0.642,-0.642,-0.642,-0.642,-0.642,-0.642,-0.642,-0.642,-0.6284,-0.5885,-0.5683,-0.5415,-0.5014,-0.4882,-0.4676,-0.4496,-0.4155,-0.3805,-0.3521,-0.3057,-0.2746,-0.2511,-0.2511,-0.2511,-0.2511,-0.2511,-0.2511,-0.2511,-0.2511,-0.2511,-0.2511,-0.2511,-0.2544,0.0,0.0,0.0,0.0,-2.4862,-2.5142,-2.4372,-2.4127,-2.4059,-2.399,-2.2896,-2.1909,-2.171,-2.0413,-1.9376,-1.9302,-1.8282,-1.7478,-1.7286,-1.6191,-1.5403,-1.5389,-1.5389,-1.5389,-1.5389,-1.433,-1.3605,-1.3591,-1.2962,-1.2312,-1.1625,-1.217,-1.2497,-1.2456,-1.2035,-1.234,-1.3454,-1.2626,-1.221,-1.221,-1.1437,-1.1082,-1.1092,-1.1158,-1.0871,-1.0283,-1.0157,-0.9804,-0.9279,-0.9426,-0.9974,-1.066,-1.0669,-1.0801,-1.0897,-1.0261,-0.9762,-0.9309,-0.8784,-0.8685,-0.8804,-0.8804,-0.8804,-0.8804,-0.8804,-0.8362,-0.7871,-0.7871,-0.7069,-0.6209,-0.6164,-0.6019,-0.5892,-0.5896,-0.6164,-0.642,-0.642,-0.642,-0.642,-0.642,-0.642,-0.642,-0.642,-0.642,-0.642,-0.635,-0.635,-0.6354,-0.635,-0.5885,-0.5481,-0.5345,-0.4464,-0.3818,-0.3698,-0.3278,-0.2905,-0.2818,-0.2824,-0.2668,-0.2511,-0.2511,-0.2511,-0.2511,-0.2511,-0.2511,-0.2511,-0.2511,-0.2511,-0.2511,-0.2511,-0.2544,-2.448,0.0,0.0,0.0,0.0,0.0,-2.4073,-2.3546,-2.322,-2.3724,-2.2174,-2.0907,-2.158,-2.0099,-1.886,-1.8936,-1.8397,-1.7661,-1.6652,-1.6201,-1.5823,-1.5386,-1.5328,-1.5328,-1.5328,-1.4601,-1.3916,-1.349,-1.2823,-1.2013,-1.1001,-1.0768,-1.0828,-1.1202,-1.1509,-1.1989,-1.2695,-1.2318,-1.2138,-1.2113,-1.1325,-1.0968,-1.0968,-1.0957,-1.0651,-1.0098,-0.9952,-0.9558,-0.9024,-0.9226,-0.9588,-1.0099,-1.0428,-1.0513,-1.0426,-1.0132,-0.9666,-0.9204,-0.8732,-0.858,-0.8533,-0.8752,-0.8745,-0.8633,-0.8633,-0.8302,-0.7765,-0.7122,-0.6534,-0.5977,-0.5676,-0.5709,-0.5795,-0.6042,-0.625,-0.642,-0.642,-0.642,-0.642,-0.642,-0.642,-0.642,-0.642,-0.642,-0.6284,-0.5885,-0.5815,-0.555,-0.4758,-0.4558,-0.4225,-0.3687,-0.344,-0.3161,-0.2833,-0.2804,-0.2731,-0.252,-0.2564,-0.2589,-0.2511,-0.2511,-0.2511,-0.2511,-0.2511,-0.2511,-0.2511,-0.2511,-0.2511,-0.2511,-0.2511,-0.2544,-2.424,-2.3903,-2.3668,-2.3492,0.0,0.0,-2.3496,-2.32,-2.3063,-2.3504,-2.2199,-2.108,-2.1359,-2.0096,-1.8942,-1.875,-1.8437,-1.7768,-1.6575,-1.6178,-1.5759,-1.5158,-1.4963,-1.4871,-1.4871,-1.4397,-1.3785,-1.3077,-1.253,-1.1731,-1.0548,-1.0097,-1.0104,-1.0653,-1.1228,-1.1821,-1.2404,-1.2351,-1.2246,-1.2077,-1.1452,-1.1061,-1.0891,-1.0756,-1.0448,-0.998,-0.9686,-0.9288,-0.8822,-0.8895,-0.9188,-0.9684,-0.9943,-0.9893,-0.9644,-0.9585,-0.9076,-0.8437,-0.8307,-0.8248,-0.8248,-0.841,-0.8489,-0.8468,-0.8196,-0.7765,-0.723,-0.6475,-0.5937,-0.5474,-0.5253,-0.5409,-0.5636,-0.5932,-0.6172,-0.6327,-0.64,-0.642,-0.642,-0.642,-0.6218,-0.6083,-0.6083,-0.5881,-0.5617,-0.5282,-0.5219,-0.4957,-0.4359,-0.3959,-0.3558,-0.309,-0.2865,-0.2561,-0.2173,-0.2331,-0.2395,-0.2345,-0.24,-0.2511,-0.2511,-0.2511,-0.2431,-0.2353,-0.2353,-0.2353,-0.2277,-0.2433,-0.2431,-0.2353,-0.2353,-0.2372,-2.4571,-2.4128,0.0,-2.2842,-2.3029,0.0,-2.2787,-2.2893,-2.3098,-2.3206,-2.2467,-2.1672,-2.1032,-2.011,-1.927,-1.8676,-1.8333,-1.7827,-1.6866,-1.6185,-1.5534,-1.4914,-1.452,-1.4327,-1.4382,-1.4111,-1.3578,-1.2741,-1.2182,-1.1419,-1.0352,-1.0045,-1.0098,-1.0569,-1.1169,-1.1709,-1.2184,-1.2368,-1.2271,-1.1985,-1.1605,-1.1228,-1.0881,-1.0592,-1.0283,-0.998,-0.9457,-0.9047,-0.8683,-0.8561,-0.884,-0.9401,-0.9341,-0.902,-0.8633,-0.8769,-0.8172,-0.7423,-0.7716,-0.786,-0.7961,-0.8044,-0.8171,-0.8262,-0.7658,-0.7069,-0.648,-0.5828,-0.5281,-0.4849,-0.4919,-0.5155,-0.5432,-0.5599,-0.5894,-0.6125,-0.6221,-0.6203,-0.6214,-0.6083,-0.5815,-0.5547,-0.5481,-0.508,-0.4683,-0.4613,-0.4486,-0.4425,-0.4359,-0.3756,-0.3222,-0.2889,-0.2421,-0.2039,-0.1741,-0.1932,-0.2057,-0.211,-0.2315,-0.2426,-0.2433,-0.2433,-0.2354,-0.2196,-0.2196,-0.2041,-0.1887,-0.2277,-0.2353,-0.2196,-0.2196,-0.2041,-2.4277,-2.3652,-2.2969,-2.2817,-2.2428,0.0,-2.2475,-2.2133,-2.1926,-2.2522,-2.1405,-2.0349,-2.0489,-1.9412,-1.8446,-1.8372,-1.8135,-1.773,-1.7026,-1.6459,-1.5847,-1.5141,-1.4585,-1.4477,-1.4897,-1.4897,-1.4539,-1.3853,-1.2171,-1.1096,-1.0844,-1.0531,-1.0411,-1.0509,-1.1038,-1.1221,-1.0945,-1.1195,-1.1319,-1.1377,-1.1073,-1.0909,-1.0891,-1.0843,-1.0487,-0.998,-0.9677,-0.9191,-0.8675,-0.8488,-0.8528,-0.8692,-0.8864,-0.8562,-0.8072,-0.8165,-0.7765,-0.7291,-0.7666,-0.7759,-0.7733,-0.8163,-0.8277,-0.8109,-0.7503,-0.7015,-0.6372,-0.5234,-0.4739,-0.4657,-0.4894,-0.5006,-0.5133,-0.5423,-0.5647,-0.5646,-0.5095,-0.5065,-0.4948,-0.4345,-0.4945,-0.5348,-0.4686,-0.4486,-0.4151,-0.3413,-0.328,-0.3084,-0.269,-0.2555,-0.2354,-0.2153,-0.2018,-0.1887,-0.1626,-0.1739,-0.1787,-0.1761,-0.1881,-0.1925,-0.2042,-0.2043,-0.1964,-0.1964,-0.1964,-0.1964,-0.1887,-0.1964,-0.1964,-0.1964,-0.1964,-0.1964,-2.3788,-2.3299,-2.2765,-2.1976,-2.1786,0.0,0.0,-2.1666,-2.1845,-2.1766,-2.1276,-2.0662,-2.0161,-1.9324,-1.8628,-1.8309,-1.7935,-1.7545,-1.7143,-1.6711,-1.617,-1.5493,-1.4959,-1.4764,-1.5016,-1.4937,-1.4464,-1.3531,-1.2054,-1.1165,-1.1107,-1.0944,-1.0717,-1.0477,-1.1247,-1.1437,-1.0944,-1.146,-1.1616,-1.1511,-1.1174,-1.0964,-1.0833,-1.0564,-1.0293,-0.998,-0.9399,-0.899,-0.8675,-0.8488,-0.8332,-0.8216,-0.8303,-0.8067,-0.7629,-0.7627,-0.7372,-0.7042,-0.7364,-0.7542,-0.767,-0.7908,-0.7834,-0.7515,-0.6912,-0.6204,-0.5445,-0.4794,-0.4574,-0.4536,-0.4724,-0.4801,-0.4841,-0.4758,-0.4908,-0.4846,-0.4276,-0.4191,-0.4079,-0.3411,-0.3813,-0.4146,-0.3682,-0.342,-0.3088,-0.2618,-0.2484,-0.2283,-0.2085,-0.1951,-0.1817,-0.1614,-0.1614,-0.1547,-0.1345,-0.1449,-0.1551,-0.1571,-0.1707,-0.1829,-0.1851,-0.1875,-0.1887,-0.1729,-0.165,-0.1572,-0.1572,-0.1572,-0.165,-0.1729,-0.1729,-0.1729,-2.3553,-2.3117,-2.2613,-2.1378,-2.1234,-2.1245,0.0,0.0,0.0,-2.105,-2.1228,-2.109,-1.9807,-1.9395,-1.8958,-1.8232,-1.7774,-1.7393,-1.7144,-1.6821,-1.6428,-1.5821,-1.5337,-1.5069,-1.5171,-1.4838,-1.4188,-1.3077,-1.209,-1.148,-1.1368,-1.1325,-1.1131,-1.0706,-1.1531,-1.1757,-1.1302,-1.1822,-1.1928,-1.1628,-1.1276,-1.1029,-1.0784,-1.0283,-1.0019,-0.9932,-0.9128,-0.8756,-0.8643,-0.8488,-0.8209,-0.787,-0.7836,-0.7579,-0.7279,-0.7176,-0.6981,-0.6848,-0.7109,-0.7327,-0.7449,-0.7503,-0.7186,-0.6647,-0.6154,-0.5336,-0.4519,-0.4519,-0.4519,-0.4519,-0.4519,-0.4519,-0.4383,-0.4092,-0.4042,-0.3925,-0.3474,-0.3381,-0.3257,-0.2676,-0.2613,-0.2614,-0.2681,-0.2351,-0.2085,-0.2018,-0.1817,-0.1748,-0.1748,-0.1614,-0.1412,-0.1277,-0.1277,-0.121,-0.1076,-0.1236,-0.1324,-0.1331,-0.1539,-0.1659,-0.1666,-0.1785,-0.1729,-0.1572,-0.1415,-0.1335,-0.1335,-0.1335,-0.1415,-0.1572,-0.1572,-0.1415,-2.4214,-2.325,-2.2267,-2.2096,-2.1023,-2.0177,-2.0645,0.0,-2.0703,-2.0603,0.0,-2.0109,-1.9333,0.0,0.0,-1.7975,-1.7639,-1.7352,-1.685,-1.6519,-1.6225,-1.6006,-1.5453,-1.5286,-1.5741,-1.5142,-1.4425,-1.3814,-1.2623,-1.1915,-1.1915,-1.185,-1.1793,-1.1733,-1.1853,-1.1693,-1.1222,-1.099,-1.0939,-1.0998,-1.0671,-1.0621,-1.0784,-1.0438,-1.0118,-0.9785,-0.9328,-0.8886,-0.8521,-0.8455,-0.8209,-0.787,-0.7579,-0.7251,-0.6921,-0.6618,-0.6649,-0.6848,-0.7109,-0.7031,-0.6819,-0.7083,-0.6406,-0.55,-0.5441,-0.4952,-0.4519,-0.4519,-0.4519,-0.4519,-0.4519,-0.4125,-0.3741,-0.3644,-0.334,-0.2856,-0.2213,-0.2216,-0.2082,-0.1403,-0.1344,-0.1412,-0.168,-0.1681,-0.1547,-0.1277,-0.121,-0.121,-0.121,-0.1143,-0.1143,-0.1143,-0.1143,-0.1143,-0.1076,-0.1146,-0.1161,-0.1119,-0.1225,-0.1257,-0.1286,-0.1319,-0.1336,-0.1335,-0.1335,-0.1335,-0.1335,-0.1335,-0.1335,-0.1335,-0.1335,-0.1021,-2.386,-2.298,-2.2125,-2.1647,-2.069,-1.9944,-2.0131,-2.0385,-2.0421,-1.9721,0.0,0.0,0.0,0.0,0.0,0.0,-1.738,-1.7131,-1.6863,-1.6607,-1.6378,-1.6212,-1.5844,-1.5641,-1.5608,-1.5072,-1.4473,-1.389,-1.2983,-1.244,-1.2406,-1.2372,-1.2239,-1.1892,-1.2215,-1.2017,-1.1284,-1.119,-1.1064,-1.0919,-1.0558,-1.0495,-1.0659,-1.0205,-0.9922,-0.9776,-0.9159,-0.8765,-0.848,-0.8201,-0.7919,-0.7579,-0.7251,-0.7041,-0.6891,-0.6712,-0.6811,-0.7072,-0.734,-0.7195,-0.6844,-0.6234,-0.5714,-0.5222,-0.4952,-0.468,-0.4519,-0.4519,-0.4519,-0.4405,-0.4073,-0.3793,-0.3403,-0.2736,-0.2443,-0.2122,-0.1537,-0.147,-0.1457,-0.114,-0.1076,-0.1143,-0.1277,-0.1277,-0.1277,-0.1143,-0.1076,-0.1076,-0.1076,-0.1076,-0.1076,-0.1076,-0.1076,-0.1076,-0.1076,-0.1076,-0.1081,-0.1094,-0.1123,-0.1161,-0.121,-0.1224,-0.1084,-0.0707,-0.0707,-0.055,-0.0236,-0.0236,-0.0236,-0.0236,-0.0943,-0.0943,-2.3431,-2.2667,-2.1924,-2.147,-2.0694,-1.9965,-1.9807,-2.002,-2.0003,-1.9147,-1.9223,0.0,0.0,0.0,-1.776,-1.7434,0.0,-1.6921,-1.6693,-1.6436,-1.6293,-1.6312,-1.6064,-1.5755,-1.5423,-1.4877,-1.4292,-1.3708,-1.3056,-1.2591,-1.2413,-1.2484,-1.2354,-1.1973,-1.233,-1.2189,-1.1538,-1.1413,-1.118,-1.0916,-1.0534,-1.038,-1.038,-0.9922,-0.9646,-0.95,-0.891,-0.8561,-0.8439,-0.8077,-0.7704,-0.7384,-0.7128,-0.6946,-0.6885,-0.6828,-0.7018,-0.7334,-0.7327,-0.7037,-0.6426,-0.5391,-0.5062,-0.5007,-0.4625,-0.4519,-0.446,-0.4294,-0.4239,-0.4125,-0.3514,-0.3236,-0.2903,-0.2014,-0.1695,-0.1526,-0.111,-0.1028,-0.1067,-0.1074,-0.1076,-0.1076,-0.1076,-0.1076,-0.1076,-0.1076,-0.1076,-0.1076,-0.1076,-0.1076,-0.1076,-0.1076,-0.0941,-0.0874,-0.0874,-0.0739,-0.0674,-0.068,-0.0693,-0.0718,-0.0755,-0.0757,-0.0536,-0.0078,-0.0,0.0235,0.0706,0.0785,0.0785,0.0785,-0.0314,-0.0393,-2.3203,-2.2349,-2.1469,-2.209,-2.1124,-1.9999,-1.9999,-1.9561,-1.913,-1.9101,-1.8683,-1.8279,-1.8145,-1.8054,0.0,0.0,0.0,0.0,0.0,-1.5913,-1.5957,-1.6269,-1.5888,-1.5534,-1.5332,-1.4603,-1.3928,-1.347,-1.272,-1.2114,-1.1675,-1.1957,-1.2102,-1.209,-1.2102,-1.2102,-1.209,-1.1319,-1.0916,-1.0916,-1.0505,-1.0157,-0.9815,-0.9597,-0.927,-0.882,-0.8594,-0.848,-0.8373,-0.8036,-0.7704,-0.7405,-0.7304,-0.7103,-0.6799,-0.6805,-0.7133,-0.7482,-0.6934,-0.6144,-0.5281,-0.468,-0.4515,-0.4515,-0.4519,-0.4519,-0.4405,-0.3793,-0.3627,-0.3514,-0.2903,-0.2291,-0.1846,-0.179,-0.138,-0.0952,-0.0982,-0.1013,-0.1043,-0.107,-0.1076,-0.1076,-0.1076,-0.1076,-0.1076,-0.1076,-0.1076,-0.1076,-0.1076,-0.1076,-0.1076,-0.1076,-0.0605,-0.0336,-0.0336,0.0134,0.0476,0.0419,0.042,0.0431,0.0453,0.0454,0.046,0.0549,0.0784,0.0862,0.0862,0.1175,0.1254,0.1254,0.0785,0.0863,-2.2424,-2.1694,-2.1002,-2.1193,-2.0539,-1.9818,-1.9858,-1.9487,-1.9072,-1.8784,-1.8305,-1.7828,-1.7462,-1.731,0.0,0.0,0.0,0.0,0.0,-1.5085,-1.472,-1.4641,-1.5085,-1.5289,-1.504,-1.4549,-1.4141,-1.3874,-1.3234,-1.2611,-1.2086,-1.2179,-1.2072,-1.1712,-1.17,-1.159,-1.1292,-1.1029,-1.0601,-1.005,-0.9903,-0.9707,-0.9469,-0.9191,-0.8999,-0.8926,-0.8643,-0.8316,-0.8044,-0.7712,-0.737,-0.7068,-0.7014,-0.7007,-0.7091,-0.7261,-0.7195,-0.6905,-0.6057,-0.5554,-0.5226,-0.468,-0.4519,-0.4408,-0.4015,-0.3904,-0.3793,-0.3181,-0.3014,-0.2847,-0.2235,-0.1932,-0.1677,-0.1273,-0.1087,-0.0943,-0.1016,-0.1041,-0.1064,-0.1074,-0.0807,-0.0538,-0.0538,-0.0269,-0.0269,-0.1008,-0.0806,-0.0538,-0.0538,-0.0269,-0.0067,-0.0067,0.0134,0.0269,0.0403,0.0739,0.0877,0.0886,0.0886,0.0908,0.0956,0.0958,0.1203,0.1647,0.1725,0.196,0.2353,0.2431,0.251,0.251,0.2354,0.2196,-2.1532,-2.0884,-2.0291,-2.0511,-1.9873,-1.922,-1.9419,-1.8964,-1.8446,-1.8302,-1.7908,-1.7434,-1.6905,-1.6876,-1.6803,0.0,0.0,0.0,0.0,-1.4766,-1.4165,-1.3826,-1.4305,-1.4501,-1.4247,-1.3941,-1.3647,-1.3375,-1.2857,-1.2307,-1.1675,-1.1953,-1.1823,-1.1222,-1.1414,-1.1301,-1.0916,-1.0601,-1.0167,-0.9579,-0.9469,-0.927,-0.8999,-0.8829,-0.8675,-0.8529,-0.8365,-0.8077,-0.7704,-0.7377,-0.7143,-0.7054,-0.6978,-0.6967,-0.702,-0.7232,-0.6829,-0.6139,-0.5512,-0.5171,-0.4952,-0.4625,-0.4349,-0.4125,-0.3738,-0.3458,-0.3181,-0.2569,-0.2402,-0.2235,-0.1623,-0.1493,-0.1354,-0.1002,-0.0927,-0.0969,-0.0969,-0.1056,-0.1076,-0.1076,-0.0672,-0.0269,-0.0202,0.0269,0.0336,-0.0403,-0.0269,-0.0,0.0067,0.0403,0.0605,0.0739,0.0874,0.1143,0.1478,0.1612,0.1679,0.1679,0.1679,0.1722,0.1814,0.1818,0.2012,0.2508,0.2588,0.2823,0.3217,0.3295,0.3374,0.3374,0.3374,0.3137]},{"header":{"parameterUnit":"m.s-1","parameterCategory":1,"la1":30.6,"la2":29.2853,"lo1":-89.7004,"lo2":-87.6739,"dy":0.0162,"dx":0.0183,"nx":112,"ny":82,"refTime":"2026-03-20T12:00:00:Z","depth":0,"parameterNumber":3,"parameterNumberName":"V-component_of_WINDS"},"data":[0.0,0.0,0.0,0.0,0.0,0.0,0.0,0.0,0.0,0.0,0.0,0.0,0.0,0.0,0.0,0.0,0.0,0.0,0.0,0.0,0.0,0.0,0.0,0.0,0.0,0.0,0.0,0.0,0.0,0.0,0.0,0.0,0.0,0.0,0.0,0.0,0.0,0.0,0.0,0.0,0.0,0.0,0.0,0.0,0.0,0.0,0.0,0.0,0.0,0.0,0.0,0.0,0.0,0.0,0.0,0.0,0.0,0.0,0.0,0.0,0.0,0.0,0.0,0.0,0.0,0.0,0.0,0.0,0.0,0.0,0.0,0.0,0.0,0.0,0.0,0.0,0.0,0.0,0.0,0.0,0.0,0.0,0.0,0.0,0.0,0.0,0.0,0.0,0.0,0.0,-3.3062,-3.2225,-3.1764,-3.1723,-3.2403,-3.2464,-3.2554,-3.2747,0.0,0.0,0.0,0.0,0.0,0.0,0.0,0.0,0.0,0.0,0.0,0.0,0.0,0.0,0.0,0.0,0.0,0.0,0.0,0.0,0.0,0.0,0.0,0.0,0.0,0.0,0.0,0.0,0.0,0.0,0.0,0.0,0.0,0.0,0.0,0.0,0.0,0.0,0.0,0.0,0.0,0.0,0.0,0.0,0.0,0.0,0.0,0.0,0.0,0.0,0.0,0.0,0.0,0.0,0.0,0.0,0.0,0.0,0.0,0.0,0.0,0.0,0.0,0.0,0.0,0.0,0.0,0.0,0.0,0.0,0.0,0.0,0.0,0.0,0.0,0.0,0.0,0.0,0.0,0.0,0.0,0.0,0.0,0.0,0.0,0.0,0.0,0.0,0.0,0.0,0.0,0.0,0.0,0.0,0.0,0.0,0.0,0.0,0.0,0.0,0.0,0.0,0.0,0.0,-3.2377,-3.1609,-3.1325,-3.1254,-3.1193,-3.1267,-3.1461,-3.1772,0.0,0.0,0.0,0.0,0.0,0.0,0.0,0.0,0.0,0.0,0.0,0.0,0.0,0.0,0.0,0.0,0.0,0.0,0.0,0.0,0.0,0.0,0.0,0.0,0.0,0.0,0.0,0.0,0.0,0.0,0.0,0.0,0.0,0.0,0.0,0.0,0.0,0.0,0.0,0.0,0.0,0.0,0.0,0.0,0.0,0.0,0.0,0.0,0.0,0.0,0.0,0.0,0.0,0.0,0.0,0.0,0.0,0.0,0.0,0.0,0.0,0.0,0.0,0.0,0.0,0.0,0.0,0.0,0.0,0.0,0.0,0.0,0.0,0.0,0.0,0.0,0.0,0.0,0.0,0.0,0.0,0.0,0.0,0.0,0.0,0.0,0.0,0.0,0.0,0.0,0.0,0.0,0.0,0.0,0.0,0.0,0.0,0.0,0.0,0.0,0.0,0.0,0.0,-3.2229,-3.1482,-3.1844,-3.1048,-3.0771,-3.1489,-3.1613,-3.1778,-3.2076,-3.2596,0.0,0.0,0.0,0.0,0.0,0.0,0.0,0.0,0.0,0.0,0.0,0.0,0.0,0.0,0.0,0.0,0.0,0.0,0.0,0.0,0.0,0.0,0.0,0.0,0.0,0.0,0.0,0.0,0.0,0.0,0.0,0.0,0.0,0.0,0.0,0.0,0.0,0.0,0.0,0.0,0.0,0.0,0.0,0.0,0.0,0.0,0.0,0.0,0.0,0.0,0.0,0.0,0.0,0.0,0.0,0.0,0.0,0.0,0.0,0.0,0.0,0.0,0.0,0.0,0.0,0.0,0.0,0.0,0.0,0.0,0.0,0.0,0.0,0.0,0.0,0.0,0.0,0.0,0.0,0.0,0.0,0.0,0.0,0.0,0.0,0.0,0.0,0.0,0.0,0.0,0.0,0.0,0.0,0.0,0.0,0.0,0.0,0.0,0.0,0.0,0.0,0.0,-3.1983,-3.1144,-3.2283,-3.1071,-3.0735,-3.2087,-3.2096,-3.2139,-3.2392,-3.2416,0.0,0.0,0.0,0.0,0.0,0.0,0.0,0.0,0.0,0.0,0.0,0.0,0.0,0.0,0.0,0.0,0.0,0.0,0.0,0.0,0.0,0.0,0.0,0.0,0.0,0.0,0.0,0.0,0.0,0.0,0.0,0.0,0.0,0.0,0.0,0.0,0.0,0.0,0.0,0.0,0.0,0.0,0.0,0.0,0.0,0.0,0.0,0.0,0.0,0.0,0.0,0.0,0.0,0.0,0.0,0.0,0.0,0.0,0.0,0.0,0.0,0.0,0.0,0.0,0.0,0.0,0.0,0.0,0.0,0.0,0.0,0.0,0.0,0.0,0.0,0.0,0.0,0.0,0.0,0.0,0.0,0.0,0.0,0.0,0.0,0.0,0.0,0.0,0.0,0.0,0.0,0.0,0.0,0.0,0.0,0.0,0.0,0.0,0.0,0.0,0.0,0.0,-3.2055,-3.1797,-3.2566,-3.1882,-3.1663,-3.2345,-3.2011,-3.19,-3.222,-3.1792,0.0,0.0,0.0,0.0,0.0,0.0,0.0,0.0,0.0,0.0,0.0,0.0,0.0,0.0,0.0,0.0,0.0,0.0,0.0,0.0,0.0,0.0,0.0,0.0,0.0,0.0,0.0,0.0,0.0,0.0,0.0,0.0,0.0,0.0,0.0,0.0,0.0,0.0,0.0,0.0,0.0,0.0,0.0,0.0,0.0,0.0,0.0,0.0,0.0,0.0,0.0,0.0,0.0,0.0,0.0,0.0,0.0,0.0,0.0,0.0,0.0,0.0,0.0,0.0,0.0,0.0,0.0,0.0,0.0,0.0,0.0,0.0,0.0,0.0,0.0,0.0,0.0,0.0,0.0,0.0,0.0,0.0,0.0,0.0,0.0,0.0,0.0,0.0,0.0,0.0,0.0,0.0,0.0,0.0,0.0,0.0,0.0,0.0,0.0,0.0,0.0,0.0,-3.1823,-3.1623,-3.2566,-3.1955,-3.1809,-3.2561,-3.2553,-3.2414,-3.2184,0.0,0.0,0.0,0.0,0.0,0.0,0.0,0.0,0.0,0.0,0.0,0.0,0.0,0.0,0.0,0.0,0.0,0.0,0.0,0.0,0.0,0.0,0.0,0.0,0.0,0.0,0.0,0.0,0.0,0.0,0.0,0.0,0.0,0.0,0.0,0.0,0.0,0.0,0.0,0.0,0.0,0.0,0.0,0.0,0.0,0.0,0.0,0.0,0.0,0.0,0.0,0.0,0.0,0.0,0.0,0.0,0.0,0.0,0.0,0.0,0.0,0.0,0.0,0.0,0.0,0.0,0.0,0.0,0.0,0.0,0.0,0.0,0.0,0.0,0.0,0.0,0.0,0.0,0.0,0.0,0.0,0.0,0.0,0.0,0.0,0.0,0.0,0.0,0.0,0.0,0.0,0.0,0.0,0.0,0.0,0.0,0.0,0.0,0.0,0.0,0.0,0.0,-3.2373,-3.1838,-3.1839,-3.2792,-3.2403,-3.2259,-3.2761,-3.2807,-3.2607,-3.2119,0.0,0.0,0.0,0.0,0.0,0.0,0.0,0.0,0.0,0.0,0.0,0.0,0.0,0.0,0.0,0.0,0.0,0.0,0.0,0.0,0.0,0.0,0.0,0.0,0.0,0.0,0.0,0.0,0.0,0.0,0.0,0.0,0.0,0.0,0.0,0.0,0.0,0.0,0.0,0.0,0.0,0.0,0.0,0.0,0.0,0.0,0.0,0.0,0.0,0.0,0.0,0.0,0.0,0.0,0.0,0.0,0.0,0.0,0.0,0.0,0.0,0.0,0.0,0.0,0.0,0.0,0.0,0.0,0.0,0.0,0.0,0.0,0.0,0.0,0.0,0.0,0.0,0.0,0.0,0.0,0.0,0.0,0.0,0.0,0.0,0.0,0.0,0.0,0.0,0.0,0.0,0.0,0.0,0.0,0.0,0.0,0.0,0.0,0.0,0.0,0.0,0.0,-3.211,-3.2191,-3.2482,-3.3255,-3.3326,-3.3241,-3.2974,-3.2569,-3.2171,0.0,0.0,0.0,0.0,0.0,0.0,0.0,0.0,0.0,0.0,0.0,0.0,0.0,0.0,0.0,0.0,0.0,0.0,0.0,0.0,0.0,0.0,0.0,0.0,0.0,0.0,0.0,0.0,0.0,0.0,0.0,0.0,0.0,0.0,0.0,0.0,0.0,0.0,0.0,0.0,0.0,0.0,0.0,0.0,0.0,0.0,0.0,0.0,0.0,0.0,0.0,0.0,0.0,0.0,0.0,0.0,0.0,0.0,0.0,0.0,0.0,0.0,0.0,0.0,0.0,0.0,0.0,0.0,0.0,0.0,0.0,0.0,0.0,0.0,0.0,0.0,0.0,0.0,0.0,0.0,0.0,0.0,0.0,0.0,0.0,0.0,0.0,0.0,0.0,0.0,0.0,0.0,0.0,0.0,0.0,0.0,0.0,0.0,0.0,0.0,0.0,0.0,0.0,-3.1246,-3.1952,-3.2684,-3.3227,-3.3326,-3.3073,-3.2624,-3.2959,-3.2404,-3.0566,0.0,0.0,0.0,0.0,0.0,0.0,0.0,0.0,0.0,0.0,0.0,0.0,0.0,0.0,0.0,0.0,0.0,0.0,0.0,0.0,0.0,0.0,0.0,0.0,0.0,0.0,0.0,0.0,0.0,0.0,0.0,0.0,0.0,0.0,0.0,0.0,0.0,0.0,0.0,0.0,0.0,0.0,0.0,0.0,0.0,0.0,0.0,0.0,0.0,0.0,0.0,0.0,0.0,0.0,0.0,0.0,0.0,0.0,0.0,0.0,0.0,0.0,0.0,0.0,0.0,0.0,0.0,0.0,0.0,0.0,0.0,0.0,0.0,0.0,0.0,0.0,0.0,0.0,0.0,0.0,0.0,0.0,0.0,0.0,0.0,0.0,0.0,0.0,0.0,0.0,0.0,0.0,0.0,0.0,0.0,0.0,0.0,0.0,0.0,0.0,0.0,0.0,-3.0492,-3.1494,-3.2348,-3.2553,-3.2595,-3.244,-3.2075,-3.252,-3.2103,-3.0554,0.0,0.0,0.0,0.0,0.0,0.0,0.0,0.0,0.0,0.0,0.0,0.0,0.0,0.0,0.0,0.0,0.0,0.0,0.0,0.0,0.0,0.0,0.0,0.0,0.0,0.0,0.0,0.0,0.0,0.0,0.0,0.0,0.0,0.0,0.0,0.0,0.0,0.0,0.0,0.0,0.0,0.0,0.0,0.0,0.0,0.0,0.0,0.0,0.0,0.0,0.0,0.0,0.0,0.0,0.0,0.0,0.0,0.0,0.0,0.0,0.0,0.0,0.0,0.0,0.0,0.0,0.0,0.0,0.0,0.0,0.0,0.0,0.0,0.0,0.0,0.0,0.0,0.0,0.0,0.0,0.0,0.0,0.0,0.0,0.0,0.0,0.0,0.0,0.0,0.0,0.0,0.0,0.0,0.0,0.0,0.0,0.0,0.0,0.0,0.0,0.0,0.0,-2.9836,-3.0942,-3.1726,-3.1499,-3.1551,-3.1523,-3.1467,-3.1589,-3.1539,-3.138,0.0,0.0,0.0,0.0,0.0,0.0,0.0,0.0,0.0,0.0,0.0,0.0,0.0,0.0,0.0,0.0,0.0,0.0,0.0,0.0,0.0,0.0,0.0,0.0,0.0,0.0,0.0,0.0,0.0,0.0,0.0,0.0,0.0,0.0,0.0,0.0,0.0,0.0,0.0,0.0,0.0,0.0,0.0,0.0,0.0,0.0,0.0,0.0,0.0,0.0,0.0,0.0,0.0,0.0,0.0,0.0,0.0,0.0,0.0,0.0,-3.0508,-3.1072,0.0,0.0,0.0,0.0,0.0,0.0,0.0,0.0,0.0,0.0,0.0,0.0,0.0,0.0,0.0,0.0,0.0,0.0,0.0,0.0,0.0,0.0,0.0,0.0,0.0,0.0,0.0,0.0,0.0,0.0,0.0,0.0,0.0,0.0,0.0,0.0,0.0,0.0,0.0,0.0,-2.9561,-3.1069,-3.2086,-3.1541,-3.1801,-3.1847,-3.1332,-3.2066,-3.1973,-3.047,-3.0895,0.0,0.0,0.0,0.0,0.0,0.0,0.0,0.0,0.0,0.0,0.0,0.0,0.0,0.0,0.0,0.0,0.0,0.0,0.0,0.0,0.0,0.0,0.0,0.0,0.0,0.0,0.0,0.0,0.0,0.0,0.0,0.0,0.0,0.0,0.0,0.0,0.0,0.0,0.0,0.0,0.0,0.0,0.0,0.0,0.0,0.0,0.0,0.0,0.0,0.0,0.0,0.0,0.0,0.0,0.0,0.0,0.0,0.0,0.0,-3.0216,-3.076,0.0,0.0,0.0,0.0,0.0,0.0,0.0,0.0,0.0,0.0,0.0,0.0,0.0,0.0,0.0,0.0,0.0,0.0,0.0,0.0,0.0,0.0,0.0,0.0,0.0,0.0,0.0,0.0,0.0,0.0,0.0,0.0,0.0,0.0,0.0,0.0,0.0,0.0,0.0,0.0,-2.9347,-3.0935,-3.1961,-3.1329,-3.1507,-3.1486,-3.1137,-3.1672,-3.1663,-3.0989,-3.1072,0.0,0.0,0.0,0.0,0.0,0.0,0.0,0.0,0.0,0.0,0.0,0.0,0.0,0.0,0.0,0.0,0.0,0.0,0.0,0.0,0.0,0.0,0.0,0.0,0.0,0.0,0.0,0.0,0.0,0.0,0.0,0.0,0.0,0.0,0.0,0.0,0.0,0.0,0.0,0.0,0.0,0.0,0.0,0.0,0.0,0.0,0.0,0.0,0.0,0.0,0.0,0.0,0.0,-2.8797,-2.8872,-2.9504,-2.9814,-2.9772,-2.9549,-2.9723,-3.0219,-3.09,-3.1315,0.0,0.0,0.0,0.0,0.0,0.0,0.0,0.0,0.0,0.0,0.0,0.0,0.0,0.0,0.0,0.0,0.0,0.0,0.0,0.0,0.0,0.0,-3.4235,-3.4118,-3.368,-3.3145,-3.264,0.0,0.0,0.0,0.0,0.0,0.0,0.0,0.0,0.0,0.0,0.0,-2.95,-3.0852,-3.1676,-3.1028,-3.1087,-3.1146,-3.1146,-3.1204,-3.148,-3.1936,-3.1424,-3.1466,0.0,0.0,0.0,0.0,0.0,0.0,0.0,0.0,0.0,0.0,0.0,0.0,0.0,0.0,0.0,0.0,0.0,0.0,0.0,0.0,0.0,0.0,0.0,0.0,0.0,0.0,0.0,0.0,0.0,0.0,0.0,0.0,-3.2241,-3.1314,0.0,0.0,0.0,0.0,0.0,0.0,0.0,0.0,0.0,0.0,0.0,0.0,0.0,-2.811,-2.7549,-2.8498,-2.9029,-2.9115,-2.907,-2.9354,-2.9968,-2.9483,-2.9525,-3.0025,-3.0568,0.0,-3.0526,-3.2113,0.0,0.0,0.0,0.0,0.0,0.0,0.0,0.0,0.0,0.0,0.0,0.0,0.0,0.0,0.0,0.0,0.0,0.0,0.0,0.0,0.0,0.0,-3.488,-3.4246,-3.4036,-3.3939,-3.3891,-3.287,-3.1932,-3.1693,-3.139,-3.1049,0.0,0.0,0.0,0.0,0.0,0.0,-3.0513,-3.1308,-3.1676,-3.1028,-3.1379,-3.1625,-3.1625,-3.2007,-3.2272,-3.2342,-3.1913,-3.207,-3.2945,-3.1992,0.0,0.0,0.0,0.0,0.0,0.0,0.0,0.0,0.0,0.0,0.0,0.0,0.0,0.0,0.0,0.0,0.0,0.0,0.0,0.0,0.0,0.0,0.0,0.0,0.0,0.0,0.0,0.0,0.0,-3.117,-3.0947,-2.9546,-2.9828,-2.9485,0.0,0.0,0.0,0.0,0.0,0.0,0.0,0.0,0.0,-2.8297,-2.8583,-2.8768,-2.8868,-2.904,-2.9311,-2.9683,-2.9206,-2.9302,-2.9884,-2.9553,-2.9582,-3.0003,-3.0643,-3.113,-3.1586,-3.199,-3.2464,-3.2895,0.0,0.0,0.0,0.0,-3.3848,-3.4097,-3.4926,-3.4781,-3.4311,-3.4603,0.0,0.0,0.0,0.0,0.0,0.0,0.0,-3.4586,-3.4683,-3.4635,-3.4586,-3.4683,-3.4392,-3.4101,-3.4101,-3.3516,-3.277,-3.2187,-3.1808,-3.1236,-3.0285,-3.0021,0.0,0.0,0.0,-3.1058,-3.1058,-3.1728,-3.2083,-3.1796,-3.1992,-3.212,-3.212,-3.2287,-3.2453,-3.2648,-3.2547,-3.2886,-3.4006,-3.3208,-3.2882,0.0,0.0,0.0,0.0,0.0,0.0,0.0,0.0,0.0,0.0,0.0,0.0,0.0,0.0,0.0,0.0,0.0,0.0,0.0,0.0,0.0,0.0,0.0,0.0,0.0,0.0,0.0,0.0,-3.0389,-3.0054,-2.851,-2.8936,-2.8755,0.0,0.0,0.0,0.0,0.0,0.0,-2.8295,-2.7897,-2.8068,-2.8993,-2.9177,-2.9419,-2.9746,-2.9434,-2.9505,-2.9974,-2.9397,-2.9336,-2.9761,-2.982,-2.989,-3.0043,-3.0849,-3.1752,-3.2672,-3.2379,-3.2661,-3.3211,-3.2916,-3.2967,-3.3309,-3.3555,-3.3761,-3.3995,-3.4875,-3.5056,-3.4926,-3.5121,-3.5056,-3.47,-3.3663,0.0,0.0,0.0,0.0,-3.423,-3.4764,-3.4505,-3.423,-3.4729,-3.4387,-3.4,-3.3899,-3.3694,-3.3292,-3.2732,-3.2311,-3.1669,-3.0454,-3.0458,0.0,-3.0228,-3.0859,-3.1443,-3.1613,-3.2074,-3.2398,-3.2398,-3.2398,-3.2398,-3.2398,-3.2453,-3.2578,-3.2843,-3.2951,-3.3518,-3.4681,-3.4306,-3.4121,-3.4376,0.0,0.0,0.0,0.0,0.0,0.0,0.0,0.0,0.0,0.0,0.0,0.0,0.0,0.0,0.0,0.0,0.0,0.0,0.0,0.0,0.0,0.0,0.0,0.0,0.0,0.0,0.0,0.0,0.0,-2.963,-2.9139,0.0,0.0,0.0,0.0,-2.6989,-2.7046,-2.7513,-2.8637,-2.8679,-2.8693,-2.875,-2.9251,-2.9293,-2.8806,-2.9293,-2.9574,-2.9602,-2.9574,-2.9574,-2.9617,-3.0207,-3.0474,-3.0544,-3.178,-3.2638,-3.3223,-3.3987,-3.4061,-3.3733,-3.4493,-3.4076,-3.315,-3.3398,-3.3658,-3.3995,-3.4875,-3.4732,-3.4262,-3.4959,-3.4716,-3.4133,-3.4068,-3.4052,0.0,0.0,-3.4101,-3.4117,-3.4149,-3.4133,-3.4066,-3.3845,-3.3726,-3.3642,-3.3414,-3.3096,-3.3043,-3.3351,-3.3102,-3.2765,-3.2509,0.0,-3.1536,-3.2151,-3.1751,-3.1613,-3.2259,-3.2367,-3.2398,-3.2398,-3.2398,-3.2398,-3.2398,-3.2523,-3.2594,-3.2594,-3.3027,-3.3678,-3.459,-3.484,-3.5017,-3.5121,-3.4376,0.0,0.0,0.0,0.0,0.0,0.0,0.0,0.0,0.0,0.0,0.0,0.0,0.0,0.0,0.0,0.0,0.0,0.0,0.0,0.0,0.0,0.0,0.0,0.0,0.0,0.0,0.0,0.0,-2.8532,-2.9181,0.0,-2.8068,-2.8383,-2.8479,-2.8088,-2.8088,-2.8454,-2.9237,-2.89,-2.8872,-2.9265,-2.949,-2.9504,-2.9279,-2.949,-2.9602,-2.9602,-2.9602,-2.9813,-3.0207,-3.0417,-3.0755,-3.119,-3.2033,-3.2738,-3.3287,-3.4324,-3.461,-3.4348,-3.4639,-3.4556,-3.4288,-3.4691,-3.4962,-3.5145,-3.5198,-3.5007,-3.4845,-3.5088,-3.5007,-3.4797,-3.4797,-3.4473,-3.4101,-3.4101,-3.4101,-3.4101,-3.4101,-3.4101,-3.405,-3.3848,-3.3745,-3.3642,-3.345,-3.315,-3.2951,-3.3112,-3.2812,-3.2439,-3.1936,-3.1959,-3.1967,-3.1782,-3.1905,-3.2121,-3.2367,-3.2398,-3.2398,-3.2398,-3.2398,-3.2453,-3.2523,-3.2578,-3.2757,-3.3027,-3.3666,-3.4435,-3.5428,-3.6033,-3.64,-3.6562,-3.5866,-3.4637,0.0,0.0,0.0,0.0,0.0,0.0,0.0,0.0,0.0,0.0,0.0,0.0,0.0,0.0,0.0,0.0,0.0,0.0,0.0,0.0,0.0,0.0,0.0,0.0,0.0,-3.0052,-3.002,-2.8487,-2.9175,-2.9361,-2.8283,-2.8822,-2.9114,-2.8703,-2.8886,-2.9265,-2.9883,-2.9743,-2.9827,-3.0235,-3.0024,-2.9912,-2.9912,-2.9912,-2.9912,-2.9912,-2.9912,-3.0122,-3.053,-3.074,-3.1078,-3.1527,-3.2356,-3.3036,-3.359,-3.4515,-3.4951,-3.5027,-3.5,-3.4938,-3.4966,-3.5379,-3.5657,-3.571,-3.5324,-3.5185,-3.5137,-3.4894,-3.4813,-3.4813,-3.4813,-3.4489,-3.4101,-3.4101,-3.4101,-3.4101,-3.4101,-3.4101,-3.405,-3.3848,-3.3745,-3.3555,-3.3361,-3.3112,-3.2897,-3.2843,-3.2578,-3.2259,-3.1797,-3.209,-3.2244,-3.1782,-3.2105,-3.2398,-3.2398,-3.2398,-3.2398,-3.2398,-3.2453,-3.2523,-3.2578,-3.2757,-3.2973,-3.3309,-3.3895,-3.4553,-3.5251,-3.6045,-3.6486,-3.6594,-3.6176,-3.5169,-3.368,0.0,0.0,0.0,0.0,0.0,0.0,0.0,0.0,0.0,0.0,0.0,0.0,0.0,0.0,0.0,0.0,0.0,0.0,0.0,0.0,0.0,0.0,0.0,-3.0432,-3.051,-3.0236,-2.9653,-2.9102,-2.8626,-2.8312,-2.8268,-2.8409,-2.8675,-2.9265,-2.9869,-3.0459,-3.1092,-3.1429,-3.1429,-3.0825,-3.0488,-3.0488,-3.0488,-3.0488,-3.0488,-3.0488,-3.0502,-3.0544,-3.1176,-3.1471,-3.1555,-3.275,-3.352,-3.4095,-3.4618,-3.516,-3.5631,-3.5554,-3.5344,-3.5029,-3.5313,-3.5617,-3.5748,-3.5324,-3.5169,-3.5024,-3.4327,-3.4101,-3.4101,-3.4101,-3.4101,-3.4101,-3.4101,-3.4101,-3.4101,-3.4101,-3.4101,-3.405,-3.3745,-3.3591,-3.3398,-3.3005,-3.2912,-3.2843,-3.2648,-3.2523,-3.2398,-3.2398,-3.2398,-3.2398,-3.2398,-3.2398,0.0,-3.2398,-3.2398,-3.2398,-3.2398,-3.2523,-3.2594,-3.2648,-3.3027,-3.3309,-3.3309,-3.3726,-3.3931,-3.3931,-3.4778,-3.5218,-3.527,-3.5215,-3.5071,-3.4831,0.0,0.0,0.0,0.0,0.0,0.0,0.0,0.0,0.0,0.0,0.0,0.0,0.0,0.0,0.0,0.0,0.0,0.0,0.0,0.0,0.0,-2.8949,-2.9496,-3.0529,-3.0201,-2.9783,-2.9595,-2.9649,-2.9657,-2.9597,-2.9341,-2.9228,-2.935,-2.9518,-2.9673,-2.9855,-3.0024,-3.0122,-3.0122,-2.9954,-2.9855,-2.9855,-2.9855,-2.9855,-2.9855,-2.9855,-3.0094,-3.053,-3.0712,-3.105,-3.1513,-3.185,-3.2058,-3.2231,-3.2927,-3.3441,-3.4083,-3.5891,-3.6549,-3.6419,-3.6499,-3.5989,-3.534,-3.525,-3.4845,-3.436,-3.4165,-3.4101,-3.4101,-3.4101,-3.4101,-3.4101,-3.4101,-3.4101,-3.4101,-3.4101,-3.4101,-3.405,-3.3899,-3.3745,-3.3555,-3.3256,-3.3096,-3.3058,-3.2989,-3.2881,-3.2718,-3.2578,-3.2523,-3.2523,-3.2523,-3.2648,-3.2773,-3.2773,-3.2773,-3.2718,-3.2578,-3.2718,-3.2827,-3.2935,-3.315,-3.3398,-3.371,-3.4346,-3.4723,-3.4843,-3.5606,-3.6121,-3.6331,-3.5671,-3.5425,0.0,0.0,0.0,0.0,0.0,0.0,0.0,0.0,0.0,0.0,0.0,0.0,0.0,0.0,0.0,0.0,0.0,0.0,0.0,0.0,0.0,0.0,-2.9383,-2.9896,-3.0931,-3.0456,-2.9982,-3.0002,-3.011,-3.0158,-3.0111,-2.9851,-2.9651,-2.9602,-2.9841,-2.9996,-2.9996,-3.0249,-3.0403,-3.0403,-3.0136,-2.9996,-2.9996,-2.9996,-2.9996,-2.9996,-2.9996,-3.0178,-3.053,-3.053,-3.0726,-3.1106,-3.1373,-3.1485,-3.1551,-3.2227,-3.266,-3.3111,0.0,0.0,0.0,0.0,-3.6136,-3.5606,-3.5299,-3.491,-3.4505,-3.4198,-3.4101,-3.4101,-3.4101,-3.4101,-3.4101,-3.4101,-3.4101,-3.4101,-3.4101,-3.4101,-3.4101,-3.4,-3.3899,-3.3761,-3.3503,-3.3398,-3.3346,-3.3309,-3.3203,0.0,-3.3027,-3.2812,-3.2773,-3.2812,-3.2881,-3.3005,-3.3058,-3.3058,-3.2989,-3.2827,-3.2935,-3.3096,-3.3203,-3.3346,0.0,0.0,0.0,-3.4681,-3.4732,-3.5307,0.0,0.0,0.0,0.0,0.0,0.0,0.0,0.0,-3.6317,-3.6408,0.0,0.0,0.0,0.0,0.0,0.0,0.0,0.0,0.0,0.0,0.0,0.0,0.0,0.0,0.0,0.0,-2.99,-2.9977,-3.1394,-3.0837,-3.0359,-3.06,-3.0447,-3.0266,-3.0111,-2.9898,-2.9761,-2.9602,-3.0122,-3.0417,-3.0417,-3.0965,0.0,0.0,0.0,-3.0417,-3.0417,-3.0417,-3.0417,-3.0417,-3.0417,-3.0417,-3.0417,-3.0417,-3.0417,-3.0445,-3.1021,-3.134,-3.134,-3.2011,-3.2315,-3.2566,-3.3774,-3.4674,-3.5276,-3.5748,-3.5948,-3.5963,-3.5283,0.0,0.0,-3.4311,-3.4101,-3.4101,-3.4101,-3.4101,-3.4101,-3.4101,-3.4101,-3.4101,-3.4101,-3.4101,-3.4101,-3.4101,-3.4,-3.3899,-3.3745,-3.3694,-3.371,-3.3555,-3.3555,-3.3555,-3.3555,-3.3203,-3.3005,-3.3096,-3.315,-3.3203,-3.3361,-3.3361,-3.3309,-3.315,-3.3256,0.0,-3.3361,-3.3607,-3.3797,-3.3899,-3.405,-3.4101,-3.4151,-3.4546,-3.4913,-3.527,-3.5732,-3.6266,-3.6811,-3.697,-3.7584,-3.861,-3.697,-3.7002,0.0,0.0,0.0,0.0,0.0,0.0,0.0,0.0,0.0,0.0,0.0,0.0,0.0,0.0,0.0,-2.9582,-2.9195,-2.9356,-3.0627,-2.9793,-2.9448,-3.0497,-3.0447,-3.0266,-3.0111,-2.9898,-2.9761,-2.9602,-2.9715,-2.9785,-2.9785,-2.9897,-2.9968,-2.9968,-2.9841,-2.9785,-2.9785,-2.9785,-2.9785,-2.9785,-2.9785,0.0,-2.9785,-2.9785,-2.9785,-2.9785,-3.0023,-3.0128,-3.0191,-3.0563,-3.1218,-3.2191,-3.3956,-3.4679,-3.4851,-3.5096,-3.4884,-3.4505,-3.436,-3.4311,-3.4279,-3.4149,-3.4101,-3.4101,-3.4101,-3.4101,0.0,-3.4101,-3.4101,-3.4101,-3.4101,-3.4101,-3.4101,-3.4101,-3.4101,-3.4,-3.3899,-3.3848,-3.3848,-3.3848,-3.3761,-3.371,-3.3797,-3.3607,-3.3398,-3.3398,-3.3503,-3.3607,-3.3607,-3.3607,-3.3555,-3.345,-3.3555,-3.3607,-3.3607,-3.3745,-3.3899,-3.405,-3.4101,-3.425,-3.4546,-3.4913,-3.5299,-3.5776,-3.6259,-3.6667,-3.6948,-3.7143,-3.8022,-3.9544,-3.8486,-3.85,0.0,0.0,0.0,0.0,0.0,0.0,0.0,0.0,0.0,0.0,0.0,-2.808,-2.8754,0.0,-2.9533,-2.9897,-2.956,-2.9467,-3.0005,-2.9619,-2.9609,-3.0511,-3.0447,-3.0266,-3.0219,-2.9946,-2.9747,-2.9713,-2.9665,-2.9602,-2.9602,-2.9602,-2.9602,-2.9602,-2.9602,-2.9602,-2.9602,-2.9602,-2.9602,-2.9602,-2.9602,-2.9602,-2.9602,-2.9651,-2.9713,-2.9713,-2.9898,-2.996,-2.996,-3.019,-3.0792,-3.1727,-3.2909,-3.3756,-3.4222,-3.4446,-3.4374,-3.4101,-3.4101,-3.4101,-3.4101,-3.4101,-3.4101,-3.4101,-3.4101,-3.4101,-3.4101,-3.4101,-3.4101,-3.4101,-3.4101,-3.4101,-3.4101,-3.4101,-3.4101,-3.4101,-3.4,-3.4,-3.4,-3.4,-3.3949,-3.3899,-3.4,-3.3899,-3.3797,-3.3694,-3.3745,-3.3797,-3.3899,-3.3899,-3.3848,-3.3694,-3.3745,-3.3797,-3.3797,-3.3899,-3.405,-3.4101,-3.4101,-3.43,-3.4691,-3.5085,-3.5464,-3.589,-3.6509,-3.6908,-3.7048,-3.7686,-3.8599,-3.9854,-3.9815,-4.0202,0.0,0.0,0.0,0.0,0.0,0.0,0.0,0.0,-2.8375,-2.9746,-2.8929,-2.8296,-2.9417,-2.9632,-2.9831,-3.0427,-3.0023,-2.964,-2.9619,-2.9507,-2.9637,-3.0191,-3.0303,-3.0326,-3.0312,-3.0068,-2.9884,-2.9884,-2.9789,-2.9665,-2.9665,-2.9665,-2.9665,-2.9665,-2.9665,-2.9665,-2.9665,-2.9602,-2.9602,-2.9602,-2.9602,-2.9665,-2.9665,-2.9775,-2.9884,-2.9884,-3.0036,-3.0172,-3.0233,-3.0387,-3.0851,-3.1437,-3.2033,-3.2857,-3.3761,-3.3949,-3.4101,-3.4101,-3.4101,-3.4101,-3.4101,-3.4101,-3.4101,-3.4101,-3.4101,-3.4101,-3.4101,-3.4101,-3.4101,-3.4101,-3.4101,-3.4101,-3.4101,-3.4101,-3.4101,-3.4101,-3.4101,-3.4101,-3.4101,-3.4101,-3.4101,-3.4101,-3.4101,-3.4101,-3.405,-3.3949,-3.3949,-3.4,-3.4101,-3.4101,-3.405,-3.3949,-3.3949,-3.3949,-3.3949,-3.405,-3.4101,-3.4101,-3.4101,-3.4333,-3.4835,-3.5207,-3.5644,-3.6079,-3.6713,-3.7048,-3.7147,-3.8135,-3.905,-3.9932,-4.0735,-4.152,-2.9365,-2.8484,-2.788,-2.8737,-2.8773,-2.8959,0.0,0.0,-3.0697,-3.1392,-3.0917,-3.0335,-3.0361,-3.0394,-3.0427,-3.051,-2.9637,-2.9171,-2.9526,-2.8763,-2.8309,-2.8868,-2.9885,-3.0507,-3.0312,-3.0251,-3.0205,-3.0111,-3.005,-2.9974,-2.9822,-2.9974,-2.9974,-2.9747,-2.9747,-2.9747,-2.9747,-2.9651,-2.9602,-2.9602,-2.9699,-2.9747,-2.9747,-2.9974,-3.005,-3.005,-3.0219,-3.0387,-3.0582,-3.0984,-3.1437,-3.1879,-3.2461,-3.314,-3.3694,-3.3848,-3.4,-3.4101,-3.4101,-3.4101,-3.4101,-3.4101,-3.4101,-3.4101,-3.4101,-3.4101,-3.4101,-3.4101,-3.4101,-3.4101,-3.4101,-3.4101,-3.4101,-3.4101,-3.4101,-3.4101,-3.4101,-3.4101,-3.4101,-3.4101,-3.4101,-3.4101,-3.4101,-3.4101,-3.4101,-3.4101,-3.4101,-3.4101,-3.4101,-3.4101,-3.4101,-3.4101,-3.4101,-3.4101,-3.4101,-3.4101,-3.4101,-3.4101,-3.4101,-3.4464,-3.5299,-3.5374,-3.5864,-3.6851,-3.697,-3.7126,-3.7392,-3.8173,-3.905,-3.9932,-4.0735,-4.152,-2.8896,-2.8558,-2.8433,0.0,-2.8397,-2.9054,-3.0613,-3.0427,-3.0307,-3.169,-3.1131,-3.0303,-3.0042,-3.0269,-3.0294,-2.9557,-2.9211,-2.8936,-2.8771,-2.8366,-2.816,-2.8236,-2.9347,-3.006,-2.9898,-3.017,-3.0266,-3.0219,-3.0158,-3.005,-2.9974,-3.0036,-3.005,-2.9974,-2.996,-2.996,-2.996,-2.9927,-2.9865,-2.9865,-2.9974,-2.9761,-2.9391,-2.96,-2.9533,-2.9305,-2.9348,-2.9624,-3.0016,-3.0251,-3.082,-3.161,-3.2185,-3.2734,-3.3335,-3.3729,-3.4,-3.4101,-3.4101,-3.4101,-3.4101,-3.4101,-3.4101,-3.4101,-3.4101,-3.4101,-3.4101,-3.4101,-3.4101,-3.4101,-3.4101,-3.4101,-3.4101,-3.4101,-3.4101,-3.4101,-3.4101,-3.4101,-3.4101,-3.4101,-3.4101,-3.4101,-3.4101,-3.4101,-3.4101,-3.4101,-3.4101,-3.4101,-3.4101,-3.4101,-3.4101,-3.4101,-3.4101,-3.4101,-3.4101,-3.4101,-3.4151,-3.4201,-3.4431,-3.4833,-3.5481,-3.582,-3.6308,-3.6987,-3.7164,-3.7279,-3.7392,-3.8712,-3.9554,-3.995,-4.1199,-4.1966,-2.8923,0.0,0.0,-2.8068,-2.8536,-2.9384,-3.073,-3.0618,-3.0604,-3.1845,-3.1284,-3.0442,-3.0012,-3.0244,-3.0261,-2.9368,-2.9147,-2.8935,-2.8415,-2.8152,-2.7965,-2.7662,-2.8627,-2.9316,-2.9348,-2.997,-3.0387,-3.0387,-3.028,-3.0097,-2.9913,-3.0111,-3.0097,-2.9913,-3.0036,-3.0172,-3.0172,-3.0111,-3.0025,-2.984,-2.9915,-2.9571,-2.8927,-2.9117,-2.9001,-2.8681,-2.8681,-2.8942,-2.9377,-2.9552,-3.0235,-3.1255,-3.1845,-3.2571,-3.323,-3.3729,-3.4,-3.4101,-3.4101,-3.4101,-3.4101,-3.4101,-3.4101,-3.4101,-3.4101,-3.4101,-3.4101,-3.4101,-3.4101,-3.4101,-3.4101,-3.4101,-3.4101,-3.4101,-3.4101,-3.4101,-3.4101,-3.4101,-3.4101,-3.4101,-3.4151,-3.4151,-3.4151,-3.4201,-3.4201,-3.4201,-3.4201,-3.4201,-3.4101,-3.4101,-3.4101,-3.4101,-3.4151,-3.4151,-3.4151,-3.4284,-3.4382,-3.448,-3.4849,-3.5237,-3.5793,-3.6207,-3.6597,-3.7087,-3.7317,-3.7429,-3.7466,-3.9109,-3.9914,-3.995,-4.1538,-4.2287,0.0,0.0,-2.7226,-2.8762,-2.9554,-3.0152,-3.0929,-3.2018,-3.2741,-3.2196,-3.1825,-3.1359,-3.0781,-3.0675,-3.0634,-3.0493,-2.9689,-2.9044,-2.8904,-2.8024,-2.7328,-2.7085,-2.7588,-2.8163,-2.8708,-2.9842,-3.0568,-3.0568,-3.0568,-3.019,-2.9373,-3.0129,-3.019,-2.9373,-2.9931,-3.0312,-3.0312,-3.0158,-2.9797,-2.9154,-2.9346,-2.9073,-2.8412,-2.8653,-2.8695,-2.8681,-2.8681,-2.8695,-2.8753,-2.9377,-3.0127,-3.1095,-3.183,-3.2749,-3.3694,-3.3848,-3.4,-3.4101,-3.4101,-3.4101,-3.4101,-3.4101,-3.4101,-3.4101,-3.4101,-3.4101,-3.4101,-3.4101,-3.4101,-3.4101,-3.4101,-3.4101,-3.4101,-3.4101,-3.4101,-3.4101,-3.4101,-3.4101,-3.4101,-3.4101,-3.4201,-3.43,-3.43,-3.4399,-3.4497,-3.4497,-3.4497,-3.4399,-3.4151,-3.4101,-3.4101,-3.4101,-3.4201,-3.43,-3.43,-3.4706,-3.4975,-3.4975,-3.5345,-3.5837,-3.6333,-3.6374,-3.6719,-3.7374,-3.7392,-3.7466,-3.7594,-3.9147,-3.9914,-3.995,-4.1538,-4.2287,-2.8422,0.0,-2.8122,-2.8366,-2.8941,-2.9632,-3.0239,-3.0658,-3.0944,-3.1026,-3.1073,-3.0854,-2.9938,-3.0303,-3.0303,-2.9103,-2.9029,-2.8842,-2.814,-2.8117,-2.7943,-2.7358,-2.8193,-2.8645,-2.8207,-2.8868,-2.9668,-3.051,-2.9803,-2.932,-2.95,-2.8989,-2.8745,-2.8898,-2.8708,-2.8826,-2.9247,-2.9204,-2.9045,-2.8814,-2.8452,-2.8134,-2.7917,-2.7607,-2.7418,-2.7418,-2.7418,-2.7665,-2.8057,-2.8289,-2.94,-3.1073,-3.1597,-3.2327,-3.314,-3.3421,-3.3274,-3.2979,-3.3291,-3.3113,-3.2708,-3.2804,-3.2852,-3.2852,-3.2914,-3.324,-3.3632,-3.3632,-3.3974,-3.4349,-3.4349,-3.4349,-3.4349,-3.4349,-3.4349,-3.4349,-3.4349,-3.4349,-3.4349,-3.4349,-3.4399,-3.4448,-3.4448,-3.4448,-3.4497,-3.4497,-3.4497,-3.4448,-3.4399,-3.4349,-3.4349,-3.4349,-3.4399,-3.4529,-3.4754,-3.488,-3.5161,-3.5582,-3.595,-3.6291,-3.6638,-3.6917,-3.7167,-3.7392,-3.7503,-3.7807,-3.8397,-3.9414,-4.0182,-4.0717,-4.1787,-4.2287,-2.7951,-2.8103,-2.8301,-2.8445,-2.9105,-2.9761,-2.999,-3.0214,-3.043,-3.0525,-3.08,-3.0748,-2.9885,-3.0311,-3.0344,-2.8989,-2.8984,-2.881,-2.7978,-2.8101,-2.8017,-2.7446,-2.8337,-2.8705,-2.8062,-2.8141,-2.8654,-2.9813,-2.9299,-2.8907,-2.8914,-2.8341,-2.8099,-2.8312,-2.8197,-2.8326,-2.8681,-2.8681,-2.8565,-2.8332,-2.7694,-2.7389,-2.7389,-2.6968,-2.6779,-2.6779,-2.6779,-2.7012,-2.7403,-2.7675,-2.8946,-3.0838,-3.144,-3.2171,-3.2967,-3.3304,-3.2793,-3.2056,-3.2606,-3.251,-3.212,-3.2213,-3.2213,-3.2308,-3.2583,-3.3023,-3.3448,-3.3727,-3.4136,-3.4497,-3.4497,-3.4497,-3.4497,-3.4497,-3.4497,-3.4497,-3.4497,-3.4497,-3.4497,-3.4497,-3.4546,-3.4546,-3.4546,-3.4594,-3.4643,-3.4643,-3.4643,-3.4594,-3.4497,-3.4578,-3.4675,-3.4675,-3.4866,-3.5038,-3.527,-3.5481,-3.5732,-3.6122,-3.6516,-3.6816,-3.7031,-3.7261,-3.7411,-3.7466,-3.754,-3.7987,-3.8808,-3.9557,-4.0324,-4.1127,-4.1912,-4.2287,-2.8264,-2.8108,-2.7812,-2.9064,-2.9973,-3.0463,-3.0081,-3.0606,-3.1071,-3.0646,-3.0889,-3.1038,0.0,0.0,-3.0807,-3.0113,-2.9556,-2.9042,-2.8352,-2.7925,-2.7619,-2.7452,-2.8033,-2.8299,-2.8095,-2.7625,-2.7664,-2.8536,-2.9102,-2.8885,-2.7605,-2.8197,-2.824,-2.7535,-2.8211,-2.8579,-2.8579,-2.8579,-2.8274,-2.7679,-2.707,-2.6832,-2.6832,-2.6832,-2.6832,-2.6832,-2.6832,-2.6832,-2.6875,-2.7564,-2.8831,-3.0392,-3.1332,-3.2278,-3.3095,-3.3254,-3.2417,-3.1363,-3.1974,-3.2204,-3.2204,-3.2204,-3.2204,-3.2335,-3.3072,-3.3317,-3.3498,-3.4235,-3.4431,-3.4448,-3.448,-3.4464,-3.4448,-3.448,-3.4497,-3.4497,-3.4497,-3.4497,-3.4497,-3.4497,-3.4594,-3.4691,-3.4691,-3.4804,-3.4899,-3.4947,-3.4947,-3.4851,-3.4546,-3.4802,-3.5021,-3.5021,-3.5498,-3.5827,-3.5871,-3.6326,-3.6615,-3.6615,-3.7048,-3.7334,-3.7429,-3.7429,-3.7466,-3.7577,-3.7577,-3.8005,-3.8879,-3.9575,-4.0342,-4.1181,-4.193,-4.2287,-2.775,-2.7872,-2.7918,-2.8704,-2.9413,-2.9701,-2.8808,-2.9089,-2.9649,-3.0115,-3.0277,-3.0454,0.0,-3.1476,-3.1358,-2.9946,-2.9958,-2.9658,-2.8118,-2.8248,-2.8282,-2.7634,-2.8121,-2.8293,-2.7632,-2.7525,-2.7276,-2.692,-2.7004,-2.6942,-2.6745,-2.666,-2.6637,-2.6482,-2.6578,-2.6811,-2.7273,-2.7258,-2.7239,-2.7199,-2.7024,-2.6989,-2.7078,-2.7078,-2.7078,-2.7078,-2.7078,-2.7078,-2.7093,-2.7306,-2.8085,-2.9291,-3.0086,-3.0703,-3.1243,-3.1855,-3.15,-3.074,-3.0922,-3.0859,-3.0729,-3.0859,-3.0859,-3.1051,-3.1819,-3.2458,-3.302,-3.3763,-3.3978,-3.411,-3.4655,-3.4391,-3.411,-3.4671,-3.4804,-3.4804,-3.4804,-3.4804,-3.4804,-3.4804,-3.4851,-3.4851,-3.4851,-3.4899,-3.4977,-3.5241,-3.5287,-3.5165,-3.4835,-3.5102,-3.5316,-3.5436,-3.5793,-3.6156,-3.6533,-3.6655,-3.6873,-3.7185,-3.7317,-3.7429,-3.754,-3.754,-3.7594,-3.7577,-3.7577,-3.8255,-3.9629,-3.9825,-4.0628,-4.1984,-4.2198,-4.2287,-2.7503,-2.7838,-2.8073,-2.9022,-2.9507,-2.9549,-2.8837,-2.8849,-2.9172,-2.9794,-3.0001,0.0,-3.0918,-3.15,-3.139,-2.9874,-2.9952,-2.9706,-2.813,-2.8157,-2.8212,-2.772,-2.8003,-2.7889,-2.7189,-2.6923,-2.6526,-2.5798,-2.6105,-2.6199,-2.595,-2.6078,-2.6147,-2.6218,-2.6365,-2.6645,-2.6974,-2.6989,-2.7041,-2.7093,-2.7093,-2.7144,-2.7181,-2.7181,-2.7181,-2.7181,-2.7181,-2.7181,-2.7181,-2.7284,-2.8086,-2.9339,-2.9829,-3.0432,-3.103,-3.1446,-3.1113,-3.0526,-3.0526,-3.0443,-3.0359,-3.0401,-3.0658,-3.1071,-3.1868,-3.2597,-3.3326,-3.4071,-3.4038,-3.3955,-3.47,-3.4336,-3.3988,-3.4717,-3.4899,-3.4899,-3.4899,-3.4899,-3.4899,-3.4899,-3.4899,-3.4899,-3.4899,-3.4899,-3.5024,-3.5333,-3.5453,-3.5453,-3.5407,-3.5677,-3.5898,-3.6011,-3.635,-3.6696,-3.6992,-3.7069,-3.7147,-3.7392,-3.7466,-3.7503,-3.7594,-3.7577,-3.7577,-3.7577,-3.7933,-3.8719,-3.9914,-4.0253,-4.1074,-4.2287,-4.2287,-4.2091,-2.7439,-2.789,-2.8222,-2.9549,-2.9848,-2.9729,-2.9363,-2.9214,-2.926,-2.9769,0.0,-3.0353,-3.0906,-3.1392,-3.1246,-2.9874,0.0,-2.956,-2.8195,-2.7955,-2.784,-2.784,-2.7705,-2.7384,-2.6779,-2.619,-2.5578,-2.4924,-2.5586,-2.5782,-2.5258,-2.5837,-2.6229,-2.6283,-2.6893,-2.7181,-2.7181,-2.7181,-2.7233,-2.7233,-2.7233,-2.7233,-2.7269,-2.7269,-2.7269,-2.7269,-2.7269,-2.7269,-2.7269,-2.7386,-2.8312,-2.9705,-2.9975,-3.0596,-3.1384,-3.1427,-3.1031,-3.0526,-3.0526,-3.0576,-3.0659,-3.0659,-3.1064,-3.1785,-3.258,-3.3276,-3.3938,-3.4684,-3.4369,-3.3955,-3.47,-3.4336,-3.3988,-3.4717,-3.4899,-3.4899,-3.4899,-3.4899,-3.4899,-3.4899,-3.4899,-3.4883,-3.493,-3.4994,-3.5118,-3.547,-3.5633,-3.5837,-3.6182,-3.6426,-3.6568,-3.6615,-3.6935,-3.7185,-3.7334,-3.7392,-3.7429,-3.7429,-3.754,-3.7577,-3.7577,-3.7577,-3.7577,-3.7577,-3.8397,-3.9182,-3.9914,-4.0756,-4.1542,-4.2328,-4.2328,-4.1899,-2.743,-2.789,-2.8121,-2.9029,-2.9601,-2.9718,-2.8791,-2.8989,0.0,0.0,-3.0438,-3.0561,-3.1742,-3.2187,-3.1791,-3.0119,-3.0344,-3.0145,-2.8409,-2.8137,-2.8088,-2.7955,-2.7395,-2.698,-2.6864,-2.584,-2.4896,-2.4272,-2.3952,-2.391,-2.4305,-2.5189,-2.5906,-2.6283,-2.6893,-2.7181,-2.7181,-2.7181,-2.7284,-2.735,-2.735,-2.7437,-2.7524,-2.7524,-2.7524,-2.7524,-2.7524,-2.7524,-2.7524,-2.7575,-2.7955,-2.8618,-2.9108,-2.963,-3.0163,-3.054,-3.0626,-3.0526,-3.0526,-3.0924,-3.1394,-3.1394,-3.152,-3.1868,-3.3193,-3.369,-3.3938,-3.4684,-3.4369,-3.3955,-3.47,-3.4336,-3.3988,-3.4717,-3.4899,-3.4899,-3.4899,-3.4899,-3.4899,-3.4899,-3.4899,-3.4977,-3.5287,-3.5287,-3.556,-3.6233,-3.6385,-3.6574,-3.6895,-3.6816,-3.6776,-3.6821,-3.7167,-3.7392,-3.7558,-3.754,-3.7594,-3.7594,-3.7594,-3.7577,-3.7577,-3.7577,-3.7577,-3.7577,-3.8397,-3.922,-4.0085,-4.0891,-4.1719,-4.257,-4.257,-4.2139,-2.746,-2.7892,-2.82,-2.9448,-2.9915,-2.9889,-2.9269,0.0,0.0,0.0,-3.0487,-3.0614,-3.1671,-3.1834,0.0,-3.0119,-2.9998,-2.9705,-2.8488,-2.8088,-2.7875,-2.779,-2.6878,-2.6169,-2.584,-2.4847,-2.3968,-2.3366,-2.2999,-2.2897,-2.3184,-2.3919,-2.4917,-2.6058,-2.6025,-2.6276,-2.6867,-2.6525,-2.6411,-2.646,-2.646,-2.6508,-2.6557,-2.6557,-2.6737,-2.7066,-2.7066,-2.7066,-2.713,-2.7709,-2.8056,-2.8279,-2.9159,-2.975,-3.0199,-3.0426,-3.0526,-3.0526,-3.0526,-3.0716,-3.1064,-3.1461,-3.2133,-3.2878,-3.3574,-3.4054,-3.4435,-3.48,-3.4369,-3.3955,-3.47,-3.4336,-3.3988,-3.4717,-3.4899,-3.4899,-3.4899,-3.4899,-3.4947,-3.5118,-3.4848,-3.4688,-3.503,-3.5128,-3.5343,-3.5879,-3.6411,-3.6895,-3.7223,-3.7223,-3.7206,-3.7167,-3.7299,-3.7466,-3.7577,-3.7577,-3.7577,-3.7577,-3.7577,-3.7577,-3.7577,-3.7649,-3.7631,-3.7631,-3.8866,-3.9747,-4.0143,-4.1381,-4.2192,-4.2609,-4.2609,-4.1944,-2.7566,-2.8058,-2.8548,-3.0037,-3.0279,-3.0109,-2.9867,-2.9588,0.0,0.0,-3.0321,-3.0547,-3.1265,0.0,-3.0789,0.0,-2.961,-2.9095,-2.8376,-2.789,-2.7625,-2.7509,-2.6328,-2.5378,-2.4903,-2.3947,-2.3107,-2.2525,-2.218,-2.2153,-2.2402,-2.2897,-2.3834,-2.5293,-2.5046,-2.5326,-2.6232,-2.5821,-2.5615,-2.5615,-2.5615,-2.5615,-2.5615,-2.5615,-2.5899,-2.6378,-2.6378,-2.6378,-2.6456,-2.7468,-2.7844,-2.7961,-2.8941,-2.9613,-3.0063,-3.0063,-3.0145,-3.0278,-3.0278,-3.0394,-3.0626,-3.1205,-3.2365,-3.3574,-3.374,-3.4319,-3.4899,-3.4899,-3.4468,-3.4154,-3.475,-3.4468,-3.417,-3.475,-3.4899,-3.4947,-3.4977,-3.5024,-3.5118,-3.5453,-3.4908,-3.4549,-3.4873,-3.4868,-3.491,-3.5318,-3.6001,-3.6617,-3.6877,-3.7147,-3.729,-3.7217,-3.7323,-3.7503,-3.7613,-3.7613,-3.7613,-3.7667,-3.7667,-3.7667,-3.7667,-3.7721,-3.7829,-3.8008,-3.9462,-4.0308,-4.0507,-4.1947,-4.2649,-4.267,-4.267,-4.1823,-2.7967,-2.8512,-2.9292,-3.0186,-3.0386,-3.0273,-2.9899,0.0,0.0,-2.9485,-2.9876,-3.0328,-3.0733,0.0,0.0,0.0,0.0,0.0,-2.7989,-2.779,-2.7625,-2.7174,-2.5963,-2.5109,-2.5105,-2.3859,-2.275,-2.2032,-2.1259,-2.1315,-2.2363,-2.2897,-2.3278,-2.3423,-2.4376,-2.4961,-2.5082,-2.5408,-2.5615,-2.5615,-2.5615,-2.5615,-2.5615,-2.5615,-2.5644,-2.5689,-2.5689,-2.5689,-2.5751,-2.6214,-2.6678,-2.7142,-2.7612,-2.8127,-2.8572,-2.8572,-2.8969,-2.9516,-2.9516,-2.9947,-3.0526,-3.0593,-3.1603,-3.2911,-3.3591,-3.4319,-3.4899,-3.4899,-3.4849,-3.4816,-3.4883,-3.4849,-3.4816,-3.4883,-3.4899,-3.4977,-3.5287,-3.5333,-3.5453,-3.5776,-3.5309,-3.4964,-3.5272,-3.4874,-3.4556,-3.4906,-3.5137,-3.5279,-3.5314,-3.599,-3.6506,-3.6506,-3.7148,-3.7613,-3.7667,-3.7703,-3.7757,-3.7864,-3.7864,-3.7864,-3.7864,-3.7864,-3.824,-3.8978,-3.9787,-4.0615,-4.1466,-4.235,-4.2804,-4.2882,-4.2882,-4.1994,-2.8031,-2.8627,-2.9428,-3.0216,-3.034,-3.0209,-2.9915,0.0,-2.936,-2.9475,-2.9536,-2.9734,-3.0349,-3.009,0.0,0.0,0.0,0.0,-2.7825,-2.7372,-2.6784,-2.6236,-2.5445,-2.4643,-2.3834,-2.31,-2.2326,-2.1432,-2.1043,-2.0972,-2.1367,-2.1864,-2.2315,-2.2733,-2.3373,-2.3894,-2.4287,-2.4371,-2.4403,-2.4403,-2.4403,-2.4403,-2.4403,-2.4403,-2.4627,-2.5016,-2.5016,-2.5016,-2.5092,-2.6207,-2.6565,-2.6487,-2.7631,-2.8448,-2.9003,-2.9003,-2.945,-3.0013,-2.9566,-2.9599,-2.9781,-2.9367,-2.9914,-3.094,-3.2133,-3.2696,-3.3027,-3.3442,-3.3574,-3.3673,-3.4121,-3.4568,-3.4667,-3.3773,-3.4043,-3.4471,-3.4152,-3.3914,-3.3826,-3.4157,-3.3671,-3.3321,-3.3669,-3.3935,-3.4164,-3.4408,-3.5312,-3.5827,-3.5413,-3.6485,-3.7129,-3.6645,-3.7184,-3.7613,-3.7703,-3.7703,-3.7757,-3.7899,-3.7899,-3.7899,-3.7899,-3.7466,-3.7843,-3.9139,-3.9535,-4.0348,-4.1649,-4.2482,-4.2862,-4.2882,-4.3069,-4.2285,-2.8186,-2.883,-2.9806,-3.0295,-3.0309,-3.0122,0.0,-2.9458,-2.9152,-2.9115,-2.8994,-2.905,-2.952,-2.9226,-2.8884,0.0,0.0,0.0,-2.7205,-2.6761,-2.6299,-2.5659,-2.4924,-2.409,-2.3114,-2.255,-2.1852,-2.0868,-2.0758,-2.0532,-2.0201,-2.0609,-2.1199,-2.187,-2.2428,-2.291,-2.3357,-2.3511,-2.3595,-2.3595,-2.3595,-2.3595,-2.3595,-2.3595,-2.3864,-2.4313,-2.4313,-2.4313,-2.4417,-2.6065,-2.6445,-2.6229,-2.7827,-2.871,-2.9141,-2.9181,-2.9646,-3.012,-2.9447,-2.9181,-2.9065,-2.8351,-2.8301,-2.8766,-3.0028,-3.0983,-3.1779,-3.232,-3.2602,-3.2879,-3.3267,-3.3779,-3.3862,-3.2705,-3.3187,-3.3803,-3.3383,-3.3093,-3.2983,-3.3315,-3.2617,-3.2103,-3.232,-3.2716,-3.3116,-3.343,-3.4479,-3.5226,-3.5133,-3.6353,-3.7072,-3.6748,-3.7309,-3.7739,-3.7774,-3.7774,-3.7863,-3.7969,-3.7969,-3.7861,-3.7626,-3.7136,-3.7494,-3.8902,-3.9226,-4.0166,-4.1723,-4.2502,-4.292,-4.3032,-4.3196,-4.2512,-2.8549,-2.9312,-3.0569,-3.0501,-3.0344,-3.0098,-2.9685,-2.9305,-2.881,-2.8156,-2.8233,-2.8332,-2.8049,-2.8295,-2.818,0.0,0.0,0.0,-2.5828,-2.6121,-2.6258,-2.5592,-2.4457,-2.3658,-2.3437,-2.2328,-2.1274,-2.0455,-2.0274,-1.982,-1.895,-1.9436,-2.0032,-2.0686,-2.1623,-2.2128,-2.2142,-2.3098,-2.3595,-2.3595,-2.3595,-2.3595,-2.3595,-2.3595,-2.3595,-2.361,-2.361,-2.361,-2.3741,-2.5347,-2.6084,-2.635,-2.7888,-2.8489,-2.8527,-2.8657,-2.9109,-2.9532,-2.8908,-2.8695,-2.8561,-2.7754,-2.7088,-2.6652,-2.7336,-2.9532,-3.1807,-3.1892,-3.2436,-3.2907,-3.2523,-3.2417,-3.231,-3.1921,-3.2429,-3.3095,-3.3423,-3.3477,-3.36,-3.391,-3.2813,-3.1803,-3.1821,-3.1267,-3.1121,-3.1912,-3.2056,-3.2613,-3.4141,-3.504,-3.5849,-3.6622,-3.7431,-3.7916,-3.7984,-3.7984,-3.8036,-3.8192,-3.8192,-3.783,-3.7033,-3.6979,-3.7359,-3.8174,-3.8989,-4.0166,-4.1723,-4.2502,-4.3032,-4.3303,-4.3303,-4.2728,-2.8874,-2.9543,-3.0367,-3.0241,-2.9969,-2.9655,-2.9439,-2.9008,-2.8565,-2.8156,-2.8263,-2.8405,-2.8484,-2.8603,-2.856,-2.8105,0.0,0.0,0.0,-2.5812,-2.5159,-2.4385,-2.2995,-2.1978,-2.152,-2.1043,-2.0475,-1.9712,-1.9508,-1.9278,-1.8911,-1.9048,-1.9265,-1.9447,-2.0745,-2.1241,-2.0878,-2.1808,-2.2293,-2.2293,-2.2293,-2.2293,-2.2293,-2.2293,-2.2547,-2.2966,-2.2966,-2.3375,-2.4135,-2.4914,-2.5472,-2.5929,-2.6713,-2.7331,-2.7885,-2.8477,-2.913,-2.966,-2.9499,-2.9113,-2.8561,-2.7791,-2.7071,-2.657,-2.6823,-2.7808,-2.897,-2.951,-3.0179,-3.0627,-3.0255,-3.0891,-3.1428,-3.0525,-3.1011,-3.1602,-3.1192,-3.0942,-3.0808,-3.0916,-3.0592,-3.0309,-3.0309,-3.1038,-3.1714,-3.2007,-3.301,-3.3695,-3.3683,-3.4857,-3.558,-3.5291,-3.6497,-3.7458,-3.7948,-3.7984,-3.807,-3.8192,-3.7667,-3.7283,-3.7029,-3.5928,-3.6254,-3.8156,-3.8063,-3.9276,-4.1956,-4.2404,-4.2783,-4.3101,-4.2477,-4.1847,0.0,-2.9184,-2.9988,-2.9893,-2.9604,-2.9303,-2.914,-2.8795,-2.8486,-2.8401,-2.832,-2.8339,-2.8626,-2.8241,-2.7755,-2.7272,-2.6973,0.0,-2.5678,-2.5275,-2.4553,-2.3358,-2.2059,-2.1082,-2.0529,-2.0402,-2.0019,-1.9079,-1.891,-1.8671,-1.827,-1.8257,-1.8257,-1.8257,-1.9765,-2.0486,-2.0302,-2.1085,-2.156,-2.1695,-2.1695,-2.1829,-2.2069,-2.2069,-2.2413,-2.3026,-2.3026,-2.3504,0.0,-2.5067,-2.5676,-2.622,-2.6975,-2.7557,-2.8062,-2.8622,-2.9244,-2.9738,-2.958,-2.9362,-2.9042,-2.8,-2.716,-2.6572,-2.6623,-2.7198,-2.796,-2.8704,-2.9302,-2.9689,-2.9281,-2.9867,-3.0334,-2.9417,-2.9933,-3.048,-3.003,-2.9758,-2.9611,-2.9611,-2.9386,-2.9215,-2.9215,-3.0044,-3.0936,-3.1588,-3.2557,-3.3334,-3.3791,-3.4733,-3.5276,-3.5077,-3.6218,-3.7178,-3.7582,-3.7907,-3.8122,-3.8192,-3.7721,-3.7178,-3.6562,-3.5678,-3.5854,-3.7376,-3.7424,-3.8866,-4.182,-4.2736,-4.3148,-4.3025,-4.2275,-4.16,0.0,-2.8391,-2.9475,-2.9457,-2.9266,-2.9015,-2.8815,-2.8621,0.0,-2.874,-2.8364,-2.8099,-2.8461,-2.7419,-2.6192,-2.5255,-2.5368,-2.5271,-2.4309,-2.4521,-2.4187,-2.2414,-2.1446,-2.0669,-2.0112,-2.0154,-1.9704,-1.8492,-1.8412,-1.8031,-1.7225,-1.7199,-1.7199,-1.7199,-1.8725,-1.9729,-2.0175,-2.0734,-2.1211,-2.156,-2.156,-2.1904,-2.2574,-2.2574,-2.2948,-2.3578,-2.3578,-2.3864,-2.4472,-2.5566,-2.638,-2.6977,-2.8172,-2.8659,-2.8659,-2.8837,-2.9276,-2.969,-2.9208,-2.9448,-2.9702,-2.8213,-2.7266,-2.6691,-2.6725,-2.7434,-2.8352,-2.9042,-2.9501,-2.9667,-2.9296,-2.9205,-2.9112,-2.8717,-2.9174,-2.9699,-2.9699,-2.9699,-2.9699,-2.9699,-2.9119,-2.8587,-2.8587,-2.8641,-2.9192,-3.0677,-3.1003,-3.189,-3.4154,-3.448,-3.4806,-3.5566,-3.6345,-3.6834,-3.6888,-3.7685,-3.8192,-3.8192,-3.8117,-3.7392,-3.5874,-3.5903,-3.5967,-3.6043,-3.72,-3.9016,-4.1468,-4.3314,-4.383,-4.3025,-4.2479,-4.1765,-2.6976,0.0,-2.9177,-2.9074,-2.8874,-2.87,0.0,-2.8344,-2.8032,0.0,0.0,0.0,-2.7695,-2.71,-2.6485,-2.5986,-2.5824,-2.5531,-2.4888,-2.3886,-2.2538,-2.0656,-1.9674,-1.9083,-1.8798,-1.8382,-1.7976,-1.7545,-1.7492,-1.7426,-1.7212,-1.7199,-1.7199,-1.7199,-1.7587,-1.8138,-1.8936,-1.9651,-2.008,-2.0154,-2.0154,-2.055,-2.1302,-2.1302,-2.2013,-2.3126,-2.3126,-2.385,-2.5013,-2.5274,-2.5929,-2.6684,-2.6991,-2.7146,-2.7266,-2.784,-2.8161,-2.8448,-2.9499,-2.9194,-2.8197,-2.7266,-2.6843,-2.6758,-2.7021,-2.727,-2.7474,-2.7663,-2.7952,-2.8235,-2.8358,-2.8388,-2.8407,-2.8572,-2.8732,-2.8884,-2.8884,-2.8884,-2.8884,-2.8884,-2.8739,-2.8587,-2.8587,-2.9119,-2.9644,-3.0025,-3.1129,-3.2125,-3.2687,-3.3302,-3.3755,-3.3954,-3.4679,-3.5421,-3.6037,-3.7377,-3.8192,-3.8192,-3.7176,-3.6413,-3.6049,-3.5037,-3.4813,-3.5475,-3.8401,-4.0592,-4.2013,-4.3137,-4.3283,-4.2486,-4.1723,-4.0938,-2.644,-2.7214,-2.8244,-2.8165,-2.8004,-2.7855,-2.7805,0.0,0.0,0.0,0.0,0.0,0.0,0.0,-2.597,-2.5779,-2.5575,-2.5114,-2.4232,-2.2763,-2.124,-1.9611,-1.8795,-1.8216,-1.7945,-1.7682,-1.7408,-1.7196,-1.7199,-1.7199,-1.7199,-1.7199,-1.7199,-1.7199,-1.7434,-1.7868,-1.85,-1.8959,-1.9384,-1.9762,-1.9797,-2.0231,-2.0948,-2.0948,-2.1697,-2.298,-2.298,-2.3832,-2.5176,-2.5269,-2.5811,-2.6572,-2.627,-2.6151,-2.6201,-2.6268,-2.6725,-2.7385,-2.7875,-2.7503,-2.6793,-2.6908,-2.6684,-2.6559,-2.7234,-2.7535,-2.7589,-2.7589,-2.784,-2.8156,-2.8299,-2.8326,-2.8396,-2.8562,-2.8587,-2.8587,-2.8587,-2.8587,-2.8587,-2.8587,-2.8587,-2.8587,-2.8587,-2.8974,-2.95,-3.0224,-3.1075,-3.1908,-3.2651,-3.314,-3.3393,-3.3393,-3.4117,-3.48,-3.5357,-3.6521,-3.7394,-3.7758,-3.7156,-3.646,-3.5754,-3.5084,-3.5194,-3.6198,-3.9258,-4.1305,-4.2252,-4.3145,-4.3151,-4.2323,-4.151,-4.07,-2.5832,-2.6285,-2.6918,-2.7031,-2.7031,-2.6985,0.0,0.0,0.0,0.0,0.0,0.0,0.0,-2.5923,0.0,-2.4794,-2.4597,-2.3992,-2.2764,-2.1411,-2.0116,-1.8908,-1.8113,-1.758,-1.7368,-1.7295,-1.7231,-1.7141,-1.7157,-1.7199,-1.7199,-1.7199,-1.7199,-1.7253,-1.7679,-1.8121,-1.8553,-1.8669,-1.9087,-1.9848,-1.9955,-2.0354,-2.1029,-2.1029,-2.1698,-2.2909,-2.2949,-2.3717,-2.4948,-2.5083,-2.5612,-2.6236,-2.5661,-2.5439,-2.5355,-2.4712,-2.527,-2.6268,-2.5642,-2.5507,-2.5725,-2.657,-2.6437,-2.613,-2.7251,-2.7748,-2.7959,-2.8121,-2.8378,-2.8587,-2.8587,-2.8587,-2.8587,-2.8587,-2.8587,-2.8587,-2.8587,-2.8587,-2.8587,-2.8587,-2.8587,-2.8587,-2.8587,-2.8721,-2.9246,-3.0604,-3.1021,-3.1673,-3.3049,-3.3321,-3.3393,-3.3452,-3.4068,-3.4593,-3.4934,-3.5604,-3.6311,-3.6989,-3.721,-3.6665,-3.5286,-3.5403,-3.6025,-3.709,-3.9611,-4.1321,-4.2134,-4.3052,-4.3133,-4.2393,-4.1446,-4.0612,-2.4894,-2.4894,-2.5173,-2.5799,-2.6421,-2.6805,0.0,0.0,0.0,0.0,0.0,0.0,0.0,-2.4489,-2.3931,-2.3035,-2.2353,-2.1603,-2.0835,-2.0035,-1.9073,-1.7803,-1.6799,-1.6314,-1.656,-1.6479,-1.6492,-1.6765,-1.7031,-1.7199,-1.7199,-1.7199,-1.7253,-1.7363,-1.7446,-1.7909,-1.8745,-1.9101,-1.9523,-1.997,-2.0005,-2.0375,-2.1072,-2.1072,-2.159,-2.2401,-2.2689,-2.3142,-2.3703,-2.3997,-2.4397,-2.4814,-2.4695,-2.4661,-2.4675,-2.4557,-2.4659,-2.4828,-2.4726,-2.5067,-2.5539,-2.5335,-2.5166,-2.5334,-2.6711,-2.7148,-2.7352,-2.8268,-2.8562,-2.8587,-2.8587,-2.8587,-2.8587,-2.8587,-2.8587,-2.8587,-2.8587,-2.8587,-2.8587,-2.8587,-2.8587,-2.8587,-2.8587,-2.9156,-2.9681,-2.9961,-3.1129,-3.2107,-3.2343,-3.2977,-3.3481,-3.3633,-3.3752,-3.4202,-3.5081,-3.5484,-3.574,-3.5845,-3.587,-3.5605,-3.491,-3.4956,-3.5414,-3.6268,-3.8788,-4.0514,-4.1366,-4.2204,-4.2545,-4.2375,-4.0821,-4.0022,-2.3128,-2.323,-2.3417,-2.3468,-2.4524,-2.5496,0.0,0.0,0.0,0.0,0.0,0.0,0.0,-2.3661,-2.3487,-2.3004,-2.1957,-2.0894,-1.9973,-1.916,-1.8148,-1.6754,-1.6176,-1.5904,-1.597,-1.6102,-1.6362,-1.668,-1.7018,-1.7199,-1.7199,-1.7199,-1.7253,-1.7308,-1.7378,-1.7882,-1.8755,-1.9049,-1.9508,-2.0045,-2.0131,-2.0334,-2.0661,-2.0661,-2.1065,-2.1784,-2.2133,-2.2678,-2.3448,-2.377,-2.4128,-2.4472,-2.4052,-2.39,-2.39,-2.39,-2.3646,-2.3359,-2.3765,-2.3969,-2.4093,-2.4465,-2.4655,-2.505,-2.6706,-2.6896,-2.6855,-2.8218,-2.8587,-2.8587,-2.8587,-2.8587,-2.8587,-2.8587,-2.8587,-2.8587,-2.8587,-2.8587,-2.8587,-2.8587,-2.8587,-2.8587,-2.8587,-2.9264,-2.9961,-3.0369,-3.1437,-3.2361,-3.2795,-3.3273,-3.3605,-3.3698,-3.3815,-3.4146,-3.4736,-3.4899,-3.5244,-3.5762,-3.5431,-3.5122,-3.4848,-3.4888,-3.5286,-3.6158,-3.8205,-3.9665,-4.0517,-4.1351,-4.1749,-4.173,-4.0476,-3.9889,-2.1431,-2.1499,-2.1566,-2.1143,0.0,-2.383,-2.3914,0.0,0.0,0.0,0.0,0.0,0.0,-2.2663,-2.2514,-2.2615,-2.1355,-2.0049,-1.9206,-1.8213,-1.7197,-1.6038,-1.5797,-1.5649,-1.5504,-1.5824,-1.6231,-1.6552,-1.6892,-1.7115,-1.7199,-1.7199,-1.7175,-1.7085,-1.7368,-1.7866,-1.8602,-1.8939,-1.9457,-2.015,-2.027,-2.0304,-2.0304,-2.0304,-2.0582,-2.1075,-2.15,-2.2143,-2.2945,-2.3341,-2.3706,-2.3917,-2.3359,-2.3139,-2.3139,-2.3139,-2.2784,-2.2395,-2.2953,-2.2965,-2.2851,-2.3736,-2.4169,-2.4658,-2.6333,-2.6548,-2.6512,-2.7918,-2.8442,-2.8587,-2.8587,-2.8587,-2.8587,-2.8587,-2.8587,-2.8587,-2.8587,-2.8587,-2.8587,-2.8587,-2.8587,-2.8587,-2.8587,-2.9315,-3.014,-3.0939,-3.181,-3.2611,-3.3458,-3.3671,-3.3788,-3.386,-3.4049,-3.4269,-3.4495,-3.4561,-3.4929,-3.5696,-3.5209,-3.4888,-3.4888,-3.4908,-3.5211,-3.5874,-3.7732,-3.9001,-3.9627,-4.0688,-4.12,-4.1181,-4.0328,-3.9889,-2.0243,-1.9839,-1.9393,-1.9405,0.0,0.0,-2.2538,-2.2263,0.0,0.0,0.0,0.0,0.0,-2.0785,-2.0193,-2.0655,-1.921,-1.7989,-1.7774,-1.6746,-1.6026,-1.5923,-1.5475,-1.5154,-1.5153,-1.5457,-1.5824,-1.6188,-1.6565,-1.6892,-1.7199,-1.7199,-1.7032,-1.6652,-1.7196,-1.7754,-1.8208,-1.8796,-1.9493,-2.0304,-2.0304,-2.0304,-2.0304,-2.0304,-2.0335,-2.0416,-2.107,-2.1374,-2.1485,-2.2141,-2.2434,-2.2462,-2.2412,-2.2395,-2.2395,-2.2395,-2.2361,-2.231,-2.2361,-2.2521,-2.2764,-2.3063,-2.3348,-2.3781,-2.4852,-2.566,-2.6385,-2.7254,-2.8008,-2.8587,-2.8587,-2.8587,-2.8587,-2.8587,-2.8587,-2.8587,-2.8587,-2.8587,-2.8587,-2.8587,-2.8587,-2.8587,-2.8587,-2.9435,-3.0344,-3.1155,-3.2107,-3.3036,-3.3836,-3.3972,-3.4074,-3.4316,-3.4381,-3.4517,-3.4848,-3.4868,-3.4887,-3.4965,-3.4946,-3.4908,-3.4908,-3.4908,-3.4927,-3.4984,-3.7428,-3.8738,-3.8774,-4.0404,-4.12,-4.1181,-4.0328,-3.9889,-1.9113,-1.8667,-1.8216,-1.8216,0.0,0.0,0.0,0.0,0.0,-2.1971,-2.1883,0.0,-2.0957,-1.9949,-1.9195,-1.9304,-1.8106,-1.7035,-1.6694,-1.6238,-1.5785,-1.5452,-1.5234,-1.5108,-1.5108,-1.5647,-1.6057,-1.62,-1.6388,-1.6567,-1.6702,-1.6336,-1.6074,-1.5966,-1.6317,-1.6793,-1.745,-1.7801,-1.8312,-1.9008,-1.987,-2.0304,-2.0304,-2.0304,-2.0407,-2.0628,-2.1087,-2.1432,-2.1661,-2.2123,-2.231,-2.2361,-2.2801,-2.2987,-2.2987,-2.2987,-2.2699,-2.2338,-2.2487,-2.2721,-2.2985,-2.3253,-2.3508,-2.3851,-2.4733,-2.5208,-2.5733,-2.7037,-2.7634,-2.7954,-2.846,-2.8587,-2.8587,-2.8587,-2.8587,-2.8587,-2.8587,-2.8587,-2.8587,-2.8587,-2.8587,-2.8637,-2.8761,-2.9533,-3.0253,-3.0673,-3.193,-3.2921,-3.3265,-3.3905,-3.434,-3.445,-3.4623,-3.4749,-3.4888,-3.4908,-3.4908,-3.4908,-3.4908,-3.4908,-3.4908,-3.4908,-3.4908,-3.4908,-3.6919,-3.7963,-3.7963,-3.9673,-4.049,-4.0447,-4.0106,-3.9933,-1.7952,-1.7634,-1.7376,0.0,0.0,0.0,0.0,0.0,0.0,-2.0977,-2.0993,-2.083,-2.0283,-1.9283,-1.851,-1.8333,-1.7296,-1.6451,-1.6078,-1.5798,-1.5521,-1.5154,-1.5108,-1.5108,-1.5108,-1.5416,-1.5726,-1.5887,-1.585,-1.5905,-1.614,-1.576,-1.5483,-1.5409,-1.5751,-1.6206,-1.6785,-1.7121,-1.7602,-1.8222,-1.9192,-1.978,-1.998,-1.998,-2.0291,-2.0827,-2.115,-2.1493,-2.1827,-2.2152,-2.2446,-2.2682,-2.2953,-2.3342,-2.3714,-2.3477,-2.3282,-2.3187,-2.3364,-2.3667,-2.395,-2.3886,-2.4001,-2.423,-2.452,-2.4972,-2.5606,-2.6711,-2.7399,-2.7924,-2.8442,-2.8587,-2.8587,-2.8587,-2.8587,-2.8612,-2.8687,-2.8687,-2.8712,-2.8749,-2.8749,-2.8797,-2.8938,-2.9485,-3.0042,-3.0457,-3.1715,-3.275,-3.3053,-3.3971,-3.4583,-3.4623,-3.479,-3.4927,-3.4927,-3.4927,-3.4945,-3.4945,-3.4964,-3.4945,-3.4927,-3.4927,-3.4945,-3.4964,-3.6369,-3.7262,-3.7528,-3.8993,-3.9811,-4.0036,-4.0036,-4.0015,-1.6768,-1.669,-1.6801,0.0,0.0,0.0,0.0,0.0,0.0,-1.9901,-2.0144,-2.0027,-1.9847,-1.8824,-1.7926,-1.7641,-1.6729,-1.602,-1.59,-1.5441,-1.5108,-1.5096,-1.5108,-1.5096,-1.5096,-1.466,-1.4662,-1.5269,-1.4796,-1.4813,-1.5548,-1.5586,-1.5382,-1.5023,-1.5631,-1.609,-1.6276,-1.6968,-1.7587,-1.8192,-1.8192,-1.8577,-1.9287,-1.9287,-1.984,-2.0811,-2.115,-2.1493,-2.1827,-2.2152,-2.275,-2.3325,-2.2598,-2.3207,-2.4421,-2.3663,-2.4103,-2.4982,-2.4982,-2.5339,-2.5665,-2.4861,-2.4792,-2.4864,-2.4049,-2.4936,-2.6204,-2.6186,-2.7363,-2.8587,-2.8587,-2.8612,-2.8587,-2.8587,-2.8587,-2.8662,-2.8839,-2.8905,-2.8957,-2.9082,-2.9086,-2.9086,-2.9086,-2.9314,-2.9772,-3.0576,-3.1599,-3.2581,-3.3411,-3.426,-3.4809,-3.4887,-3.4908,-3.4927,-3.5001,-3.5001,-3.502,-3.5111,-3.5092,-3.5075,-3.5001,-3.5001,-3.502,-3.5092,-3.5892,-3.6729,-3.7605,-3.8423,-3.926,-4.0117,-4.0117,-4.0117,-1.7779,-1.7115,0.0,-1.6655,0.0,0.0,0.0,0.0,0.0,0.0,-1.934,-1.9101,-1.8442,-1.7811,-1.7149,-1.6518,-1.5857,-1.5384,-1.5337,-1.5268,-1.5083,-1.4649,-1.4722,-1.4658,-1.4213,-1.4328,-1.4546,-1.492,-1.4677,-1.4668,-1.5101,-1.4772,-1.458,-1.4506,-1.4807,-1.5184,-1.5667,-1.5918,-1.6293,-1.6793,-1.6793,-1.7393,-1.8514,-1.8514,-1.9218,-2.0442,-2.0564,-2.1187,-2.2152,-2.2293,-2.279,-2.3447,-2.3283,-2.3806,-2.4624,-2.4403,-2.466,-2.5192,-2.5357,-2.563,-2.5853,-2.5827,-2.5846,-2.5746,-2.4965,-2.5477,-2.6231,-2.5645,-2.6663,-2.79,-2.79,-2.8318,-2.8712,-2.8612,-2.8587,-2.8612,-2.8687,-2.881,-2.891,-2.9007,-2.9101,-2.923,-2.9357,-2.9455,-2.9645,-3.0075,-3.0882,-3.1994,-3.3524,-3.3941,-3.4338,-3.4963,-3.5039,-3.5057,-3.5075,-3.5075,-3.5075,-3.5092,-3.5092,-3.5092,-3.5075,-3.5075,-3.5075,-3.5092,-3.5947,-3.6803,-3.7661,-3.8536,-3.9357,-4.0176,-4.0176,-4.0157,-1.8306,0.0,0.0,-1.7234,-1.6666,-1.6461,-1.7368,0.0,0.0,0.0,-1.8507,-1.8182,-1.7669,-1.7173,-1.6668,-1.6102,-1.558,-1.5244,-1.5244,-1.5171,-1.4938,-1.458,-1.4444,-1.4228,-1.3883,-1.386,-1.4002,-1.4285,-1.4132,-1.4145,-1.447,-1.4326,-1.4287,-1.4369,-1.4529,-1.4828,-1.5389,-1.5477,-1.5755,-1.6194,-1.6194,-1.6637,-1.7452,-1.7685,-1.8715,-2.0332,-2.0874,-2.1618,-2.2377,-2.2432,-2.2858,-2.3488,-2.3255,-2.3796,-2.4684,-2.4494,-2.4819,-2.5446,-2.6011,-2.6372,-2.6609,-2.6768,-2.6813,-2.6668,-2.5867,-2.6217,-2.6767,-2.6293,-2.7096,-2.808,-2.808,-2.8445,-2.8785,-2.8687,-2.8743,-2.8821,-2.8892,-2.9075,-2.9251,-2.9334,-2.9416,-2.9532,-2.9644,-2.9681,-2.9734,-2.991,-3.0644,-3.1815,-3.3557,-3.3802,-3.4125,-3.5016,-3.5092,-3.5092,-3.5147,-3.5147,-3.5147,-3.5145,-3.5145,-3.5145,-3.5145,-3.5451,-3.547,-3.5145,-3.5982,-3.6686,-3.7238,-3.8057,-3.8934,-3.9811,-4.0118,-4.0289,-1.8507,0.0,0.0,-1.7487,-1.7213,0.0,-1.8001,-1.7961,-1.7764,-1.784,-1.7537,-1.7305,-1.7248,-1.6748,-1.6315,-1.6185,-1.5774,-1.549,-1.5443,-1.5042,-1.4669,-1.4563,-1.414,-1.3835,-1.3788,-1.3353,-1.3196,-1.3532,-1.3343,-1.3446,-1.3874,-1.417,-1.4369,-1.4501,-1.4655,-1.4949,-1.5389,-1.5477,-1.5755,-1.6194,-1.6194,-1.6234,-1.6316,-1.6882,-1.8257,-2.031,-2.1687,-2.2364,-2.2515,-2.2515,-2.2907,-2.3437,-2.2771,-2.3386,-2.4547,-2.4071,-2.4638,-2.5728,-2.6598,-2.7158,-2.7497,-2.7497,-2.7497,-2.7333,-2.6553,-2.6826,-2.7392,-2.7319,-2.7916,-2.8591,-2.8591,-2.8646,-2.8718,-2.8815,-2.8984,-2.9148,-2.9353,-2.957,-2.9753,-2.9855,-2.9888,-2.9905,-2.9924,-2.9972,-3.0007,-3.0007,-3.0684,-3.1765,-3.338,-3.3646,-3.4044,-3.492,-3.5072,-3.5127,-3.5181,-3.52,-3.5198,-3.5209,-3.5209,-3.5209,-3.5209,-3.5904,-3.5942,-3.5209,-3.5993,-3.6413,-3.6525,-3.7233,-3.812,-3.9112,-3.9922,-4.0369,0.0,-1.86,0.0,0.0,-1.8302,-1.8239,-1.8134,-1.6634,-1.5363,-1.5659,-1.6282,-1.6599,-1.5938,-1.6102,-1.6173,-1.5704,-1.5584,-1.5372,-1.4916,-1.486,-1.4494,-1.3548,-1.3543,-1.338,-1.2852,-1.2794,-1.2914,-1.3198,-1.3352,-1.3581,-1.3967,-1.4292,-1.4547,-1.4732,-1.4794,-1.5041,-1.5389,-1.5522,-1.5755,-1.6123,-1.6234,-1.6301,-1.6371,-1.6456,-1.7642,-1.9739,-2.1066,-2.1958,-2.2515,-2.2569,-2.2681,-2.2801,-2.2701,-2.3209,-2.3915,-2.3406,-2.4292,-2.5722,-2.5463,-2.5964,-2.6743,-2.6743,-2.6743,-2.6578,-2.5792,-2.5706,-2.5748,-2.5104,-2.5965,-2.7083,-2.7083,-2.7541,-2.8209,-2.8997,-2.9166,-2.9169,-2.9358,-2.9551,-2.9698,-2.975,-2.9853,-3.0007,-3.0038,-3.0072,-3.0087,-3.0087,-3.024,-3.0731,-3.1771,-3.2473,-3.3198,-3.4127,-3.4795,-3.5176,-3.5193,-3.5193,-3.5193,-3.5209,-3.5209,-3.5209,-3.5209,-3.5365,-3.5384,-3.5209,-3.5381,-3.5851,-3.6577,-3.675,-3.7329,-3.8276,-3.9147,-3.954,0.0,0.0,0.0,-1.8402,0.0,-1.8282,-1.815,-1.6256,-1.456,-1.4748,-1.5358,-1.5879,-1.5797,-1.5905,-1.5946,-1.5695,-1.5647,-1.5469,-1.4903,-1.4702,-1.4289,-1.34,-1.3202,-1.2975,-1.2615,-1.2662,-1.2745,-1.2885,-1.3288,-1.3648,-1.3934,-1.4356,-1.4686,-1.4904,-1.4935,-1.5088,-1.5389,-1.5551,-1.5797,-1.6095,-1.6301,-1.6448,-1.657,-1.7046,-1.7908,-1.9114,-2.0738,-2.1678,-2.2108,-2.2495,-2.2659,-2.2659,-2.2685,-2.3015,-2.3441,-2.3256,-2.3643,-2.4343,-2.4929,-2.526,-2.5525,-2.6295,-2.6551,-2.6478,-2.6057,-2.5949,-2.5878,-2.5474,-2.5952,-2.6615,-2.6682,-2.7015,-2.7596,-2.8708,-2.8858,-2.8931,-2.9513,-2.9803,-2.9937,-2.9934,-3.0015,-3.0098,-3.0147,-3.0147,-3.0147,-3.0147,-3.0147,-3.0467,-3.134,-3.2142,-3.3001,-3.3891,-3.4713,-3.5209,-3.5209,-3.5209,-3.5209,-3.5209,-3.5209,-3.5226,-3.5289,-3.5289,-3.5465,-3.5821,-3.5821,-3.6077,-3.6603,-3.6637,-3.7159,-3.8148,-3.8996,-3.965,0.0,0.0,0.0,-1.829,-1.8084,0.0,-1.8101,-1.6202,-1.446,-1.4422,-1.4812,-1.5364,-1.5951,-1.5853,-1.5715,-1.5792,-1.572,-1.5468,-1.4941,-1.4454,-1.3951,-1.3421,-1.2975,-1.2709,-1.2745,-1.2745,-1.2745,-1.2745,-1.3242,-1.3682,-1.3901,-1.4433,-1.4825,-1.5013,-1.5043,-1.5149,-1.5374,-1.5609,-1.5854,-1.6095,-1.6409,-1.6633,-1.6779,-1.7729,-1.8302,-1.861,-2.0356,-2.1231,-2.1453,-2.2212,-2.2522,-2.2539,-2.266,-2.2842,-2.3017,-2.301,-2.2805,-2.2723,-2.4075,-2.43,-2.4208,-2.5548,-2.608,-2.619,-2.619,-2.619,-2.619,-2.619,-2.63,-2.6415,-2.6521,-2.658,-2.6935,-2.8242,-2.8391,-2.8527,-2.9696,-3.0079,-3.0204,-3.0204,-3.0204,-3.0204,-3.0204,-3.0204,-3.0204,-3.0204,-3.0204,-3.0452,-3.1178,-3.2,-3.2821,-3.3681,-3.4503,-3.5057,-3.519,-3.5226,-3.5242,-3.5242,-3.5239,-3.53,-3.5407,-3.5422,-3.5782,-3.6537,-3.6403,-3.637,-3.6449,-3.6496,-3.6991,-3.789,-3.8724,-3.9624,0.0,0.0,0.0,0.0,-1.8084,-1.8118,0.0,-1.6168,-1.4428,-1.4408,-1.4979,-1.5459,-1.5484,-1.5626,-1.5715,-1.5792,-1.5408,-1.4929,-1.447,-1.3939,-1.3446,-1.2937,-1.2816,-1.2803,-1.2873,-1.2873,-1.2873,-1.2873,-1.3467,-1.3901,-1.4,-1.456,-1.4963,-1.5178,-1.5178,-1.5208,-1.5298,-1.5683,-1.5942,-1.6095,-1.6601,-1.6879,-1.6972,-1.7404,-1.7969,-1.8618,-1.9297,-1.9964,-2.0618,-2.1436,-2.1763,-2.1815,-2.2453,-2.2712,-2.2643,-2.167,-2.1726,-2.2153,-2.1407,-2.2025,-2.3199,-2.3419,-2.3951,-2.452,-2.452,-2.452,-2.452,-2.452,-2.5016,-2.5568,-2.557,-2.567,-2.6209,-2.801,-2.7972,-2.8017,-2.9785,-3.0171,-3.0204,-3.0204,-3.0204,-3.0204,-3.0204,-3.0204,-3.0204,-3.0204,-3.0204,-3.0242,-3.0357,-3.1121,-3.1981,-3.2802,-3.3643,-3.4445,-3.5152,-3.5304,-3.5364,-3.5364,-3.5424,-3.5457,-3.5502,-3.5488,-3.5893,-3.6736,-3.6029,-3.57,-3.5831,-3.5833,-3.5931,-3.6165,-3.7078,-3.7981,-1.8115,-1.7901,-1.7799,0.0,-1.8107,-1.8116,-1.8078,-1.7247,-1.6216,-1.5356,-1.5556,-1.5835,-1.5662,-1.5691,-1.5792,-1.5969,-1.5563,-1.504,-1.4533,-1.3984,-1.3435,-1.2934,-1.2873,-1.2873,-1.2896,-1.2896,-1.2896,-1.2896,-1.3535,-1.3967,-1.4052,-1.4641,-1.5041,-1.5253,-1.5253,-1.5283,-1.5313,-1.5741,-1.6166,-1.6548,-1.6827,-1.6998,-1.7057,-1.7305,-1.7645,-1.8098,-1.8927,-1.9481,-1.9843,-2.0601,-2.1187,-2.1643,-2.197,-2.2494,-2.3034,-2.2531,-2.2467,-2.2585,-2.2081,-2.2373,-2.2997,-2.2997,-2.3547,-2.419,-2.419,-2.419,-2.419,-2.419,-2.4524,-2.4875,-2.4984,-2.5473,-2.629,-2.7687,-2.8137,-2.8608,-2.9923,-3.0204,-3.0204,-3.0204,-3.0204,-3.0204,-3.0204,-3.0204,-3.0204,-3.0204,-3.0204,-3.0204,-3.0204,-3.0968,-3.1618,-3.1943,-3.3184,-3.414,-3.4503,-3.5051,-3.5393,-3.5402,-3.547,-3.5535,-3.562,-3.5611,-3.5834,-3.6279,-3.5822,-3.5839,-3.6426,-3.595,-3.5993,-3.6586,-3.7021,-3.7923,0.0,0.0,-1.7879,-1.8054,-1.8132,-1.8087,0.0,-1.8101,-1.7863,-1.6988,-1.6492,-1.6218,-1.626,-1.6078,-1.5969,-1.6188,-1.5664,-1.5045,-1.4666,-1.4013,-1.3398,-1.3027,-1.2978,-1.2978,-1.3035,-1.2889,-1.2768,-1.2768,-1.3329,-1.3741,-1.3965,-1.4606,-1.5016,-1.5081,-1.5256,-1.5256,-1.5066,-1.5722,-1.6344,-1.6811,-1.6972,-1.7074,-1.7133,-1.7256,-1.7415,-1.7646,-1.8563,-1.8977,-1.9068,-1.9809,-2.0567,-2.1332,-2.1522,-2.2272,-2.3212,-2.3132,-2.2962,-2.2792,-2.2722,-2.2832,-2.2997,-2.2997,-2.3547,-2.419,-2.419,-2.419,-2.419,-2.419,-2.4303,-2.4424,-2.4575,-2.5231,-2.6176,-2.735,-2.8114,-2.8891,-2.9975,-3.0204,-3.0204,-3.0204,-3.0204,-3.0204,-3.0204,-3.0204,-3.0204,-3.0204,-3.0204,-3.0204,-3.0204,-3.0777,-3.1236,-3.1389,-3.2794,-3.3785,-3.3995,-3.4913,-3.547,-3.547,-3.5546,-3.5631,-3.5752,-3.5752,-3.5803,-3.5905,-3.5743,-3.6018,-3.6714,-3.606,-3.6137,-3.6859,-3.6877,-3.7681,0.0,-1.7872,0.0,-1.809,-1.8103,-1.8103,-1.8101,-1.8072,-1.8386,-1.937,-1.7799,-1.645,-1.7322,-1.6784,-1.6244,-1.6362,-1.5385,-1.4641,-1.4697,-1.379,-1.3132,-1.3163,-1.3198,-1.3232,-1.3357,-1.2788,-1.2422,-1.2422,-1.2749,-1.3143,-1.3585,-1.4443,-1.4786,-1.4555,-1.5096,-1.5067,-1.4369,-1.5634,-1.6409,-1.6623,-1.7007,-1.7174,-1.7215,-1.7281,-1.7415,-1.7612,-1.785,-1.8078,-1.8293,-1.9051,-1.9792,-2.0532,-2.1315,-2.2056,-2.2686,-2.2387,-2.2246,-2.2207,-2.1954,-2.2354,-2.2997,-2.2997,-2.3547,-2.419,-2.419,-2.419,-2.419,-2.419,-2.4303,-2.4407,-2.4407,-2.4704,-2.5389,-2.7015,-2.7589,-2.8217,-2.9841,-3.0204,-3.0204,-3.0204,-3.0204,-3.0204,-3.0204,-3.0204,-3.0204,-3.0204,-3.0204,-3.0204,-3.0204,-3.0242,-3.0567,-3.1331,-3.2344,-3.3262,-3.403,-3.5075,-3.5688,-3.5669,-3.5743,-3.583,-3.5898,-3.5892,-3.5885,-3.5905,-3.5897,-3.5905,-3.5956,-3.5911,-3.5924,-3.5963,-3.5961,-3.6454,0.0,0.0,0.0,-1.8406,-1.8262,-1.8107,-1.8101,-1.8384,-1.8851,-1.9445,-1.8436,-1.7474,-1.7476,-1.6892,-1.6323,-1.6045,-1.5459,-1.4879,-1.4487,-1.3826,-1.3357,-1.3391,-1.3391,-1.3425,-1.3459,-1.2882,-1.2532,-1.2532,-1.2516,-1.2649,-1.2995,-1.3516,-1.3824,-1.3933,-1.4508,-1.4976,-1.5326,-1.6013,-1.6463,-1.6686,-1.7066,-1.7257,-1.7257,-1.7289,-1.7465,-1.7726,-1.7794,-1.7983,-1.8228,-1.8504,-1.9309,-2.0429,-2.0722,-2.1707,-2.2943,-2.297,-2.3088,-2.3169,-2.2721,-2.3107,-2.3694,-2.318,-2.3547,-2.419,-2.419,-2.419,-2.4228,-2.4302,-2.4461,-2.4607,-2.4697,-2.53,-2.6301,-2.796,-2.8845,-2.9459,-3.007,-3.0204,-3.0204,-3.0204,-3.0204,-3.0204,-3.0204,-3.0204,-3.0204,-3.0204,-3.0204,-3.0213,-3.026,-3.0254,-3.0394,-3.0725,-3.2069,-3.3087,-3.3369,-3.4825,-3.5689,-3.5687,-3.5791,-3.5872,-3.5891,-3.5897,-3.5903,-3.5903,-3.5908,-3.5903,-3.5891,-3.5897,-3.5903,-3.5903,-3.5908,-3.6376,-1.7545,0.0,0.0,0.0,-1.8375,-1.8731,-1.8471,-1.8727,-1.9085,-1.9467,-1.8833,-1.8106,-1.7739,-1.7081,-1.6524,-1.6239,-1.5644,-1.5069,-1.4708,-1.4002,-1.3514,-1.3514,-1.3514,-1.3514,-1.3514,-1.2814,-1.2334,-1.2334,-1.2046,-1.2045,-1.2442,-1.284,-1.3349,-1.3953,-1.4121,-1.4707,-1.577,-1.6219,-1.6501,-1.6644,-1.7117,-1.7346,-1.7346,-1.7306,-1.7482,-1.7811,-1.7833,-1.7988,-1.8218,-1.8236,-1.9095,-2.0442,-2.0442,-2.1527,-2.314,-2.3387,-2.361,-2.3785,-2.3491,-2.375,-2.4116,-2.3584,-2.3768,-2.419,-2.419,-2.4228,-2.4284,-2.4355,-2.4591,-2.4794,-2.4874,-2.5863,-2.7128,-2.8223,-2.9363,-3.0204,-3.0204,-3.0204,-3.0204,-3.0204,-3.0204,-3.0204,-3.0204,-3.0204,-3.0204,-3.0204,-3.0204,-3.0213,-3.0273,-3.0292,-3.0321,-3.037,-3.1716,-3.2754,-3.3035,-3.4457,-3.546,-3.5745,-3.5846,-3.5891,-3.5908,-3.5908,-3.5908,-3.5908,-3.5908,-3.5908,-3.5908,-3.5908,-3.5908,-3.5908,-3.5908,-3.6376,0.0,0.0,0.0,0.0,-1.8313,-1.9909,-1.9214,-1.902,-1.9137,-1.9688,-1.8958,-1.8221,-1.8216,-1.7511,-1.6918,-1.7002,-1.6033,-1.5261,-1.5361,-1.4388,-1.3628,-1.3615,-1.3615,-1.3615,-1.3615,-1.2512,-1.1827,-1.1814,-1.1317,-1.1282,-1.1934,-1.2493,-1.3343,-1.4584,-1.3968,-1.4195,-1.5477,-1.616,-1.6501,-1.6501,-1.7117,-1.7395,-1.7411,-1.7346,-1.7482,-1.7811,-1.7861,-1.8057,-1.831,-1.8301,-1.9161,-2.0477,-2.0495,-2.1546,-2.3106,-2.3459,-2.3714,-2.3937,-2.4135,-2.4191,-2.419,-2.419,-2.419,-2.419,-2.419,-2.4284,-2.4407,-2.4407,-2.4651,-2.4902,-2.4953,-2.6333,-2.772,-2.774,-2.9,-3.0204,-3.0204,-3.0204,-3.0204,-3.0204,-3.0204,-3.0204,-3.0204,-3.0204,-3.0204,-3.0199,-3.0199,-3.0218,-3.0199,-3.0273,-3.0309,-3.0314,-3.1265,-3.2255,-3.3095,-3.4042,-3.4958,-3.5807,-3.5885,-3.5897,-3.5908,-3.5908,-3.5908,-3.5908,-3.5908,-3.5908,-3.5908,-3.5908,-3.5908,-3.5908,-3.5908,-3.6376,-1.8531,0.0,0.0,0.0,0.0,0.0,-2.02,-1.9583,-1.9057,-1.9211,-1.8938,-1.8578,-1.8188,-1.7782,-1.7434,-1.7352,-1.6638,-1.5763,-1.4928,-1.4523,-1.4185,-1.3793,-1.3741,-1.3741,-1.3741,-1.3031,-1.242,-1.1988,-1.1445,-1.1202,-1.1342,-1.1803,-1.2456,-1.3292,-1.3595,-1.4162,-1.4996,-1.6053,-1.6554,-1.6596,-1.7191,-1.7467,-1.7467,-1.7451,-1.7639,-1.7939,-1.7954,-1.8166,-1.8502,-1.8403,-1.892,-1.9821,-2.0356,-2.1318,-2.2486,-2.3303,-2.3774,-2.3978,-2.4154,-2.4229,-2.4266,-2.4209,-2.419,-2.421,-2.421,-2.4284,-2.4441,-2.4636,-2.4818,-2.5139,-2.5869,-2.6861,-2.7861,-2.8427,-2.9402,-3.0204,-3.0204,-3.0204,-3.0204,-3.0204,-3.0204,-3.0204,-3.0204,-3.0204,-3.0213,-3.0273,-3.0267,-3.0316,-3.0471,-3.0501,-3.0549,-3.0579,-3.1414,-3.2091,-3.2376,-3.3751,-3.4697,-3.4948,-3.5552,-3.5903,-3.5908,-3.5908,-3.5908,-3.5908,-3.5908,-3.5908,-3.5908,-3.5908,-3.5908,-3.5908,-3.5908,-3.6376,-1.8684,-1.927,-1.9772,-1.9799,0.0,0.0,-2.0246,-1.9991,-1.9611,-1.9204,-1.9297,-1.9232,-1.8567,-1.8254,-1.7975,-1.7638,-1.7344,-1.6715,-1.5389,-1.4955,-1.4631,-1.4073,-1.4138,-1.4235,-1.4235,-1.3543,-1.2911,-1.2409,-1.1736,-1.1329,-1.1262,-1.1615,-1.2148,-1.2809,-1.35,-1.415,-1.4782,-1.588,-1.6474,-1.6623,-1.7059,-1.7362,-1.7515,-1.7552,-1.7737,-1.8005,-1.8121,-1.8328,-1.86,-1.8544,-1.8944,-1.9637,-2.0053,-2.0859,-2.1917,-2.2857,-2.3189,-2.318,-2.3621,-2.3786,-2.3786,-2.375,-2.3971,-2.4248,-2.432,-2.4441,-2.4604,-2.4814,-2.4968,-2.5213,-2.5819,-2.6584,-2.7395,-2.8211,-2.9039,-2.9765,-3.0109,-3.0204,-3.0204,-3.0204,-3.0226,-3.0234,-3.0234,-3.0254,-3.0304,-3.0344,-3.0375,-3.0439,-3.053,-3.0585,-3.0634,-3.0685,-3.1177,-3.1654,-3.2075,-3.3336,-3.4252,-3.4628,-3.5427,-3.5908,-3.5908,-3.5908,-3.5894,-3.5899,-3.5899,-3.5899,-3.5943,-3.5914,-3.5894,-3.5899,-3.5899,-3.6192,-1.7852,-1.8766,0.0,-1.9509,-1.9409,0.0,-1.9722,-2.0254,-2.0435,-1.9472,-1.9703,-1.9772,-1.8937,-1.8671,-1.8367,-1.7801,-1.8016,-1.7749,-1.6359,-1.563,-1.5067,-1.4528,-1.4648,-1.4836,-1.4893,-1.4173,-1.3519,-1.3137,-1.2235,-1.1671,-1.1599,-1.1866,-1.2305,-1.2878,-1.3549,-1.4141,-1.4584,-1.5618,-1.6285,-1.6496,-1.6885,-1.7208,-1.7498,-1.7629,-1.7811,-1.8005,-1.8263,-1.8448,-1.8622,-1.8678,-1.9066,-1.96,-1.9694,-2.0378,-2.1369,-2.2261,-2.23,-2.2025,-2.2895,-2.3155,-2.3121,-2.3196,-2.373,-2.4339,-2.4474,-2.4651,-2.4832,-2.4994,-2.5115,-2.5241,-2.5308,-2.5918,-2.6699,-2.7522,-2.8339,-2.9129,-2.9907,-3.015,-3.0207,-3.0234,-3.0267,-3.0297,-3.0309,-3.0359,-3.0423,-3.0414,-3.0472,-3.0521,-3.053,-3.0591,-3.0651,-3.0704,-3.0764,-3.1105,-3.1886,-3.2756,-3.3628,-3.4506,-3.5315,-3.5816,-3.5914,-3.5914,-3.5919,-3.5909,-3.5909,-3.5938,-3.6005,-3.5943,-3.5899,-3.5909,-3.5909,-3.5938,-1.8797,-1.9238,-1.9359,-1.7587,-1.7132,0.0,-1.9366,-2.0281,-2.0447,-1.9492,-1.9105,-1.8729,-1.8048,-1.8102,-1.8206,-1.7975,-1.8214,-1.8121,-1.7251,-1.6603,-1.6055,-1.5543,-1.5103,-1.4991,-1.5562,-1.5426,-1.5121,-1.4534,-1.3166,-1.2323,-1.2311,-1.2606,-1.2856,-1.2978,-1.363,-1.3733,-1.3277,-1.4992,-1.5869,-1.5803,-1.6889,-1.7458,-1.7515,-1.7522,-1.7715,-1.8005,-1.8103,-1.8333,-1.8604,-1.8733,-1.8822,-1.8962,-1.9678,-2.0172,-2.0625,-2.1552,-2.1927,-2.211,-2.2912,-2.3189,-2.328,-2.3877,-2.421,-2.4411,-2.4543,-2.4666,-2.4861,-2.5164,-2.5262,-2.5437,-2.6088,-2.6365,-2.6718,-2.7577,-2.8389,-2.9046,-2.9267,-2.9866,-3.0381,-3.0434,-3.0362,-3.0333,-3.0442,-3.0472,-3.05,-3.0552,-3.0567,-3.0626,-3.0742,-3.0753,-3.0769,-3.0784,-3.0793,-3.086,-3.1032,-3.1847,-3.2725,-3.3606,-3.446,-3.526,-3.5958,-3.5977,-3.5981,-3.5981,-3.5981,-3.5981,-3.6005,-3.5981,-3.5981,-3.5981,-3.5981,-3.5981,-1.9007,-1.9207,-1.8933,-1.7015,-1.6492,0.0,0.0,-1.9253,-2.0017,-1.9257,-1.9073,-1.885,-1.8153,-1.8338,-1.8467,-1.815,-1.8411,-1.8569,-1.8304,-1.761,-1.6966,-1.6397,-1.6254,-1.6326,-1.6677,-1.6301,-1.5647,-1.4702,-1.3745,-1.3247,-1.3295,-1.3455,-1.3412,-1.3054,-1.4014,-1.4187,-1.3455,-1.5208,-1.6136,-1.6212,-1.6963,-1.7377,-1.7505,-1.7669,-1.7828,-1.8005,-1.8249,-1.8432,-1.8604,-1.8733,-1.8824,-1.8896,-1.9327,-1.9596,-1.9875,-2.0814,-2.1258,-2.1513,-2.2333,-2.2871,-2.326,-2.3634,-2.4111,-2.458,-2.4716,-2.4883,-2.508,-2.5252,-2.5293,-2.5399,-2.5802,-2.5906,-2.6118,-2.6986,-2.7832,-2.8576,-2.9042,-2.9824,-3.047,-3.0533,-3.0505,-3.0461,-3.054,-3.061,-3.0665,-3.0689,-3.07,-3.0716,-3.0789,-3.0798,-3.0806,-3.0798,-3.0798,-3.0801,-3.081,-3.1607,-3.2287,-3.2716,-3.3981,-3.4893,-3.5323,-3.5771,-3.6005,-3.5994,-3.5997,-3.6001,-3.6001,-3.6001,-3.5997,-3.5994,-3.5994,-3.5994,-1.8988,-1.872,-1.8068,-1.6702,-1.6441,-1.6524,0.0,0.0,0.0,-1.8623,-1.8864,-1.8989,-1.8309,-1.8405,-1.8549,-1.8311,-1.8567,-1.8898,-1.9124,-1.86,-1.7928,-1.7265,-1.7412,-1.7644,-1.7763,-1.7069,-1.6107,-1.4977,-1.4408,-1.4177,-1.4292,-1.4301,-1.4056,-1.352,-1.4561,-1.4781,-1.4019,-1.5547,-1.6417,-1.6607,-1.7036,-1.7313,-1.7512,-1.7811,-1.7983,-1.8009,-1.8408,-1.8566,-1.8641,-1.8733,-1.8878,-1.9001,-1.9036,-1.9119,-1.934,-2.0126,-2.0566,-2.0919,-2.1718,-2.255,-2.327,-2.3438,-2.4067,-2.4808,-2.4915,-2.5103,-2.5303,-2.5303,-2.5303,-2.5303,-2.5303,-2.5303,-2.5505,-2.6206,-2.7043,-2.7929,-2.8815,-2.9671,-3.0353,-3.0586,-3.0631,-3.065,-3.0645,-3.073,-3.0789,-3.0793,-3.0806,-3.079,-3.079,-3.0798,-3.0807,-3.0794,-3.0794,-3.0796,-3.0801,-3.146,-3.1926,-3.2082,-3.3578,-3.453,-3.4686,-3.5541,-3.5994,-3.6001,-3.6007,-3.5991,-3.5991,-3.5991,-3.6007,-3.6001,-3.6001,-3.6007,-1.9004,-1.76,-1.6104,-1.5907,-1.6204,-1.6485,-1.6495,0.0,-1.7682,-1.7135,0.0,-1.7948,-1.7408,0.0,0.0,-1.8372,-1.8669,-1.8936,-1.9384,-1.9513,-1.925,-1.8332,-1.7855,-1.7818,-1.8431,-1.7966,-1.7344,-1.6683,-1.5588,-1.498,-1.498,-1.5031,-1.5027,-1.495,-1.5103,-1.4832,-1.4108,-1.5408,-1.5991,-1.5927,-1.7077,-1.7589,-1.7512,-1.7721,-1.7883,-1.8023,-1.8307,-1.8526,-1.8697,-1.8769,-1.8878,-1.9001,-1.9119,-1.9266,-1.9408,-1.9637,-2.0163,-2.0919,-2.1718,-2.2644,-2.3585,-2.4301,-2.4771,-2.5068,-2.5061,-2.5182,-2.5303,-2.5303,-2.5303,-2.5303,-2.5303,-2.533,-2.541,-2.5522,-2.6253,-2.7174,-2.8116,-2.8958,-2.9771,-3.0612,-3.0771,-3.0788,-3.0774,-3.0794,-3.0801,-3.0794,-3.0796,-3.0796,-3.0796,-3.0799,-3.0799,-3.0799,-3.0799,-3.0799,-3.0801,-3.0897,-3.1287,-3.2051,-3.3005,-3.3883,-3.4664,-3.5542,-3.601,-3.5991,-3.5991,-3.5991,-3.5991,-3.5991,-3.5991,-3.5991,-3.5991,-3.6001,-1.8979,-1.8361,-1.7364,-1.6091,-1.6092,-1.6368,-1.6448,-1.703,-1.7441,-1.7295,0.0,0.0,0.0,0.0,0.0,0.0,-1.8884,-1.9109,-1.9398,-1.9617,-1.9606,-1.9235,-1.9135,-1.8974,-1.885,-1.8203,-1.7557,-1.7,-1.6176,-1.571,-1.5737,-1.5764,-1.5595,-1.5222,-1.5564,-1.552,-1.4974,-1.6055,-1.6637,-1.6733,-1.7399,-1.7641,-1.7566,-1.7856,-1.7992,-1.8005,-1.8371,-1.8584,-1.8715,-1.8861,-1.9002,-1.9119,-1.9266,-1.9344,-1.946,-2.0059,-2.0808,-2.1606,-2.2423,-2.335,-2.4268,-2.4774,-2.5,-2.5107,-2.5182,-2.5253,-2.5303,-2.5303,-2.5303,-2.5303,-2.5359,-2.5382,-2.5418,-2.5498,-2.6587,-2.7731,-2.8161,-2.9279,-3.0336,-3.0721,-3.0801,-3.0799,-3.0794,-3.0794,-3.0794,-3.0799,-3.0801,-3.0801,-3.0801,-3.0801,-3.0801,-3.0801,-3.0801,-3.0801,-3.0801,-3.0801,-3.0958,-3.1328,-3.2168,-3.3261,-3.4647,-3.5057,-3.5472,-3.5989,-3.6009,-3.5992,-3.5995,-3.5995,-3.5995,-3.5995,-3.6003,-3.6003,-1.889,-1.902,-1.8478,-1.6326,-1.6023,-1.6312,-1.6473,-1.6948,-1.7388,-1.7468,-1.7847,0.0,0.0,0.0,-1.8553,-1.886,0.0,-1.9295,-1.9545,-1.9762,-1.9854,-1.9788,-2.0015,-1.9986,-1.9477,-1.8788,-1.813,-1.7546,-1.6939,-1.6557,-1.6398,-1.6344,-1.6099,-1.5604,-1.6068,-1.6175,-1.588,-1.6684,-1.7216,-1.7384,-1.7618,-1.771,-1.771,-1.7992,-1.8142,-1.8153,-1.8471,-1.8678,-1.8734,-1.8914,-1.9069,-1.9237,-1.9583,-1.9752,-1.9856,-2.0556,-2.1439,-2.2404,-2.3063,-2.3948,-2.4847,-2.5091,-2.516,-2.5171,-2.5264,-2.5303,-2.5293,-2.5322,-2.5331,-2.533,-2.5403,-2.5439,-2.548,-2.5585,-2.6763,-2.7947,-2.824,-2.9435,-3.0548,-3.0762,-3.0801,-3.0801,-3.0801,-3.0801,-3.0801,-3.0801,-3.0801,-3.0801,-3.0801,-3.0801,-3.0801,-3.0801,-3.0806,-3.0808,-3.0808,-3.0792,-3.0891,-3.1145,-3.175,-3.2883,-3.4621,-3.4699,-3.5113,-3.5976,-3.5976,-3.5976,-3.597,-3.5968,-3.5968,-3.5968,-3.5995,-3.5994,-1.8706,-1.9003,-1.8499,-1.6346,-1.6136,-1.6486,-1.6486,-1.6854,-1.7225,-1.7199,-1.7652,-1.8042,-1.8066,-1.8212,0.0,0.0,0.0,0.0,0.0,-2.0185,-2.015,-1.9823,-2.0154,-2.0429,-2.0532,-2.0099,-1.9526,-1.8797,-1.8251,-1.7625,-1.6908,-1.6686,-1.6581,-1.6565,-1.6581,-1.6581,-1.6565,-1.7101,-1.7384,-1.7384,-1.7658,-1.7861,-1.7984,-1.8146,-1.8293,-1.8492,-1.8642,-1.8715,-1.8806,-1.8931,-1.9069,-1.9292,-2.0205,-2.0628,-2.0771,-2.079,-2.1792,-2.3198,-2.3409,-2.4193,-2.5115,-2.5253,-2.5284,-2.5284,-2.5303,-2.5303,-2.5303,-2.5382,-2.5406,-2.5403,-2.548,-2.5542,-2.5598,-2.5601,-2.6331,-2.7268,-2.8127,-2.9006,-2.9865,-3.0645,-3.0801,-3.0801,-3.0801,-3.0801,-3.0801,-3.0801,-3.0801,-3.0801,-3.0801,-3.0801,-3.0801,-3.0801,-3.0795,-3.0799,-3.0799,-3.08,-3.1168,-3.2009,-3.2087,-3.2888,-3.4626,-3.4704,-3.5114,-3.5972,-3.5948,-3.5908,-3.5908,-3.5899,-3.5896,-3.5896,-3.5968,-3.5966,-1.7836,-1.8447,-1.85,-1.6335,-1.5903,-1.612,-1.6442,-1.6791,-1.7173,-1.7516,-1.7988,-1.8461,-1.8808,-1.8974,0.0,0.0,0.0,0.0,0.0,-2.0763,-2.1023,-2.1007,-2.0763,-2.0662,-2.0795,-2.021,-1.9734,-1.954,-1.8988,-1.835,-1.7668,-1.7556,-1.7321,-1.6882,-1.6866,-1.6942,-1.7142,-1.7313,-1.7555,-1.7854,-1.7958,-1.8065,-1.8191,-1.8333,-1.845,-1.8506,-1.8641,-1.8789,-1.8949,-1.9087,-1.92,-1.9418,-2.0369,-2.1093,-2.1662,-2.2182,-2.2818,-2.3499,-2.4295,-2.4796,-2.5126,-2.5253,-2.5303,-2.5322,-2.5348,-2.5365,-2.5382,-2.5446,-2.5467,-2.5486,-2.5547,-2.6002,-2.647,-2.6512,-2.7654,-2.8793,-2.9103,-2.9806,-3.047,-3.0743,-3.081,-3.0796,-3.0796,-3.08,-3.08,-3.0804,-3.079,-3.0796,-3.0796,-3.08,-3.0801,-3.0801,-3.08,-3.08,-3.0798,-3.0792,-3.0925,-3.1218,-3.1237,-3.1999,-3.3697,-3.3775,-3.4452,-3.5919,-3.5916,-3.5903,-3.5899,-3.5894,-3.5889,-3.5889,-3.5919,-3.5909,-1.6822,-1.768,-1.827,-1.6908,-1.6022,-1.5773,-1.6659,-1.7001,-1.7277,-1.7907,-1.8383,-1.886,-1.9362,-1.9413,-1.9501,0.0,0.0,0.0,0.0,-2.0991,-2.1401,-2.1598,-2.1308,-2.1198,-2.1323,-2.0963,-2.0619,-2.0401,-2.0085,-1.9601,-1.8959,-1.8762,-1.8381,-1.7699,-1.7576,-1.7486,-1.7384,-1.7555,-1.7788,-1.8111,-1.8191,-1.8293,-1.845,-1.851,-1.8604,-1.8715,-1.8788,-1.8914,-1.9069,-1.9219,-1.9494,-1.9921,-2.0856,-2.1764,-2.2607,-2.3114,-2.3622,-2.4174,-2.4865,-2.5138,-2.5182,-2.5264,-2.5313,-2.533,-2.539,-2.541,-2.5446,-2.5515,-2.5532,-2.5547,-2.5613,-2.6286,-2.6958,-2.6993,-2.8325,-2.9593,-2.9593,-3.0235,-3.0801,-3.0801,-3.0793,-3.08,-3.08,-3.08,-3.0799,-3.0798,-3.08,-3.0801,-3.0801,-3.0798,-3.0795,-3.0792,-3.0808,-3.0799,-3.0765,-3.0758,-3.0755,-3.0755,-3.0755,-3.1535,-3.3232,-3.329,-3.412,-3.5869,-3.5883,-3.5866,-3.5872,-3.5864,-3.5857,-3.5857,-3.5857,-3.5859]}]]